Darstellungsparameter: Aktuell verwendete Einstellungen:
Skalierung der Graphiken ... ?
xyx+y,   Skalierungsfaktor:      Skalierung: Modus: x, Faktor: 1
Darstellungszeitraum ... ?
Vom - - bis: - -   Zeitraum: 22.04.2010 - 12.05.2010
Min/Max/Avg-Anzeige ... ?
Zeige MMA aktuell
Zeige MMA Monat
Zeige MMA alles
Zeige --A aktuell
Zeige --A Monat
Zeige --A alles
Keine MMA-Anzeige
MMA:
Average (ber die Originaldaten)
MMA-Basis: 11.04.2020 - 13.05.2020
Quicknavigation für Darstellung... ?
Tage:      1T, 2T, 3T, 5T -1T -2T -3T -5T +1T +2T +3T +5T
Wochen: 1W, 2W, 3W -1W -2W -3W +1W +2W +3W
Monate: 1M, 3M, 6M -1M -3M -6M +1M +3M +6M
Jahre:    1J, 3J, 5J, 10J -1J -3J -5J -10J +1J +3J +5J +10J
Nutze für die Darstellung ... ?
Originaldaten oder Mittelwerte auf ...
Stundenbasis Tagesbasis Wochenbasis
Monatsbasis Jahresbasis      Datenbasis: Original-Daten
Darstellen als:
Statistik (Auto) Statistik J:M      Darstellung:
Zur Graphik,    zurück zur Übersicht aller Sensoren.
 
Tabellarische Datenbersicht: ?
 
Sensor: Nr:Datum:Temp:Abs-Feuchte:Windchill:Wind:
Aussen-T/F 1 22-04-2010 00:08:02 4.3 C 3.5 g/m*3 4.3 C 0 km/h
2 22-04-2010 00:20:03 4.1 C 3.46 g/m*3 4.1 C 0 km/h
3 22-04-2010 00:32:03 3.8 C 3.51 g/m*3 3.8 C 0 km/h
4 22-04-2010 00:44:03 3.6 C 3.47 g/m*3 3.6 C 0 km/h
5 22-04-2010 00:56:03 3.5 C 3.57 g/m*3 3.5 C 0 km/h
6 22-04-2010 01:08:03 3.4 C 3.6 g/m*3 3.4 C 0 km/h
7 22-04-2010 01:20:03 3.1 C 3.59 g/m*3 3.1 C 0 km/h
8 22-04-2010 01:32:03 2.9 C 3.66 g/m*3 2.9 C 0 km/h
9 22-04-2010 01:44:03 2.7 C 3.67 g/m*3 2.7 C 0 km/h
10 22-04-2010 01:56:03 2.5 C 3.68 g/m*3 2.5 C 0 km/h
11 22-04-2010 02:08:03 2.3 C 3.69 g/m*3 2.3 C 0 km/h
12 22-04-2010 02:20:03 2.2 C 3.72 g/m*3 2.2 C 0 km/h
13 22-04-2010 02:32:03 2 C 3.78 g/m*3 2 C 0 km/h
14 22-04-2010 02:44:03 2 C 3.78 g/m*3 2 C 0 km/h
15 22-04-2010 02:56:03 1.7 C 3.76 g/m*3 1.7 C 0 km/h
16 22-04-2010 03:08:03 1.5 C 3.71 g/m*3 1.5 C 0 km/h
17 22-04-2010 03:20:03 1.3 C 3.71 g/m*3 1.3 C 0 km/h
18 22-04-2010 03:32:03 1.3 C 3.76 g/m*3 1.3 C 0 km/h
19 22-04-2010 03:44:03 1.2 C 3.74 g/m*3 1.2 C 0 km/h
20 22-04-2010 03:56:03 1.1 C 3.76 g/m*3 1.1 C 0 km/h
21 22-04-2010 04:08:03 1 C 3.79 g/m*3 1 C 0 km/h
22 22-04-2010 04:20:03 0.9 C 3.81 g/m*3 0.9 C 0 km/h
23 22-04-2010 04:32:03 0.8 C 3.79 g/m*3 0.8 C 0 km/h
24 22-04-2010 04:44:04 0.7 C 3.81 g/m*3 0.7 C 0 km/h
25 22-04-2010 04:56:04 0.6 C 3.84 g/m*3 0.6 C 0 km/h
Sensor: Nr:Datum:Temp:Abs-Feuchte:Windchill:Wind:
Aussen-T/F 26 22-04-2010 05:08:04 0.5 C 3.76 g/m*3 0.5 C 0 km/h
27 22-04-2010 05:20:04 0.5 C 3.81 g/m*3 0.5 C 0 km/h
28 22-04-2010 05:32:04 0.3 C 3.76 g/m*3 0.3 C 0 km/h
29 22-04-2010 05:44:04 0.2 C 3.78 g/m*3 0.2 C 0 km/h
30 22-04-2010 05:56:04 0 C 3.73 g/m*3 0 C 0 km/h
31 22-04-2010 06:08:04 -0.2 C 3.68 g/m*3 -0.2 C 0 km/h
32 22-04-2010 06:20:04 -0.2 C 3.73 g/m*3 -0.2 C 0 km/h
33 22-04-2010 06:32:04 -0.2 C 3.73 g/m*3 -0.2 C 0 km/h
34 22-04-2010 06:44:04 -0.1 C 3.8 g/m*3 -0.1 C 0 km/h
35 22-04-2010 06:56:04 -0.1 C 3.85 g/m*3 -0.1 C 0 km/h
36 22-04-2010 07:08:03 -0.2 C 3.82 g/m*3 -0.2 C 0 km/h
37 22-04-2010 07:20:02 -0.2 C 3.87 g/m*3 -0.2 C 0 km/h
38 22-04-2010 07:32:02 0 C 3.92 g/m*3 0 C 0 km/h
39 22-04-2010 07:44:02 0.1 C 3.95 g/m*3 0.1 C 0 km/h
40 22-04-2010 07:56:02 0.3 C 4.01 g/m*3 0.3 C 0 km/h
41 22-04-2010 08:08:02 0.3 C 3.96 g/m*3 0.3 C 0 km/h
42 22-04-2010 08:20:02 0.5 C 4.01 g/m*3 0.5 C 0 km/h
43 22-04-2010 08:32:02 0.6 C 3.99 g/m*3 0.6 C 0 km/h
44 22-04-2010 08:44:02 0.9 C 4.02 g/m*3 0.9 C 0 km/h
45 22-04-2010 08:56:02 1.3 C 4.08 g/m*3 1.3 C 0 km/h
46 22-04-2010 09:08:02 1.7 C 4.08 g/m*3 1.7 C 0 km/h
47 22-04-2010 09:20:02 2.2 C 4 g/m*3 2.2 C 0 km/h
48 22-04-2010 09:32:03 2.8 C 4.05 g/m*3 2.8 C 0 km/h
49 22-04-2010 09:44:03 3.5 C 4.12 g/m*3 3.5 C 0 km/h
50 22-04-2010 09:56:02 4.5 C 4.21 g/m*3 4.5 C 0 km/h
Sensor: Nr:Datum:Temp:Abs-Feuchte:Windchill:Wind:
Aussen-T/F 51 22-04-2010 10:08:01 5.2 C 3.99 g/m*3 5.2 C 0 km/h
52 22-04-2010 10:20:02 5.7 C 3.99 g/m*3 5.7 C 0 km/h
53 22-04-2010 10:32:02 6.4 C 3.73 g/m*3 6.4 C 0 km/h
54 22-04-2010 10:44:02 6.8 C 3.44 g/m*3 6.8 C 0 km/h
55 22-04-2010 10:56:02 7.3 C 3.24 g/m*3 7.3 C 0 km/h
56 22-04-2010 11:08:02 8.3 C 3.2 g/m*3 8.3 C 0 km/h
57 22-04-2010 11:20:02 8.7 C 3.03 g/m*3 8.7 C 0 km/h
58 22-04-2010 11:32:03 9 C 2.91 g/m*3 9 C 0 km/h
59 22-04-2010 11:44:03 9.7 C 3.04 g/m*3 9.7 C 0 km/h
60 22-04-2010 11:56:02 9.9 C 2.89 g/m*3 9.9 C 0 km/h
61 22-04-2010 12:08:01 10 C 2.82 g/m*3 10 C 0 km/h
62 22-04-2010 12:20:02 10.4 C 2.89 g/m*3 10.4 C 0 km/h
63 22-04-2010 12:32:02 10.9 C 2.88 g/m*3 10.9 C 0 km/h
64 22-04-2010 12:44:02 11.1 C 2.92 g/m*3 11.1 C 0 km/h
65 22-04-2010 12:56:02 11.4 C 2.77 g/m*3 11.4 C 0 km/h
66 22-04-2010 13:08:01 12 C 2.66 g/m*3 12 C 0 km/h
67 22-04-2010 13:20:01 12 C 2.13 g/m*3 12 C 0 km/h
68 22-04-2010 13:32:02 13 C 2.27 g/m*3 13 C 0 km/h
69 22-04-2010 13:44:02 13.5 C 2.34 g/m*3 13.5 C 0 km/h
70 22-04-2010 13:56:02 13.3 C 2.31 g/m*3 13.3 C 0 km/h
71 22-04-2010 14:08:02 13.8 C 2.38 g/m*3 13.8 C 0 km/h
72 22-04-2010 14:20:02 14.9 C 2.55 g/m*3 14.9 C 0 km/h
73 22-04-2010 14:32:02 15.5 C 2.64 g/m*3 15.5 C 0 km/h
74 22-04-2010 14:44:02 16 C 2.72 g/m*3 16 C 0 km/h
75 22-04-2010 14:56:02 16.3 C 2.77 g/m*3 16.3 C 0 km/h
Sensor: Nr:Datum:Temp:Abs-Feuchte:Windchill:Wind:
Aussen-T/F 76 22-04-2010 15:08:01 16.1 C 2.74 g/m*3 16.1 C 0 km/h
77 22-04-2010 15:20:02 16 C 2.72 g/m*3 16 C 0 km/h
78 22-04-2010 15:32:02 16 C 2.72 g/m*3 16 C 0 km/h
79 22-04-2010 15:44:02 17.5 C 2.98 g/m*3 17.5 C 0 km/h
80 22-04-2010 15:56:02 16.3 C 2.77 g/m*3 16.3 C 0 km/h
81 22-04-2010 16:08:02 16.3 C 2.77 g/m*3 16.3 C 0 km/h
82 22-04-2010 16:20:02 17.9 C 3.05 g/m*3 17.9 C 0 km/h
83 22-04-2010 16:32:03 18.9 C 3.24 g/m*3 18.9 C 0 km/h
84 22-04-2010 16:44:03 17.5 C 2.98 g/m*3 17.5 C 0 km/h
85 22-04-2010 16:56:02 18.8 C 3.22 g/m*3 18.8 C 0 km/h
86 22-04-2010 17:08:01 19.4 C 3.34 g/m*3 19.4 C 0 km/h
87 22-04-2010 17:20:02 19.4 C 3.34 g/m*3 19.4 C 0 km/h
88 22-04-2010 17:32:02 19.8 C 3.42 g/m*3 19.8 C 0 km/h
89 22-04-2010 17:44:02 21.6 C 3.79 g/m*3 21.6 C 0 km/h
90 22-04-2010 17:56:02 21.2 C 3.71 g/m*3 21.2 C 0 km/h
91 22-04-2010 18:08:03 19.3 C 3.32 g/m*3 19.3 C 0 km/h
92 22-04-2010 18:20:02 18.5 C 3.16 g/m*3 18.5 C 0 km/h
93 22-04-2010 18:32:02 18.9 C 3.24 g/m*3 18.9 C 0 km/h
94 22-04-2010 18:44:02 18.7 C 3.2 g/m*3 18.7 C 0 km/h
95 22-04-2010 18:56:02 17.8 C 3.04 g/m*3 17.8 C 0 km/h
96 22-04-2010 19:08:02 17.2 C 2.93 g/m*3 17.2 C 0 km/h
97 22-04-2010 19:20:01 17 C 2.89 g/m*3 17 C 0 km/h
98 22-04-2010 19:32:02 16.9 C 2.88 g/m*3 16.9 C 0 km/h
99 22-04-2010 19:44:02 16.5 C 2.81 g/m*3 16.5 C 0 km/h
100 22-04-2010 19:56:02 16.3 C 2.77 g/m*3 16.3 C 0 km/h
Sensor: Nr:Datum:Temp:Abs-Feuchte:Windchill:Wind:
Aussen-T/F 101 22-04-2010 20:08:02 15.1 C 2.58 g/m*3 15.1 C 0 km/h
102 22-04-2010 20:20:02 13.9 C 2.4 g/m*3 13.9 C 0 km/h
103 22-04-2010 20:32:02 13.5 C 2.34 g/m*3 13.5 C 0 km/h
104 22-04-2010 20:44:03 12.6 C 2.21 g/m*3 12.6 C 0 km/h
105 22-04-2010 20:56:02 12 C 2.13 g/m*3 12 C 0 km/h
106 22-04-2010 21:08:03 11.7 C 2.41 g/m*3 11.7 C 0 km/h
107 22-04-2010 21:20:02 11.2 C 2.64 g/m*3 11.2 C 0 km/h
108 22-04-2010 21:32:02 10.7 C 2.65 g/m*3 10.7 C 0 km/h
109 22-04-2010 21:44:02 10.3 C 2.68 g/m*3 10.3 C 0 km/h
110 22-04-2010 21:57:02 10 C 2.82 g/m*3 10 C 0 km/h
111 22-04-2010 22:09:02 9.9 C 2.8 g/m*3 9.9 C 0 km/h
112 22-04-2010 22:21:02 9.5 C 2.73 g/m*3 9.5 C 0 km/h
113 22-04-2010 22:33:02 9.2 C 2.77 g/m*3 9.2 C 0 km/h
114 22-04-2010 22:45:02 9.1 C 2.75 g/m*3 9.1 C 0 km/h
115 22-04-2010 22:57:02 8.7 C 2.94 g/m*3 8.7 C 0 km/h
116 22-04-2010 23:09:02 8.5 C 2.99 g/m*3 8.5 C 0 km/h
117 22-04-2010 23:21:02 8.3 C 3.12 g/m*3 8.3 C 0 km/h
118 22-04-2010 23:33:02 8.2 C 3.18 g/m*3 8.2 C 0 km/h
119 22-04-2010 23:45:02 7.9 C 3.29 g/m*3 7.9 C 0 km/h
120 22-04-2010 23:57:02 7.7 C 3.32 g/m*3 7.7 C 0 km/h
121 23-04-2010 00:09:02 7.3 C 3.32 g/m*3 7.3 C 0 km/h
122 23-04-2010 00:21:02 7.1 C 3.28 g/m*3 7.1 C 0 km/h
123 23-04-2010 00:33:02 6.8 C 3.44 g/m*3 6.8 C 0 km/h
124 23-04-2010 00:45:02 6.5 C 3.37 g/m*3 6.5 C 0 km/h
125 23-04-2010 00:57:03 6.2 C 3.46 g/m*3 6.2 C 0 km/h
Sensor: Nr:Datum:Temp:Abs-Feuchte:Windchill:Wind:
Aussen-T/F 126 23-04-2010 01:09:03 6 C 3.41 g/m*3 6 C 0 km/h
127 23-04-2010 01:21:03 5.8 C 3.51 g/m*3 5.8 C 0 km/h
128 23-04-2010 01:33:03 5.5 C 3.51 g/m*3 5.5 C 0 km/h
129 23-04-2010 01:45:03 5.4 C 3.49 g/m*3 5.4 C 0 km/h
130 23-04-2010 01:57:03 5.3 C 3.53 g/m*3 5.3 C 0 km/h
131 23-04-2010 02:09:03 5 C 3.47 g/m*3 5 C 0 km/h
132 23-04-2010 02:21:03 4.8 C 3.62 g/m*3 4.8 C 0 km/h
133 23-04-2010 02:33:03 4.5 C 3.55 g/m*3 4.5 C 0 km/h
134 23-04-2010 02:45:03 4.4 C 3.59 g/m*3 4.4 C 0 km/h
135 23-04-2010 02:57:03 4.2 C 3.61 g/m*3 4.2 C 0 km/h
136 23-04-2010 03:09:03 3.9 C 3.73 g/m*3 3.9 C 0 km/h
137 23-04-2010 03:21:03 3.7 C 3.68 g/m*3 3.7 C 0 km/h
138 23-04-2010 03:33:03 3.5 C 3.75 g/m*3 3.5 C 0 km/h
139 23-04-2010 03:45:03 3.3 C 3.76 g/m*3 3.3 C 0 km/h
140 23-04-2010 03:57:03 3.2 C 3.74 g/m*3 3.2 C 0 km/h
141 23-04-2010 04:09:03 2.9 C 3.78 g/m*3 2.9 C 0 km/h
142 23-04-2010 04:21:03 2.8 C 3.75 g/m*3 2.8 C 0 km/h
143 23-04-2010 04:33:03 2.7 C 3.73 g/m*3 2.7 C 0 km/h
144 23-04-2010 04:45:03 2.5 C 3.68 g/m*3 2.5 C 0 km/h
145 23-04-2010 04:57:03 2.4 C 3.77 g/m*3 2.4 C 0 km/h
146 23-04-2010 05:09:04 2.2 C 3.66 g/m*3 2.2 C 0 km/h
147 23-04-2010 05:21:04 2.1 C 3.69 g/m*3 2.1 C 0 km/h
148 23-04-2010 05:33:04 1.9 C 3.7 g/m*3 1.9 C 0 km/h
149 23-04-2010 05:45:04 1.7 C 3.7 g/m*3 1.7 C 0 km/h
150 23-04-2010 05:57:04 1.6 C 3.79 g/m*3 1.6 C 0 km/h
Sensor: Nr:Datum:Temp:Abs-Feuchte:Windchill:Wind:
Aussen-T/F 151 23-04-2010 06:09:04 1.6 C 3.79 g/m*3 1.6 C 0 km/h
152 23-04-2010 06:21:04 1.4 C 3.79 g/m*3 1.4 C 0 km/h
153 23-04-2010 06:33:04 1.3 C 3.81 g/m*3 1.3 C 0 km/h
154 23-04-2010 06:45:04 1.2 C 3.79 g/m*3 1.2 C 0 km/h
155 23-04-2010 06:57:04 1.3 C 3.81 g/m*3 1.3 C 0 km/h
156 23-04-2010 07:09:02 1.3 C 3.81 g/m*3 1.3 C 0 km/h
157 23-04-2010 07:21:01 1.3 C 3.81 g/m*3 1.3 C 0 km/h
158 23-04-2010 07:33:02 1.5 C 3.87 g/m*3 1.5 C 0 km/h
159 23-04-2010 07:45:01 1.6 C 3.95 g/m*3 1.6 C 0 km/h
160 23-04-2010 07:57:01 1.8 C 4 g/m*3 1.8 C 0 km/h
161 23-04-2010 08:09:02 2 C 3.95 g/m*3 2 C 0 km/h
162 23-04-2010 08:21:01 2.3 C 4.03 g/m*3 2.3 C 0 km/h
163 23-04-2010 08:33:02 2.5 C 4.02 g/m*3 2.5 C 0 km/h
164 23-04-2010 08:45:02 2.9 C 4.13 g/m*3 2.9 C 0 km/h
165 23-04-2010 08:57:02 3.3 C 4.19 g/m*3 3.3 C 0 km/h
166 23-04-2010 09:09:02 3.8 C 4.27 g/m*3 3.8 C 0 km/h
167 23-04-2010 09:21:01 4.6 C 4.23 g/m*3 4.6 C 0 km/h
168 23-04-2010 09:33:02 5.4 C 4.19 g/m*3 5.4 C 0 km/h
169 23-04-2010 09:45:02 6.1 C 4.09 g/m*3 6.1 C 0 km/h
170 23-04-2010 09:57:02 6.7 C 3.95 g/m*3 6.7 C 0 km/h
171 23-04-2010 10:09:02 7.5 C 4 g/m*3 7.5 C 0 km/h
172 23-04-2010 10:21:01 8.3 C 3.96 g/m*3 8.3 C 0 km/h
173 23-04-2010 10:33:02 9 C 3.97 g/m*3 9 C 0 km/h
174 23-04-2010 10:45:02 9.6 C 3.94 g/m*3 9.6 C 0 km/h
175 23-04-2010 10:57:02 10.3 C 3.83 g/m*3 10.3 C 0 km/h
Sensor: Nr:Datum:Temp:Abs-Feuchte:Windchill:Wind:
Aussen-T/F 176 23-04-2010 11:09:02 11 C 3.8 g/m*3 11 C 0 km/h
177 23-04-2010 11:21:01 11.7 C 3.87 g/m*3 11.7 C 0 km/h
178 23-04-2010 11:33:02 12.5 C 3.85 g/m*3 12.5 C 0 km/h
179 23-04-2010 11:45:02 12.9 C 3.49 g/m*3 12.9 C 0 km/h
180 23-04-2010 11:57:02 13.5 C 3.04 g/m*3 13.5 C 0 km/h
181 23-04-2010 12:09:02 14.2 C 3.05 g/m*3 14.2 C 0 km/h
182 23-04-2010 12:21:02 14.4 C 2.47 g/m*3 14.4 C 0 km/h
183 23-04-2010 12:33:02 14.9 C 2.55 g/m*3 14.9 C 0 km/h
184 23-04-2010 12:45:02 15.2 C 2.6 g/m*3 15.2 C 0 km/h
185 23-04-2010 12:57:02 15.7 C 2.68 g/m*3 15.7 C 0 km/h
186 23-04-2010 13:09:02 16.2 C 2.76 g/m*3 16.2 C 0 km/h
187 23-04-2010 13:21:03 17 C 2.89 g/m*3 17 C 0 km/h
188 23-04-2010 13:33:02 17.4 C 2.96 g/m*3 17.4 C 0 km/h
189 23-04-2010 13:45:02 17.8 C 3.04 g/m*3 17.8 C 0 km/h
190 23-04-2010 13:57:02 17.5 C 2.98 g/m*3 17.5 C 0 km/h
191 23-04-2010 14:09:02 18.4 C 3.15 g/m*3 18.4 C 0 km/h
192 23-04-2010 14:21:02 18.5 C 3.16 g/m*3 18.5 C 0 km/h
193 23-04-2010 14:33:02 19.1 C 3.28 g/m*3 19.1 C 0 km/h
194 23-04-2010 14:45:02 19.6 C 3.38 g/m*3 19.6 C 0 km/h
195 23-04-2010 14:57:02 20.9 C 3.64 g/m*3 20.9 C 0 km/h
196 23-04-2010 15:09:02 22.1 C 3.9 g/m*3 22.1 C 0 km/h
197 23-04-2010 15:21:02 21.6 C 3.79 g/m*3 21.6 C 0 km/h
198 23-04-2010 15:33:02 22.5 C 3.99 g/m*3 22.5 C 0 km/h
199 23-04-2010 15:45:03 22.6 C 4.02 g/m*3 22.6 C 0 km/h
200 23-04-2010 15:57:03 22.5 C 3.99 g/m*3 22.5 C 0 km/h
Sensor: Nr:Datum:Temp:Abs-Feuchte:Windchill:Wind:
Aussen-T/F 201 23-04-2010 16:09:02 22.6 C 4.02 g/m*3 22.6 C 0 km/h
202 23-04-2010 16:21:02 22.9 C 4.09 g/m*3 22.9 C 0 km/h
203 23-04-2010 16:33:02 22.9 C 4.09 g/m*3 22.9 C 0 km/h
204 23-04-2010 16:45:02 23 C 4.11 g/m*3 23 C 0 km/h
205 23-04-2010 16:57:02 23.5 C 4.23 g/m*3 23.5 C 0 km/h
206 23-04-2010 17:09:03 24.5 C 4.48 g/m*3 24.5 C 0 km/h
207 23-04-2010 17:21:03 22.9 C 4.09 g/m*3 22.9 C 0 km/h
208 23-04-2010 17:33:02 22.5 C 3.99 g/m*3 22.5 C 0 km/h
209 23-04-2010 17:45:03 23 C 4.11 g/m*3 23 C 0 km/h
210 23-04-2010 17:57:03 24.5 C 4.48 g/m*3 24.5 C 0 km/h
211 23-04-2010 18:09:02 24.1 C 4.38 g/m*3 24.1 C 0 km/h
212 23-04-2010 18:21:03 22.9 C 4.09 g/m*3 22.9 C 0 km/h
213 23-04-2010 18:33:02 22.6 C 4.02 g/m*3 22.6 C 0 km/h
214 23-04-2010 18:45:02 22.1 C 3.9 g/m*3 22.1 C 0 km/h
215 23-04-2010 18:57:02 21.9 C 3.86 g/m*3 21.9 C 0 km/h
216 23-04-2010 19:09:02 21.9 C 3.86 g/m*3 21.9 C 0 km/h
217 23-04-2010 19:21:02 20.9 C 3.64 g/m*3 20.9 C 0 km/h
218 23-04-2010 19:33:02 20.2 C 3.5 g/m*3 20.2 C 0 km/h
219 23-04-2010 19:45:01 19.4 C 3.34 g/m*3 19.4 C 0 km/h
220 23-04-2010 19:57:01 19.2 C 3.3 g/m*3 19.2 C 0 km/h
221 23-04-2010 20:09:02 18.3 C 3.13 g/m*3 18.3 C 0 km/h
222 23-04-2010 20:21:01 17.6 C 3 g/m*3 17.6 C 0 km/h
223 23-04-2010 20:33:01 17 C 2.89 g/m*3 17 C 0 km/h
224 23-04-2010 20:45:01 16.5 C 2.81 g/m*3 16.5 C 0 km/h
225 23-04-2010 20:57:01 15.6 C 2.66 g/m*3 15.6 C 0 km/h
Sensor: Nr:Datum:Temp:Abs-Feuchte:Windchill:Wind:
Aussen-T/F 226 23-04-2010 21:09:01 14.9 C 2.55 g/m*3 14.9 C 0 km/h
227 23-04-2010 21:21:02 14.3 C 2.46 g/m*3 14.3 C 0 km/h
228 23-04-2010 21:33:02 14.2 C 2.44 g/m*3 14.2 C 0 km/h
229 23-04-2010 21:45:02 13.8 C 2.38 g/m*3 13.8 C 0 km/h
230 23-04-2010 21:57:02 13.4 C 2.67 g/m*3 13.4 C 0 km/h
231 23-04-2010 22:09:02 13.1 C 2.62 g/m*3 13.1 C 0 km/h
232 23-04-2010 22:21:03 12.8 C 2.91 g/m*3 12.8 C 0 km/h
233 23-04-2010 22:33:02 12.6 C 2.88 g/m*3 12.6 C 0 km/h
234 23-04-2010 22:46:04 12.4 C 2.84 g/m*3 12.4 C 0 km/h
235 23-04-2010 22:58:04 12.1 C 3.22 g/m*3 12.1 C 0 km/h
236 23-04-2010 23:10:04 11.7 C 3.24 g/m*3 11.7 C 0 km/h
237 23-04-2010 23:22:04 11.2 C 3.34 g/m*3 11.2 C 0 km/h
238 23-04-2010 23:34:04 10.7 C 3.44 g/m*3 10.7 C 0 km/h
239 23-04-2010 23:46:04 10.5 C 3.39 g/m*3 10.5 C 0 km/h
240 23-04-2010 23:58:04 10.2 C 3.43 g/m*3 10.2 C 0 km/h
241 24-04-2010 00:10:04 10 C 3.38 g/m*3 10 C 0 km/h
242 24-04-2010 00:22:04 9.6 C 3.48 g/m*3 9.6 C 0 km/h
243 24-04-2010 00:34:04 9.5 C 3.46 g/m*3 9.5 C 0 km/h
244 24-04-2010 00:46:04 9.4 C 3.53 g/m*3 9.4 C 0 km/h
245 24-04-2010 00:58:04 9 C 3.7 g/m*3 9 C 0 km/h
246 24-04-2010 01:10:05 8.6 C 3.52 g/m*3 8.6 C 0 km/h
247 24-04-2010 01:22:05 8.5 C 3.5 g/m*3 8.5 C 0 km/h
248 24-04-2010 01:34:05 8.4 C 3.56 g/m*3 8.4 C 0 km/h
249 24-04-2010 01:46:05 8.1 C 3.58 g/m*3 8.1 C 0 km/h
250 24-04-2010 01:58:05 7.9 C 3.61 g/m*3 7.9 C 0 km/h
Sensor: Nr:Datum:Temp:Abs-Feuchte:Windchill:Wind:
Aussen-T/F 251 24-04-2010 02:10:05 7.6 C 3.63 g/m*3 7.6 C 0 km/h
252 24-04-2010 02:22:05 7.2 C 3.61 g/m*3 7.2 C 0 km/h
253 24-04-2010 02:34:05 7.1 C 3.59 g/m*3 7.1 C 0 km/h
254 24-04-2010 02:46:05 6.9 C 3.62 g/m*3 6.9 C 0 km/h
255 24-04-2010 02:58:05 6.7 C 3.65 g/m*3 6.7 C 0 km/h
256 24-04-2010 03:10:05 6.6 C 3.62 g/m*3 6.6 C 0 km/h
257 24-04-2010 03:22:05 6.6 C 3.7 g/m*3 6.6 C 0 km/h
258 24-04-2010 03:34:05 6.2 C 3.6 g/m*3 6.2 C 0 km/h
259 24-04-2010 03:46:05 5.9 C 3.68 g/m*3 5.9 C 0 km/h
260 24-04-2010 03:58:05 5.7 C 3.63 g/m*3 5.7 C 0 km/h
261 24-04-2010 04:10:05 5.6 C 3.68 g/m*3 5.6 C 0 km/h
262 24-04-2010 04:22:05 5.4 C 3.7 g/m*3 5.4 C 0 km/h
263 24-04-2010 04:34:05 5.1 C 3.76 g/m*3 5.1 C 0 km/h
264 24-04-2010 04:46:05 5 C 3.74 g/m*3 5 C 0 km/h
265 24-04-2010 04:58:05 4.8 C 3.82 g/m*3 4.8 C 0 km/h
266 24-04-2010 05:10:05 4.6 C 3.77 g/m*3 4.6 C 0 km/h
267 24-04-2010 05:22:06 4.5 C 3.88 g/m*3 4.5 C 0 km/h
268 24-04-2010 05:34:06 4.4 C 3.85 g/m*3 4.4 C 0 km/h
269 24-04-2010 05:46:06 4.1 C 3.84 g/m*3 4.1 C 0 km/h
270 24-04-2010 05:58:06 4 C 3.88 g/m*3 4 C 0 km/h
271 24-04-2010 06:10:06 3.9 C 3.85 g/m*3 3.9 C 0 km/h
272 24-04-2010 06:22:06 3.7 C 3.86 g/m*3 3.7 C 0 km/h
273 24-04-2010 06:34:06 3.6 C 3.96 g/m*3 3.6 C 0 km/h
274 24-04-2010 06:46:06 3.5 C 4 g/m*3 3.5 C 0 km/h
275 24-04-2010 06:58:06 3.5 C 4 g/m*3 3.5 C 0 km/h
Sensor: Nr:Datum:Temp:Abs-Feuchte:Windchill:Wind:
Aussen-T/F 276 24-04-2010 07:10:06 3.6 C 3.96 g/m*3 3.6 C 0 km/h
277 24-04-2010 07:22:06 3.6 C 3.96 g/m*3 3.6 C 0 km/h
278 24-04-2010 07:34:03 3.7 C 4.05 g/m*3 3.7 C 0 km/h
279 24-04-2010 07:46:02 3.9 C 4.11 g/m*3 3.9 C 0 km/h
280 24-04-2010 07:58:02 4.1 C 4.1 g/m*3 4.1 C 0 km/h
281 24-04-2010 08:10:01 4.3 C 4.15 g/m*3 4.3 C 0 km/h
282 24-04-2010 08:22:02 4.5 C 4.14 g/m*3 4.5 C 0 km/h
283 24-04-2010 08:34:01 4.8 C 4.16 g/m*3 4.8 C 0 km/h
284 24-04-2010 08:46:02 5.2 C 4.06 g/m*3 5.2 C 0 km/h
285 24-04-2010 08:58:02 5.4 C 4.05 g/m*3 5.4 C 0 km/h
286 24-04-2010 09:10:02 6.1 C 4.24 g/m*3 6.1 C 0 km/h
287 24-04-2010 09:22:02 7 C 4.26 g/m*3 7 C 0 km/h
288 24-04-2010 09:34:03 7.7 C 4.3 g/m*3 7.7 C 0 km/h
289 24-04-2010 09:46:02 8.4 C 4.16 g/m*3 8.4 C 0 km/h
290 24-04-2010 09:58:03 9.2 C 4.11 g/m*3 9.2 C 0 km/h
291 24-04-2010 10:10:01 10 C 4.13 g/m*3 10 C 0 km/h
292 24-04-2010 10:22:02 10.5 C 4.07 g/m*3 10.5 C 0 km/h
293 24-04-2010 10:34:02 11.3 C 4.28 g/m*3 11.3 C 0 km/h
294 24-04-2010 10:46:02 12.1 C 4.29 g/m*3 12.1 C 0 km/h
295 24-04-2010 10:58:03 13.1 C 4.11 g/m*3 13.1 C 0 km/h
296 24-04-2010 11:10:02 13.8 C 4.05 g/m*3 13.8 C 0 km/h
297 24-04-2010 11:22:02 14.5 C 3.98 g/m*3 14.5 C 0 km/h
298 24-04-2010 11:34:03 15.1 C 3.87 g/m*3 15.1 C 0 km/h
299 24-04-2010 11:46:02 16 C 3.68 g/m*3 16 C 0 km/h
300 24-04-2010 11:58:03 16.8 C 3.86 g/m*3 16.8 C 0 km/h
Sensor: Nr:Datum:Temp:Abs-Feuchte:Windchill:Wind:
Aussen-T/F 301 24-04-2010 12:10:01 17.6 C 3.75 g/m*3 17.6 C 0 km/h
302 24-04-2010 12:22:02 18.4 C 3.15 g/m*3 18.4 C 0 km/h
303 24-04-2010 12:34:02 19 C 3.75 g/m*3 19 C 0 km/h
304 24-04-2010 12:46:02 19.6 C 3.38 g/m*3 19.6 C 0 km/h
305 24-04-2010 12:58:02 19.7 C 3.4 g/m*3 19.7 C 0 km/h
306 24-04-2010 13:10:02 20.5 C 3.56 g/m*3 20.5 C 0 km/h
307 24-04-2010 13:22:02 21.6 C 3.79 g/m*3 21.6 C 0 km/h
308 24-04-2010 13:34:03 22.3 C 3.95 g/m*3 22.3 C 0 km/h
309 24-04-2010 13:46:02 22.6 C 4.02 g/m*3 22.6 C 0 km/h
310 24-04-2010 13:58:03 22.9 C 4.09 g/m*3 22.9 C 0 km/h
311 24-04-2010 14:10:01 23.2 C 4.16 g/m*3 23.2 C 0 km/h
312 24-04-2010 14:22:02 22.9 C 4.09 g/m*3 22.9 C 0 km/h
313 24-04-2010 14:34:02 23.6 C 4.25 g/m*3 23.6 C 0 km/h
314 24-04-2010 14:46:01 24.6 C 4.5 g/m*3 24.6 C 0 km/h
315 24-04-2010 14:58:01 25.3 C 4.68 g/m*3 25.3 C 0 km/h
316 24-04-2010 15:10:01 25.8 C 4.82 g/m*3 25.8 C 0 km/h
317 24-04-2010 15:22:01 24.7 C 4.53 g/m*3 24.7 C 0 km/h
318 24-04-2010 15:34:02 25.6 C 4.76 g/m*3 25.6 C 0 km/h
319 24-04-2010 15:46:02 25.6 C 4.76 g/m*3 25.6 C 0 km/h
320 24-04-2010 15:58:02 26.4 C 4.98 g/m*3 26.4 C 0 km/h
321 24-04-2010 16:10:01 27.3 C 5.23 g/m*3 27.3 C 0 km/h
322 24-04-2010 16:22:02 27.9 C 5.41 g/m*3 27.9 C 0 km/h
323 24-04-2010 16:34:02 27.7 C 5.35 g/m*3 27.7 C 0 km/h
324 24-04-2010 16:46:01 28.5 C 5.59 g/m*3 28.5 C 0 km/h
325 24-04-2010 16:58:01 28.9 C 5.71 g/m*3 28.9 C 0 km/h
Sensor: Nr:Datum:Temp:Abs-Feuchte:Windchill:Wind:
Aussen-T/F 326 24-04-2010 17:10:01 28.9 C 5.71 g/m*3 28.9 C 0 km/h
327 24-04-2010 17:22:01 27.3 C 5.23 g/m*3 27.3 C 0 km/h
328 24-04-2010 17:34:02 28.3 C 5.53 g/m*3 28.3 C 0 km/h
329 24-04-2010 17:46:01 29 C 5.74 g/m*3 29 C 0 km/h
330 24-04-2010 17:58:01 28.8 C 5.68 g/m*3 28.8 C 0 km/h
331 24-04-2010 18:10:02 28.7 C 5.65 g/m*3 28.7 C 0 km/h
332 24-04-2010 18:22:01 28.2 C 5.5 g/m*3 28.2 C 0 km/h
333 24-04-2010 18:34:02 26.9 C 5.12 g/m*3 26.9 C 0 km/h
334 24-04-2010 18:46:01 27.5 C 5.29 g/m*3 27.5 C 0 km/h
335 24-04-2010 18:58:01 27.7 C 5.35 g/m*3 27.7 C 0 km/h
336 24-04-2010 19:10:02 27.2 C 5.2 g/m*3 27.2 C 0 km/h
337 24-04-2010 19:22:01 26.8 C 5.09 g/m*3 26.8 C 0 km/h
338 24-04-2010 19:34:02 26.3 C 4.95 g/m*3 26.3 C 0 km/h
339 24-04-2010 19:46:02 25.9 C 4.84 g/m*3 25.9 C 0 km/h
340 24-04-2010 19:58:02 25.4 C 4.71 g/m*3 25.4 C 0 km/h
341 24-04-2010 20:10:02 24.3 C 4.43 g/m*3 24.3 C 0 km/h
342 24-04-2010 20:22:02 22.9 C 4.09 g/m*3 22.9 C 0 km/h
343 24-04-2010 20:34:02 21 C 3.66 g/m*3 21 C 0 km/h
344 24-04-2010 20:46:02 20 C 3.46 g/m*3 20 C 0 km/h
345 24-04-2010 20:58:02 19.4 C 3.34 g/m*3 19.4 C 0 km/h
346 24-04-2010 21:10:02 19.2 C 3.3 g/m*3 19.2 C 0 km/h
347 24-04-2010 21:22:02 18.4 C 3.15 g/m*3 18.4 C 0 km/h
348 24-04-2010 21:34:02 18 C 3.07 g/m*3 18 C 0 km/h
349 24-04-2010 21:46:02 17.5 C 2.98 g/m*3 17.5 C 0 km/h
350 24-04-2010 21:58:02 16.8 C 2.86 g/m*3 16.8 C 0 km/h
Sensor: Nr:Datum:Temp:Abs-Feuchte:Windchill:Wind:
Aussen-T/F 351 24-04-2010 22:10:02 16.6 C 2.83 g/m*3 16.6 C 0 km/h
352 24-04-2010 22:22:03 16.5 C 2.95 g/m*3 16.5 C 0 km/h
353 24-04-2010 22:34:02 16.2 C 3.17 g/m*3 16.2 C 0 km/h
354 24-04-2010 22:47:03 15.8 C 3.37 g/m*3 15.8 C 0 km/h
355 24-04-2010 22:59:03 15.3 C 3.4 g/m*3 15.3 C 0 km/h
356 24-04-2010 23:11:03 14.8 C 3.55 g/m*3 14.8 C 0 km/h
357 24-04-2010 23:23:03 14.6 C 3.75 g/m*3 14.6 C 0 km/h
358 24-04-2010 23:35:03 14.1 C 3.76 g/m*3 14.1 C 0 km/h
359 24-04-2010 23:47:03 13.6 C 3.77 g/m*3 13.6 C 0 km/h
360 24-04-2010 23:59:04 13.4 C 3.84 g/m*3 13.4 C 0 km/h
361 25-04-2010 00:11:04 13.1 C 3.88 g/m*3 13.1 C 0 km/h
362 25-04-2010 00:23:04 12.8 C 3.92 g/m*3 12.8 C 0 km/h
363 25-04-2010 00:35:04 12.7 C 4.01 g/m*3 12.7 C 0 km/h
364 25-04-2010 00:47:04 12.2 C 3.99 g/m*3 12.2 C 0 km/h
365 25-04-2010 00:59:04 12.1 C 4.18 g/m*3 12.1 C 0 km/h
366 25-04-2010 01:11:04 11.8 C 4.32 g/m*3 11.8 C 0 km/h
367 25-04-2010 01:23:04 11.4 C 4.21 g/m*3 11.4 C 0 km/h
368 25-04-2010 01:35:04 11.1 C 4.13 g/m*3 11.1 C 0 km/h
369 25-04-2010 01:47:04 11 C 4.2 g/m*3 11 C 0 km/h
370 25-04-2010 01:59:04 10.7 C 4.42 g/m*3 10.7 C 0 km/h
371 25-04-2010 02:11:04 10.5 C 4.27 g/m*3 10.5 C 0 km/h
372 25-04-2010 02:23:04 10.4 C 4.34 g/m*3 10.4 C 0 km/h
373 25-04-2010 02:35:04 10.1 C 4.26 g/m*3 10.1 C 0 km/h
374 25-04-2010 02:47:04 9.9 C 4.2 g/m*3 9.9 C 0 km/h
375 25-04-2010 02:59:04 9.7 C 4.24 g/m*3 9.7 C 0 km/h
Sensor: Nr:Datum:Temp:Abs-Feuchte:Windchill:Wind:
Aussen-T/F 376 25-04-2010 03:11:04 9.3 C 4.22 g/m*3 9.3 C 0 km/h
377 25-04-2010 03:23:04 9.1 C 4.26 g/m*3 9.1 C 0 km/h
378 25-04-2010 03:35:04 9 C 4.23 g/m*3 9 C 0 km/h
379 25-04-2010 03:47:04 8.7 C 4.32 g/m*3 8.7 C 0 km/h
380 25-04-2010 03:59:05 8.5 C 4.44 g/m*3 8.5 C 0 km/h
381 25-04-2010 04:11:05 8 C 4.55 g/m*3 8 C 0 km/h
382 25-04-2010 04:23:05 8 C 4.55 g/m*3 8 C 0 km/h
383 25-04-2010 04:35:05 7.8 C 4.49 g/m*3 7.8 C 0 km/h
384 25-04-2010 04:47:05 7.7 C 4.54 g/m*3 7.7 C 0 km/h
385 25-04-2010 04:59:05 7.6 C 4.51 g/m*3 7.6 C 0 km/h
386 25-04-2010 05:11:05 7.5 C 4.48 g/m*3 7.5 C 0 km/h
387 25-04-2010 05:23:05 7.2 C 4.4 g/m*3 7.2 C 0 km/h
388 25-04-2010 05:35:05 7 C 4.49 g/m*3 7 C 0 km/h
389 25-04-2010 05:47:05 6.8 C 4.59 g/m*3 6.8 C 0 km/h
390 25-04-2010 05:59:05 6.7 C 4.56 g/m*3 6.7 C 0 km/h
391 25-04-2010 06:11:05 6.4 C 4.55 g/m*3 6.4 C 0 km/h
392 25-04-2010 06:23:05 6.3 C 4.59 g/m*3 6.3 C 0 km/h
393 25-04-2010 06:35:05 6.2 C 4.63 g/m*3 6.2 C 0 km/h
394 25-04-2010 06:47:05 6.2 C 4.63 g/m*3 6.2 C 0 km/h
395 25-04-2010 06:59:05 6.2 C 4.63 g/m*3 6.2 C 0 km/h
396 25-04-2010 07:11:04 6.2 C 4.63 g/m*3 6.2 C 0 km/h
397 25-04-2010 07:23:03 6.3 C 4.74 g/m*3 6.3 C 0 km/h
398 25-04-2010 07:35:03 6.5 C 4.8 g/m*3 6.5 C 0 km/h
399 25-04-2010 07:47:02 6.6 C 4.91 g/m*3 6.6 C 0 km/h
400 25-04-2010 07:59:02 6.7 C 4.86 g/m*3 6.7 C 0 km/h
Sensor: Nr:Datum:Temp:Abs-Feuchte:Windchill:Wind:
Aussen-T/F 401 25-04-2010 08:11:01 7 C 4.88 g/m*3 7 C 0 km/h
402 25-04-2010 08:23:02 7.3 C 4.9 g/m*3 7.3 C 0 km/h
403 25-04-2010 08:35:01 7.7 C 4.95 g/m*3 7.7 C 0 km/h
404 25-04-2010 08:47:01 8.1 C 4.99 g/m*3 8.1 C 0 km/h
405 25-04-2010 08:59:01 8.5 C 4.95 g/m*3 8.5 C 0 km/h
406 25-04-2010 09:11:02 9 C 4.94 g/m*3 9 C 0 km/h
407 25-04-2010 09:23:02 9.6 C 4.86 g/m*3 9.6 C 0 km/h
408 25-04-2010 09:35:01 10.4 C 5.01 g/m*3 10.4 C 0 km/h
409 25-04-2010 09:47:02 11.3 C 5.2 g/m*3 11.3 C 0 km/h
410 25-04-2010 09:59:02 12.2 C 5.18 g/m*3 12.2 C 0 km/h
411 25-04-2010 10:11:01 13.6 C 5.3 g/m*3 13.6 C 0 km/h
412 25-04-2010 10:23:02 14.8 C 5.32 g/m*3 14.8 C 0 km/h
413 25-04-2010 10:35:01 15.9 C 5.28 g/m*3 15.9 C 0 km/h
414 25-04-2010 10:47:03 16.7 C 5.4 g/m*3 16.7 C 0 km/h
415 25-04-2010 10:59:03 17.4 C 5.34 g/m*3 17.4 C 0 km/h
416 25-04-2010 11:11:02 18.8 C 5.31 g/m*3 18.8 C 0 km/h
417 25-04-2010 11:23:02 19.8 C 4.27 g/m*3 19.8 C 0 km/h
418 25-04-2010 11:35:02 20.8 C 3.62 g/m*3 20.8 C 0 km/h
419 25-04-2010 11:47:02 21.2 C 3.71 g/m*3 21.2 C 0 km/h
420 25-04-2010 11:59:02 21.7 C 3.82 g/m*3 21.7 C 0 km/h
421 25-04-2010 12:11:02 22.1 C 3.9 g/m*3 22.1 C 0 km/h
422 25-04-2010 12:23:02 22.5 C 3.99 g/m*3 22.5 C 0 km/h
423 25-04-2010 12:35:02 22.5 C 3.99 g/m*3 22.5 C 0 km/h
424 25-04-2010 12:47:02 22.9 C 4.09 g/m*3 22.9 C 0 km/h
425 25-04-2010 12:59:02 24 C 4.35 g/m*3 24 C 0 km/h
Sensor: Nr:Datum:Temp:Abs-Feuchte:Windchill:Wind:
Aussen-T/F 426 25-04-2010 13:11:01 24.4 C 4.45 g/m*3 24.4 C 0 km/h
427 25-04-2010 13:23:02 24.9 C 4.58 g/m*3 24.9 C 0 km/h
428 25-04-2010 13:35:01 24.8 C 4.55 g/m*3 24.8 C 0 km/h
429 25-04-2010 13:47:02 25.2 C 4.66 g/m*3 25.2 C 0 km/h
430 25-04-2010 13:59:02 25.3 C 4.68 g/m*3 25.3 C 0 km/h
431 25-04-2010 14:11:01 25.9 C 4.84 g/m*3 25.9 C 0 km/h
432 25-04-2010 14:23:01 25.8 C 4.82 g/m*3 25.8 C 0 km/h
433 25-04-2010 14:35:01 26.8 C 5.09 g/m*3 26.8 C 0 km/h
434 25-04-2010 14:47:02 26.8 C 5.09 g/m*3 26.8 C 0 km/h
435 25-04-2010 14:59:02 27.4 C 5.26 g/m*3 27.4 C 0 km/h
436 25-04-2010 15:11:02 28.1 C 5.47 g/m*3 28.1 C 0 km/h
437 25-04-2010 15:23:02 27.8 C 5.38 g/m*3 27.8 C 0 km/h
438 25-04-2010 15:35:02 28.7 C 5.65 g/m*3 28.7 C 0 km/h
439 25-04-2010 15:47:02 28.1 C 5.47 g/m*3 28.1 C 0 km/h
440 25-04-2010 15:59:03 28.5 C 5.59 g/m*3 28.5 C 0 km/h
441 25-04-2010 16:11:01 29.1 C 5.78 g/m*3 29.1 C 0 km/h
442 25-04-2010 16:23:01 28.5 C 5.59 g/m*3 28.5 C 0 km/h
443 25-04-2010 16:35:02 28.5 C 5.59 g/m*3 28.5 C 0 km/h
444 25-04-2010 16:47:02 29.9 C 6.03 g/m*3 29.9 C 0 km/h
445 25-04-2010 16:59:03 30.2 C 6.13 g/m*3 30.2 C 0 km/h
446 25-04-2010 17:11:02 29.5 C 5.9 g/m*3 29.5 C 0 km/h
447 25-04-2010 17:23:02 27.5 C 5.29 g/m*3 27.5 C 0 km/h
448 25-04-2010 17:35:02 26.4 C 4.98 g/m*3 26.4 C 0 km/h
449 25-04-2010 17:47:02 25.9 C 4.84 g/m*3 25.9 C 0 km/h
450 25-04-2010 17:59:02 25.7 C 4.79 g/m*3 25.7 C 0 km/h
Sensor: Nr:Datum:Temp:Abs-Feuchte:Windchill:Wind:
Aussen-T/F 451 25-04-2010 18:11:01 25.6 C 4.76 g/m*3 25.6 C 0 km/h
452 25-04-2010 18:23:01 26 C 4.87 g/m*3 26 C 0 km/h
453 25-04-2010 18:35:02 26.4 C 4.98 g/m*3 26.4 C 0 km/h
454 25-04-2010 18:47:02 26.5 C 5.01 g/m*3 26.5 C 0 km/h
455 25-04-2010 18:59:02 25.3 C 4.68 g/m*3 25.3 C 0 km/h
456 25-04-2010 19:11:01 24.7 C 4.53 g/m*3 24.7 C 0 km/h
457 25-04-2010 19:23:02 24.4 C 4.45 g/m*3 24.4 C 0 km/h
458 25-04-2010 19:35:02 24.1 C 4.38 g/m*3 24.1 C 0 km/h
459 25-04-2010 19:47:02 23.4 C 4.21 g/m*3 23.4 C 0 km/h
460 25-04-2010 19:59:02 22.9 C 4.09 g/m*3 22.9 C 0 km/h
461 25-04-2010 20:11:01 22.3 C 3.95 g/m*3 22.3 C 0 km/h
462 25-04-2010 20:23:02 21.6 C 3.98 g/m*3 21.6 C 0 km/h
463 25-04-2010 20:35:01 21 C 3.85 g/m*3 21 C 0 km/h
464 25-04-2010 20:47:03 20.5 C 4.09 g/m*3 20.5 C 0 km/h
465 25-04-2010 20:59:03 20.2 C 4.37 g/m*3 20.2 C 0 km/h
466 25-04-2010 21:11:02 19.9 C 4.3 g/m*3 19.9 C 0 km/h
467 25-04-2010 21:23:02 19.5 C 4.36 g/m*3 19.5 C 0 km/h
468 25-04-2010 21:35:02 19.2 C 4.45 g/m*3 19.2 C 0 km/h
469 25-04-2010 21:47:02 19.1 C 4.75 g/m*3 19.1 C 0 km/h
470 25-04-2010 21:59:02 19.1 C 4.59 g/m*3 19.1 C 0 km/h
471 25-04-2010 22:11:02 19 C 4.73 g/m*3 19 C 0 km/h
472 25-04-2010 22:23:02 18.8 C 4.83 g/m*3 18.8 C 0 km/h
473 25-04-2010 22:35:02 18.5 C 5.06 g/m*3 18.5 C 0 km/h
474 25-04-2010 22:47:02 18.5 C 4.9 g/m*3 18.5 C 0 km/h
475 25-04-2010 22:59:02 18 C 5.07 g/m*3 18 C 0 km/h
Sensor: Nr:Datum:Temp:Abs-Feuchte:Windchill:Wind:
Aussen-T/F 476 25-04-2010 23:11:02 18.6 C 5.41 g/m*3 18.6 C 0 km/h
477 25-04-2010 23:23:02 18.6 C 5.73 g/m*3 18.6 C 0 km/h
478 25-04-2010 23:35:02 18.2 C 5.75 g/m*3 18.2 C 0 km/h
479 25-04-2010 23:47:02 18 C 5.99 g/m*3 18 C 0 km/h
480 25-04-2010 23:59:02 17.5 C 5.96 g/m*3 17.5 C 0 km/h
481 26-04-2010 00:11:02 17.3 C 6.04 g/m*3 17.3 C 0 km/h
482 26-04-2010 00:23:02 17 C 6.22 g/m*3 17 C 0 km/h
483 26-04-2010 00:35:02 17.2 C 6 g/m*3 17.2 C 0 km/h
484 26-04-2010 00:47:02 17.1 C 5.82 g/m*3 17.1 C 0 km/h
485 26-04-2010 00:59:03 16.9 C 5.75 g/m*3 16.9 C 0 km/h
486 26-04-2010 01:11:03 16.7 C 5.83 g/m*3 16.7 C 0 km/h
487 26-04-2010 01:23:03 16.4 C 5.86 g/m*3 16.4 C 0 km/h
488 26-04-2010 01:35:03 16.1 C 6.03 g/m*3 16.1 C 0 km/h
489 26-04-2010 01:47:03 15.9 C 6.09 g/m*3 15.9 C 0 km/h
490 26-04-2010 01:59:03 16 C 6.13 g/m*3 16 C 0 km/h
491 26-04-2010 02:11:03 14.6 C 7.38 g/m*3 14.6 C 0 km/h
492 26-04-2010 02:23:03 13.3 C 8.43 g/m*3 13.3 C 0 km/h
493 26-04-2010 02:35:03 13 C 8.96 g/m*3 13 C 0 km/h
494 26-04-2010 02:47:03 12.5 C 9.02 g/m*3 12.5 C 0 km/h
495 26-04-2010 02:59:03 12.7 C 9.24 g/m*3 12.7 C 0 km/h
496 26-04-2010 03:11:03 12.4 C 9.07 g/m*3 12.4 C 0 km/h
497 26-04-2010 03:23:03 12.6 C 9.18 g/m*3 12.6 C 0 km/h
498 26-04-2010 03:35:03 12.7 C 9.13 g/m*3 12.7 C 0 km/h
499 26-04-2010 03:47:03 12.8 C 8.96 g/m*3 12.8 C 0 km/h
500 26-04-2010 03:59:03 12.7 C 8.79 g/m*3 12.7 C 0 km/h
Sensor: Nr:Datum:Temp:Abs-Feuchte:Windchill:Wind:
Aussen-T/F 501 26-04-2010 04:11:03 12.4 C 8.63 g/m*3 12.4 C 0 km/h
502 26-04-2010 04:23:03 12.3 C 8.58 g/m*3 12.3 C 0 km/h
503 26-04-2010 04:35:03 12.2 C 8.52 g/m*3 12.2 C 0 km/h
504 26-04-2010 04:47:03 12.2 C 8.52 g/m*3 12.2 C 0 km/h
505 26-04-2010 04:59:04 12.2 C 8.52 g/m*3 12.2 C 0 km/h
506 26-04-2010 05:11:04 11.8 C 8.42 g/m*3 11.8 C 0 km/h
507 26-04-2010 05:23:04 11.6 C 8.42 g/m*3 11.6 C 0 km/h
508 26-04-2010 05:35:04 11.5 C 8.37 g/m*3 11.5 C 0 km/h
509 26-04-2010 05:47:04 11.6 C 8.52 g/m*3 11.6 C 0 km/h
510 26-04-2010 05:59:04 11.2 C 8.31 g/m*3 11.2 C 0 km/h
511 26-04-2010 06:11:04 11.1 C 8.36 g/m*3 11.1 C 0 km/h
512 26-04-2010 06:23:04 11 C 8.31 g/m*3 11 C 0 km/h
513 26-04-2010 06:35:04 10.8 C 8.2 g/m*3 10.8 C 0 km/h
514 26-04-2010 06:47:01 10.7 C 8.15 g/m*3 10.7 C 0 km/h
515 26-04-2010 06:59:01 10.7 C 8.25 g/m*3 10.7 C 0 km/h
516 26-04-2010 07:11:01 11.1 C 8.36 g/m*3 11.1 C 0 km/h
517 26-04-2010 07:23:02 10.9 C 8.16 g/m*3 10.9 C 0 km/h
518 26-04-2010 07:35:01 10.8 C 8.11 g/m*3 10.8 C 0 km/h
519 26-04-2010 07:47:02 10.7 C 8.15 g/m*3 10.7 C 0 km/h
520 26-04-2010 07:59:02 11.2 C 8.41 g/m*3 11.2 C 0 km/h
521 26-04-2010 08:11:01 11.2 C 8.31 g/m*3 11.2 C 0 km/h
522 26-04-2010 08:23:01 11.5 C 8.47 g/m*3 11.5 C 0 km/h
523 26-04-2010 08:35:02 12 C 8.42 g/m*3 12 C 0 km/h
524 26-04-2010 08:47:01 12.4 C 8.19 g/m*3 12.4 C 0 km/h
525 26-04-2010 08:59:01 12.7 C 7.9 g/m*3 12.7 C 0 km/h
Sensor: Nr:Datum:Temp:Abs-Feuchte:Windchill:Wind:
Aussen-T/F 526 26-04-2010 09:11:01 12.4 C 7.32 g/m*3 12.4 C 0 km/h
527 26-04-2010 09:23:01 12.8 C 7.39 g/m*3 12.8 C 0 km/h
528 26-04-2010 09:35:02 13.1 C 7.19 g/m*3 13.1 C 0 km/h
529 26-04-2010 09:47:01 13.2 C 7.12 g/m*3 13.2 C 0 km/h
530 26-04-2010 09:59:01 13.3 C 6.82 g/m*3 13.3 C 0 km/h
531 26-04-2010 10:11:02 13.7 C 7.34 g/m*3 13.7 C 0 km/h
532 26-04-2010 10:23:01 14.3 C 7 g/m*3 14.3 C 0 km/h
533 26-04-2010 10:35:02 14.9 C 7.01 g/m*3 14.9 C 0 km/h
534 26-04-2010 10:47:01 15 C 6.8 g/m*3 15 C 0 km/h
535 26-04-2010 10:59:01 15.2 C 6.75 g/m*3 15.2 C 0 km/h
536 26-04-2010 11:11:01 15.5 C 6.74 g/m*3 15.5 C 0 km/h
537 26-04-2010 11:23:01 15.8 C 6.87 g/m*3 15.8 C 0 km/h
538 26-04-2010 11:35:02 16 C 6.54 g/m*3 16 C 0 km/h
539 26-04-2010 11:47:01 16.1 C 6.44 g/m*3 16.1 C 0 km/h
540 26-04-2010 11:59:01 16.2 C 6.48 g/m*3 16.2 C 0 km/h
541 26-04-2010 12:11:02 16.5 C 6.46 g/m*3 16.5 C 0 km/h
542 26-04-2010 12:23:01 17.8 C 6.98 g/m*3 17.8 C 0 km/h
543 26-04-2010 12:35:02 18 C 6.14 g/m*3 18 C 0 km/h
544 26-04-2010 12:47:01 17.7 C 6.34 g/m*3 17.7 C 0 km/h
545 26-04-2010 12:59:01 17.7 C 6.49 g/m*3 17.7 C 0 km/h
546 26-04-2010 13:11:02 18.1 C 6.49 g/m*3 18.1 C 0 km/h
547 26-04-2010 13:23:01 19.1 C 6.56 g/m*3 19.1 C 0 km/h
548 26-04-2010 13:35:02 20.2 C 6.29 g/m*3 20.2 C 0 km/h
549 26-04-2010 13:47:01 19.5 C 6.04 g/m*3 19.5 C 0 km/h
550 26-04-2010 13:59:01 18.1 C 6.18 g/m*3 18.1 C 0 km/h
Sensor: Nr:Datum:Temp:Abs-Feuchte:Windchill:Wind:
Aussen-T/F 551 26-04-2010 14:11:02 18.3 C 6.41 g/m*3 18.3 C 0 km/h
552 26-04-2010 14:23:01 19.4 C 6.51 g/m*3 19.4 C 0 km/h
553 26-04-2010 14:35:02 20 C 6.05 g/m*3 20 C 0 km/h
554 26-04-2010 14:47:01 20.5 C 6.23 g/m*3 20.5 C 0 km/h
555 26-04-2010 14:59:01 19.1 C 6.07 g/m*3 19.1 C 0 km/h
556 26-04-2010 15:11:02 19.2 C 6.1 g/m*3 19.2 C 0 km/h
557 26-04-2010 15:23:01 19.4 C 6.01 g/m*3 19.4 C 0 km/h
558 26-04-2010 15:35:01 19.5 C 5.87 g/m*3 19.5 C 0 km/h
559 26-04-2010 15:47:01 19.4 C 5.84 g/m*3 19.4 C 0 km/h
560 26-04-2010 15:59:01 18.4 C 5.35 g/m*3 18.4 C 0 km/h
561 26-04-2010 16:11:02 20.2 C 5.6 g/m*3 20.2 C 0 km/h
562 26-04-2010 16:23:01 19.8 C 5.3 g/m*3 19.8 C 0 km/h
563 26-04-2010 16:35:01 19.3 C 5.31 g/m*3 19.3 C 0 km/h
564 26-04-2010 16:47:01 19.6 C 5.4 g/m*3 19.6 C 0 km/h
565 26-04-2010 16:59:01 19.5 C 5.37 g/m*3 19.5 C 0 km/h
566 26-04-2010 17:11:02 21.2 C 5.37 g/m*3 21.2 C 0 km/h
567 26-04-2010 17:23:01 22.3 C 5.13 g/m*3 22.3 C 0 km/h
568 26-04-2010 17:35:01 21.5 C 5.09 g/m*3 21.5 C 0 km/h
569 26-04-2010 17:47:01 20.1 C 5.04 g/m*3 20.1 C 0 km/h
570 26-04-2010 17:59:01 19.3 C 5.31 g/m*3 19.3 C 0 km/h
571 26-04-2010 18:11:02 19.1 C 5.57 g/m*3 19.1 C 0 km/h
572 26-04-2010 18:23:01 19 C 5.54 g/m*3 19 C 0 km/h
573 26-04-2010 18:35:01 18.9 C 5.51 g/m*3 18.9 C 0 km/h
574 26-04-2010 18:47:01 19.7 C 5.6 g/m*3 19.7 C 0 km/h
575 26-04-2010 18:59:01 20.2 C 5.25 g/m*3 20.2 C 0 km/h
Sensor: Nr:Datum:Temp:Abs-Feuchte:Windchill:Wind:
Aussen-T/F 576 26-04-2010 19:11:02 19.5 C 5.37 g/m*3 19.5 C 0 km/h
577 26-04-2010 19:23:01 18.7 C 5.44 g/m*3 18.7 C 0 km/h
578 26-04-2010 19:35:01 18.3 C 5.63 g/m*3 18.3 C 0 km/h
579 26-04-2010 19:47:01 18.2 C 5.44 g/m*3 18.2 C 0 km/h
580 26-04-2010 19:59:01 18.5 C 5.7 g/m*3 18.5 C 0 km/h
581 26-04-2010 20:11:01 18.8 C 5.64 g/m*3 18.8 C 0 km/h
582 26-04-2010 20:23:01 18.1 C 5.56 g/m*3 18.1 C 0 km/h
583 26-04-2010 20:35:01 17.1 C 5.39 g/m*3 17.1 C 0 km/h
584 26-04-2010 20:47:01 16.7 C 5.68 g/m*3 16.7 C 0 km/h
585 26-04-2010 20:59:01 16.2 C 5.52 g/m*3 16.2 C 0 km/h
586 26-04-2010 21:11:01 16.1 C 5.35 g/m*3 16.1 C 0 km/h
587 26-04-2010 21:23:01 15.9 C 5.55 g/m*3 15.9 C 0 km/h
588 26-04-2010 21:35:01 15.8 C 5.52 g/m*3 15.8 C 0 km/h
589 26-04-2010 21:47:01 15.8 C 5.65 g/m*3 15.8 C 0 km/h
590 26-04-2010 21:59:01 15.7 C 5.62 g/m*3 15.7 C 0 km/h
591 26-04-2010 22:11:02 15.6 C 5.72 g/m*3 15.6 C 0 km/h
592 26-04-2010 22:23:01 15.4 C 5.78 g/m*3 15.4 C 0 km/h
593 26-04-2010 22:35:02 15.4 C 5.65 g/m*3 15.4 C 0 km/h
594 26-04-2010 22:49:05 15.2 C 5.71 g/m*3 15.2 C 0 km/h
595 26-04-2010 23:01:05 15.2 C 5.84 g/m*3 15.2 C 0 km/h
596 26-04-2010 23:13:05 15.1 C 5.81 g/m*3 15.1 C 0 km/h
597 26-04-2010 23:25:05 14.6 C 6.01 g/m*3 14.6 C 0 km/h
598 26-04-2010 23:37:05 14.2 C 5.98 g/m*3 14.2 C 0 km/h
599 26-04-2010 23:49:05 14.1 C 5.95 g/m*3 14.1 C 0 km/h
600 27-04-2010 00:01:05 14 C 6.03 g/m*3 14 C 0 km/h
Sensor: Nr:Datum:Temp:Abs-Feuchte:Windchill:Wind:
Aussen-T/F 601 27-04-2010 00:13:05 13.7 C 6.04 g/m*3 13.7 C 0 km/h
602 27-04-2010 00:25:05 13.7 C 6.16 g/m*3 13.7 C 0 km/h
603 27-04-2010 00:37:06 13.5 C 6.08 g/m*3 13.5 C 0 km/h
604 27-04-2010 00:49:06 13.6 C 6.24 g/m*3 13.6 C 0 km/h
605 27-04-2010 01:01:06 13.6 C 6.24 g/m*3 13.6 C 0 km/h
606 27-04-2010 01:13:06 13.4 C 6.16 g/m*3 13.4 C 0 km/h
607 27-04-2010 01:25:06 13.4 C 6.28 g/m*3 13.4 C 0 km/h
608 27-04-2010 01:37:06 13.2 C 6.2 g/m*3 13.2 C 0 km/h
609 27-04-2010 01:49:06 12.9 C 6.31 g/m*3 12.9 C 0 km/h
610 27-04-2010 02:01:06 13 C 6.35 g/m*3 13 C 0 km/h
611 27-04-2010 02:13:06 13 C 6.46 g/m*3 13 C 0 km/h
612 27-04-2010 02:25:06 12.6 C 6.42 g/m*3 12.6 C 0 km/h
613 27-04-2010 02:37:06 12.4 C 6.45 g/m*3 12.4 C 0 km/h
614 27-04-2010 02:49:06 12 C 6.5 g/m*3 12 C 0 km/h
615 27-04-2010 03:01:06 11.8 C 6.53 g/m*3 11.8 C 0 km/h
616 27-04-2010 03:13:06 11.6 C 6.55 g/m*3 11.6 C 0 km/h
617 27-04-2010 03:25:06 11.2 C 6.49 g/m*3 11.2 C 0 km/h
618 27-04-2010 03:37:06 10.9 C 6.56 g/m*3 10.9 C 0 km/h
619 27-04-2010 03:49:06 10.8 C 6.52 g/m*3 10.8 C 0 km/h
620 27-04-2010 04:01:06 10.8 C 6.62 g/m*3 10.8 C 0 km/h
621 27-04-2010 04:13:06 10.6 C 6.44 g/m*3 10.6 C 0 km/h
622 27-04-2010 04:25:06 10.3 C 6.42 g/m*3 10.3 C 0 km/h
623 27-04-2010 04:37:07 10.1 C 6.52 g/m*3 10.1 C 0 km/h
624 27-04-2010 04:49:07 9.8 C 6.68 g/m*3 9.8 C 0 km/h
625 27-04-2010 05:01:07 9.6 C 6.6 g/m*3 9.6 C 0 km/h
Sensor: Nr:Datum:Temp:Abs-Feuchte:Windchill:Wind:
Aussen-T/F 626 27-04-2010 05:13:07 9.4 C 6.6 g/m*3 9.4 C 0 km/h
627 27-04-2010 05:25:07 9.2 C 6.61 g/m*3 9.2 C 0 km/h
628 27-04-2010 05:37:07 9 C 6.52 g/m*3 9 C 0 km/h
629 27-04-2010 05:49:07 8.7 C 6.49 g/m*3 8.7 C 0 km/h
630 27-04-2010 06:01:07 8.8 C 6.61 g/m*3 8.8 C 0 km/h
631 27-04-2010 06:13:07 8.4 C 6.62 g/m*3 8.4 C 0 km/h
632 27-04-2010 06:25:07 8.2 C 6.62 g/m*3 8.2 C 0 km/h
633 27-04-2010 06:37:05 8.1 C 6.57 g/m*3 8.1 C 0 km/h
634 27-04-2010 06:49:01 8.1 C 6.66 g/m*3 8.1 C 0 km/h
635 27-04-2010 07:01:02 8.1 C 6.74 g/m*3 8.1 C 0 km/h
636 27-04-2010 07:13:02 8.1 C 6.74 g/m*3 8.1 C 0 km/h
637 27-04-2010 07:25:02 8 C 6.7 g/m*3 8 C 0 km/h
638 27-04-2010 07:37:02 8.2 C 6.78 g/m*3 8.2 C 0 km/h
639 27-04-2010 07:49:01 8.6 C 6.96 g/m*3 8.6 C 0 km/h
640 27-04-2010 08:01:02 8.6 C 6.87 g/m*3 8.6 C 0 km/h
641 27-04-2010 08:13:02 8.9 C 6.92 g/m*3 8.9 C 0 km/h
642 27-04-2010 08:25:01 9.2 C 6.88 g/m*3 9.2 C 0 km/h
643 27-04-2010 08:37:02 9.2 C 6.88 g/m*3 9.2 C 0 km/h
644 27-04-2010 08:49:02 9.7 C 7.01 g/m*3 9.7 C 0 km/h
645 27-04-2010 09:01:02 10.1 C 7 g/m*3 10.1 C 0 km/h
646 27-04-2010 09:13:02 10.6 C 7.03 g/m*3 10.6 C 0 km/h
647 27-04-2010 09:25:01 11.1 C 7.05 g/m*3 11.1 C 0 km/h
648 27-04-2010 09:37:02 11.8 C 7.37 g/m*3 11.8 C 0 km/h
649 27-04-2010 09:49:01 12.4 C 7.32 g/m*3 12.4 C 0 km/h
650 27-04-2010 10:01:02 13 C 7.14 g/m*3 13 C 0 km/h
Sensor: Nr:Datum:Temp:Abs-Feuchte:Windchill:Wind:
Aussen-T/F 651 27-04-2010 10:13:02 13.6 C 7.06 g/m*3 13.6 C 0 km/h
652 27-04-2010 10:25:02 14.1 C 6.92 g/m*3 14.1 C 0 km/h
653 27-04-2010 10:37:02 14.3 C 6.76 g/m*3 14.3 C 0 km/h
654 27-04-2010 10:49:01 14 C 6.27 g/m*3 14 C 0 km/h
655 27-04-2010 11:01:02 14.6 C 6.51 g/m*3 14.6 C 0 km/h
656 27-04-2010 11:13:02 15.3 C 6.53 g/m*3 15.3 C 0 km/h
657 27-04-2010 11:25:02 16.1 C 6.44 g/m*3 16.1 C 0 km/h
658 27-04-2010 11:37:02 16.9 C 6.62 g/m*3 16.9 C 0 km/h
659 27-04-2010 11:49:01 17.4 C 6.52 g/m*3 17.4 C 0 km/h
660 27-04-2010 12:01:02 18.1 C 6.49 g/m*3 18.1 C 0 km/h
661 27-04-2010 12:13:02 17.8 C 6.37 g/m*3 17.8 C 0 km/h
662 27-04-2010 12:25:02 18.8 C 6.44 g/m*3 18.8 C 0 km/h
663 27-04-2010 12:37:02 19.3 C 6.14 g/m*3 19.3 C 0 km/h
664 27-04-2010 12:49:01 18.6 C 5.73 g/m*3 18.6 C 0 km/h
665 27-04-2010 13:01:02 19.1 C 5.74 g/m*3 19.1 C 0 km/h
666 27-04-2010 13:13:02 19.7 C 5.94 g/m*3 19.7 C 0 km/h
667 27-04-2010 13:25:02 21 C 5.68 g/m*3 21 C 0 km/h
668 27-04-2010 13:37:01 20.9 C 5.28 g/m*3 20.9 C 0 km/h
669 27-04-2010 13:49:02 21 C 4.95 g/m*3 21 C 0 km/h
670 27-04-2010 14:01:01 21.3 C 4.85 g/m*3 21.3 C 0 km/h
671 27-04-2010 14:13:01 22.1 C 4.88 g/m*3 22.1 C 0 km/h
672 27-04-2010 14:25:02 21.9 C 5.21 g/m*3 21.9 C 0 km/h
673 27-04-2010 14:37:01 21.8 C 4.8 g/m*3 21.8 C 0 km/h
674 27-04-2010 14:49:02 20 C 4.84 g/m*3 20 C 0 km/h
675 27-04-2010 15:01:01 21.5 C 4.9 g/m*3 21.5 C 0 km/h
Sensor: Nr:Datum:Temp:Abs-Feuchte:Windchill:Wind:
Aussen-T/F 676 27-04-2010 15:13:01 23.9 C 4.98 g/m*3 23.9 C 0 km/h
677 27-04-2010 15:25:02 22.6 C 4.22 g/m*3 22.6 C 0 km/h
678 27-04-2010 15:37:01 23.2 C 4.78 g/m*3 23.2 C 0 km/h
679 27-04-2010 15:49:03 21.9 C 4.25 g/m*3 21.9 C 0 km/h
680 27-04-2010 16:01:02 22.5 C 4.39 g/m*3 22.5 C 0 km/h
681 27-04-2010 16:13:02 22.6 C 4.02 g/m*3 22.6 C 0 km/h
682 27-04-2010 16:25:02 23.3 C 4.39 g/m*3 23.3 C 0 km/h
683 27-04-2010 16:37:02 23.9 C 4.33 g/m*3 23.9 C 0 km/h
684 27-04-2010 16:49:02 23.7 C 4.28 g/m*3 23.7 C 0 km/h
685 27-04-2010 17:01:02 24.2 C 4.4 g/m*3 24.2 C 0 km/h
686 27-04-2010 17:13:02 22.7 C 4.24 g/m*3 22.7 C 0 km/h
687 27-04-2010 17:25:02 24 C 4.35 g/m*3 24 C 0 km/h
688 27-04-2010 17:37:02 23.8 C 4.3 g/m*3 23.8 C 0 km/h
689 27-04-2010 17:49:02 23.1 C 4.13 g/m*3 23.1 C 0 km/h
690 27-04-2010 18:01:02 24.2 C 4.4 g/m*3 24.2 C 0 km/h
691 27-04-2010 18:13:02 24.1 C 4.38 g/m*3 24.1 C 0 km/h
692 27-04-2010 18:25:02 23.2 C 4.16 g/m*3 23.2 C 0 km/h
693 27-04-2010 18:37:01 22.4 C 3.97 g/m*3 22.4 C 0 km/h
694 27-04-2010 18:49:02 22.2 C 3.93 g/m*3 22.2 C 0 km/h
695 27-04-2010 19:01:01 21.3 C 3.73 g/m*3 21.3 C 0 km/h
696 27-04-2010 19:13:01 21.3 C 4.1 g/m*3 21.3 C 0 km/h
697 27-04-2010 19:25:02 20.6 C 4.12 g/m*3 20.6 C 0 km/h
698 27-04-2010 19:37:01 20.2 C 4.37 g/m*3 20.2 C 0 km/h
699 27-04-2010 19:49:02 20 C 4.67 g/m*3 20 C 0 km/h
700 27-04-2010 20:01:01 19.7 C 4.92 g/m*3 19.7 C 0 km/h
Sensor: Nr:Datum:Temp:Abs-Feuchte:Windchill:Wind:
Aussen-T/F 701 27-04-2010 20:13:01 19.3 C 4.98 g/m*3 19.3 C 0 km/h
702 27-04-2010 20:25:02 18.4 C 5.03 g/m*3 18.4 C 0 km/h
703 27-04-2010 20:37:01 17.5 C 5.22 g/m*3 17.5 C 0 km/h
704 27-04-2010 20:49:02 16.8 C 5 g/m*3 16.8 C 0 km/h
705 27-04-2010 21:01:02 16.3 C 4.99 g/m*3 16.3 C 0 km/h
706 27-04-2010 21:13:02 15.9 C 5.01 g/m*3 15.9 C 0 km/h
707 27-04-2010 21:25:02 15.5 C 5.02 g/m*3 15.5 C 0 km/h
708 27-04-2010 21:37:02 15.2 C 4.93 g/m*3 15.2 C 0 km/h
709 27-04-2010 21:50:02 15.1 C 5.16 g/m*3 15.1 C 0 km/h
710 27-04-2010 22:02:02 14.9 C 5.23 g/m*3 14.9 C 0 km/h
711 27-04-2010 22:14:02 14.7 C 5.16 g/m*3 14.7 C 0 km/h
712 27-04-2010 22:26:02 14.4 C 5.19 g/m*3 14.4 C 0 km/h
713 27-04-2010 22:38:02 14.2 C 5.13 g/m*3 14.2 C 0 km/h
714 27-04-2010 22:50:02 14 C 5.19 g/m*3 14 C 0 km/h
715 27-04-2010 23:02:03 13.7 C 5.33 g/m*3 13.7 C 0 km/h
716 27-04-2010 23:14:03 13.4 C 5.35 g/m*3 13.4 C 0 km/h
717 27-04-2010 23:26:03 13.1 C 5.36 g/m*3 13.1 C 0 km/h
718 27-04-2010 23:38:03 12.7 C 5.34 g/m*3 12.7 C 0 km/h
719 27-04-2010 23:50:03 12.6 C 5.42 g/m*3 12.6 C 0 km/h
720 28-04-2010 00:02:03 12.5 C 5.5 g/m*3 12.5 C 0 km/h
721 28-04-2010 00:14:03 12.3 C 5.43 g/m*3 12.3 C 0 km/h
722 28-04-2010 00:26:03 12.2 C 5.5 g/m*3 12.2 C 0 km/h
723 28-04-2010 00:38:03 12 C 5.54 g/m*3 12 C 0 km/h
724 28-04-2010 00:50:03 11.9 C 5.61 g/m*3 11.9 C 0 km/h
725 28-04-2010 01:02:03 11.7 C 5.65 g/m*3 11.7 C 0 km/h
Sensor: Nr:Datum:Temp:Abs-Feuchte:Windchill:Wind:
Aussen-T/F 726 28-04-2010 01:14:03 11.5 C 5.58 g/m*3 11.5 C 0 km/h
727 28-04-2010 01:26:03 11.1 C 5.74 g/m*3 11.1 C 0 km/h
728 28-04-2010 01:38:03 10.8 C 5.83 g/m*3 10.8 C 0 km/h
729 28-04-2010 01:50:03 10.8 C 5.83 g/m*3 10.8 C 0 km/h
730 28-04-2010 02:02:03 10.8 C 5.83 g/m*3 10.8 C 0 km/h
731 28-04-2010 02:14:03 10.7 C 5.8 g/m*3 10.7 C 0 km/h
732 28-04-2010 02:26:03 10.5 C 5.82 g/m*3 10.5 C 0 km/h
733 28-04-2010 02:38:03 10.3 C 5.75 g/m*3 10.3 C 0 km/h
734 28-04-2010 02:50:03 10.1 C 5.67 g/m*3 10.1 C 0 km/h
735 28-04-2010 03:02:04 9.9 C 5.79 g/m*3 9.9 C 0 km/h
736 28-04-2010 03:14:04 9.8 C 5.75 g/m*3 9.8 C 0 km/h
737 28-04-2010 03:26:04 9.7 C 5.81 g/m*3 9.7 C 0 km/h
738 28-04-2010 03:38:04 9.5 C 5.83 g/m*3 9.5 C 0 km/h
739 28-04-2010 03:50:04 9.3 C 5.84 g/m*3 9.3 C 0 km/h
740 28-04-2010 04:02:04 9.1 C 5.86 g/m*3 9.1 C 0 km/h
741 28-04-2010 04:14:04 8.9 C 5.96 g/m*3 8.9 C 0 km/h
742 28-04-2010 04:26:04 8.7 C 5.97 g/m*3 8.7 C 0 km/h
743 28-04-2010 04:38:04 8.5 C 5.98 g/m*3 8.5 C 0 km/h
744 28-04-2010 04:50:04 8.3 C 5.9 g/m*3 8.3 C 0 km/h
745 28-04-2010 05:02:04 8.2 C 5.95 g/m*3 8.2 C 0 km/h
746 28-04-2010 05:14:04 7.9 C 5.91 g/m*3 7.9 C 0 km/h
747 28-04-2010 05:26:04 7.9 C 5.91 g/m*3 7.9 C 0 km/h
748 28-04-2010 05:38:04 7.7 C 5.84 g/m*3 7.7 C 0 km/h
749 28-04-2010 05:50:04 7.6 C 5.8 g/m*3 7.6 C 0 km/h
750 28-04-2010 06:02:04 7.5 C 5.76 g/m*3 7.5 C 0 km/h
Sensor: Nr:Datum:Temp:Abs-Feuchte:Windchill:Wind:
Aussen-T/F 751 28-04-2010 06:14:04 7.3 C 5.77 g/m*3 7.3 C 0 km/h
752 28-04-2010 06:26:04 7.2 C 5.81 g/m*3 7.2 C 0 km/h
753 28-04-2010 06:38:04 7.1 C 5.85 g/m*3 7.1 C 0 km/h
754 28-04-2010 06:50:04 7.1 C 5.85 g/m*3 7.1 C 0 km/h
755 28-04-2010 07:02:01 7.2 C 5.89 g/m*3 7.2 C 0 km/h
756 28-04-2010 07:14:01 7.3 C 6 g/m*3 7.3 C 0 km/h
757 28-04-2010 07:26:02 7.4 C 5.96 g/m*3 7.4 C 0 km/h
758 28-04-2010 07:38:01 7.6 C 6.12 g/m*3 7.6 C 0 km/h
759 28-04-2010 07:50:02 7.7 C 6.08 g/m*3 7.7 C 0 km/h
760 28-04-2010 08:02:01 7.9 C 6.16 g/m*3 7.9 C 0 km/h
761 28-04-2010 08:14:01 8 C 6.04 g/m*3 8 C 0 km/h
762 28-04-2010 08:26:02 8.2 C 6.11 g/m*3 8.2 C 0 km/h
763 28-04-2010 08:38:01 8.6 C 6.19 g/m*3 8.6 C 0 km/h
764 28-04-2010 08:50:02 8.8 C 6.18 g/m*3 8.8 C 0 km/h
765 28-04-2010 09:02:02 9.2 C 6.16 g/m*3 9.2 C 0 km/h
766 28-04-2010 09:14:02 9.8 C 6.31 g/m*3 9.8 C 0 km/h
767 28-04-2010 09:26:02 10.5 C 6.4 g/m*3 10.5 C 0 km/h
768 28-04-2010 09:38:02 11.1 C 6.45 g/m*3 11.1 C 0 km/h
769 28-04-2010 09:50:02 11.7 C 6.38 g/m*3 11.7 C 0 km/h
770 28-04-2010 10:02:02 12.4 C 6.56 g/m*3 12.4 C 0 km/h
771 28-04-2010 10:14:02 13.2 C 6.43 g/m*3 13.2 C 0 km/h
772 28-04-2010 10:26:02 13.8 C 6.43 g/m*3 13.8 C 0 km/h
773 28-04-2010 10:38:02 14.8 C 6.21 g/m*3 14.8 C 0 km/h
774 28-04-2010 10:50:02 15.6 C 6.12 g/m*3 15.6 C 0 km/h
775 28-04-2010 11:02:01 16.3 C 5.97 g/m*3 16.3 C 0 km/h
Sensor: Nr:Datum:Temp:Abs-Feuchte:Windchill:Wind:
Aussen-T/F 776 28-04-2010 11:14:01 17.3 C 6.19 g/m*3 17.3 C 0 km/h
777 28-04-2010 11:26:02 18 C 6.14 g/m*3 18 C 0 km/h
778 28-04-2010 11:38:01 18.4 C 5.82 g/m*3 18.4 C 0 km/h
779 28-04-2010 11:50:03 18.8 C 5.31 g/m*3 18.8 C 0 km/h
780 28-04-2010 12:02:02 19.1 C 5.25 g/m*3 19.1 C 0 km/h
781 28-04-2010 12:14:02 19.7 C 4.58 g/m*3 19.7 C 0 km/h
782 28-04-2010 12:26:02 20 C 4.49 g/m*3 20 C 0 km/h
783 28-04-2010 12:38:02 20.6 C 4.47 g/m*3 20.6 C 0 km/h
784 28-04-2010 12:50:02 21.1 C 4.24 g/m*3 21.1 C 0 km/h
785 28-04-2010 13:02:01 21.4 C 4.12 g/m*3 21.4 C 0 km/h
786 28-04-2010 13:14:01 22.6 C 4.02 g/m*3 22.6 C 0 km/h
787 28-04-2010 13:26:02 23.5 C 4.23 g/m*3 23.5 C 0 km/h
788 28-04-2010 13:38:01 23.3 C 4.18 g/m*3 23.3 C 0 km/h
789 28-04-2010 13:50:02 23.5 C 4.23 g/m*3 23.5 C 0 km/h
790 28-04-2010 14:02:01 24.1 C 4.38 g/m*3 24.1 C 0 km/h
791 28-04-2010 14:14:01 24.6 C 4.5 g/m*3 24.6 C 0 km/h
792 28-04-2010 14:26:02 24.9 C 4.58 g/m*3 24.9 C 0 km/h
793 28-04-2010 14:38:01 24.5 C 4.48 g/m*3 24.5 C 0 km/h
794 28-04-2010 14:50:02 24.7 C 4.53 g/m*3 24.7 C 0 km/h
795 28-04-2010 15:02:02 25.8 C 4.82 g/m*3 25.8 C 0 km/h
796 28-04-2010 15:14:02 25.5 C 4.73 g/m*3 25.5 C 0 km/h
797 28-04-2010 15:26:02 25.8 C 4.82 g/m*3 25.8 C 0 km/h
798 28-04-2010 15:38:02 26.4 C 4.98 g/m*3 26.4 C 0 km/h
799 28-04-2010 15:50:02 26.6 C 5.03 g/m*3 26.6 C 0 km/h
800 28-04-2010 16:02:02 27.4 C 5.26 g/m*3 27.4 C 0 km/h
Sensor: Nr:Datum:Temp:Abs-Feuchte:Windchill:Wind:
Aussen-T/F 801 28-04-2010 16:14:02 27.6 C 5.32 g/m*3 27.6 C 0 km/h
802 28-04-2010 16:26:02 28 C 5.44 g/m*3 28 C 0 km/h
803 28-04-2010 16:38:01 28 C 5.44 g/m*3 28 C 0 km/h
804 28-04-2010 16:50:02 27.9 C 5.41 g/m*3 27.9 C 0 km/h
805 28-04-2010 17:02:01 28 C 5.44 g/m*3 28 C 0 km/h
806 28-04-2010 17:14:01 29.2 C 5.81 g/m*3 29.2 C 0 km/h
807 28-04-2010 17:26:02 28.9 C 5.71 g/m*3 28.9 C 0 km/h
808 28-04-2010 17:38:01 27.9 C 5.41 g/m*3 27.9 C 0 km/h
809 28-04-2010 17:50:02 28.5 C 5.59 g/m*3 28.5 C 0 km/h
810 28-04-2010 18:02:02 28.2 C 5.5 g/m*3 28.2 C 0 km/h
811 28-04-2010 18:14:02 28.4 C 5.56 g/m*3 28.4 C 0 km/h
812 28-04-2010 18:26:02 28.4 C 5.56 g/m*3 28.4 C 0 km/h
813 28-04-2010 18:38:02 28.3 C 5.53 g/m*3 28.3 C 0 km/h
814 28-04-2010 18:50:02 27.9 C 5.41 g/m*3 27.9 C 0 km/h
815 28-04-2010 19:02:01 27.1 C 5.18 g/m*3 27.1 C 0 km/h
816 28-04-2010 19:14:01 26.5 C 5.01 g/m*3 26.5 C 0 km/h
817 28-04-2010 19:26:02 25.9 C 4.84 g/m*3 25.9 C 0 km/h
818 28-04-2010 19:38:01 25 C 4.83 g/m*3 25 C 0 km/h
819 28-04-2010 19:50:02 24.6 C 4.95 g/m*3 24.6 C 0 km/h
820 28-04-2010 20:02:01 23.9 C 5.41 g/m*3 23.9 C 0 km/h
821 28-04-2010 20:14:01 23 C 5.34 g/m*3 23 C 0 km/h
822 28-04-2010 20:26:01 22.1 C 5.47 g/m*3 22.1 C 0 km/h
823 28-04-2010 20:38:02 21.3 C 5.59 g/m*3 21.3 C 0 km/h
824 28-04-2010 20:50:02 20.4 C 5.48 g/m*3 20.4 C 0 km/h
825 28-04-2010 21:02:02 19.7 C 5.6 g/m*3 19.7 C 0 km/h
Sensor: Nr:Datum:Temp:Abs-Feuchte:Windchill:Wind:
Aussen-T/F 826 28-04-2010 21:14:02 19.3 C 5.47 g/m*3 19.3 C 0 km/h
827 28-04-2010 21:26:02 18.9 C 5.67 g/m*3 18.9 C 0 km/h
828 28-04-2010 21:38:01 18.8 C 5.64 g/m*3 18.8 C 0 km/h
829 28-04-2010 21:51:04 18.5 C 5.54 g/m*3 18.5 C 0 km/h
830 28-04-2010 22:03:04 18.5 C 5.7 g/m*3 18.5 C 0 km/h
831 28-04-2010 22:15:04 18.3 C 5.63 g/m*3 18.3 C 0 km/h
832 28-04-2010 22:27:04 18.2 C 5.6 g/m*3 18.2 C 0 km/h
833 28-04-2010 22:39:04 18 C 5.68 g/m*3 18 C 0 km/h
834 28-04-2010 22:51:04 18 C 5.53 g/m*3 18 C 0 km/h
835 28-04-2010 23:03:04 17.7 C 5.73 g/m*3 17.7 C 0 km/h
836 28-04-2010 23:15:04 17.3 C 5.75 g/m*3 17.3 C 0 km/h
837 28-04-2010 23:27:04 17 C 5.64 g/m*3 17 C 0 km/h
838 28-04-2010 23:39:04 16.6 C 5.79 g/m*3 16.6 C 0 km/h
839 28-04-2010 23:51:04 16.2 C 5.79 g/m*3 16.2 C 0 km/h
840 29-04-2010 00:03:04 16.2 C 5.79 g/m*3 16.2 C 0 km/h
841 29-04-2010 00:15:04 15.8 C 6.06 g/m*3 15.8 C 0 km/h
842 29-04-2010 00:27:05 15.4 C 5.78 g/m*3 15.4 C 0 km/h
843 29-04-2010 00:39:05 15.1 C 5.93 g/m*3 15.1 C 0 km/h
844 29-04-2010 00:51:05 14.7 C 5.79 g/m*3 14.7 C 0 km/h
845 29-04-2010 01:03:05 14.6 C 5.88 g/m*3 14.6 C 0 km/h
846 29-04-2010 01:15:05 14.2 C 5.74 g/m*3 14.2 C 0 km/h
847 29-04-2010 01:27:05 14 C 5.67 g/m*3 14 C 0 km/h
848 29-04-2010 01:39:05 13.8 C 5.72 g/m*3 13.8 C 0 km/h
849 29-04-2010 01:51:05 13.5 C 5.85 g/m*3 13.5 C 0 km/h
850 29-04-2010 02:03:05 13.6 C 5.88 g/m*3 13.6 C 0 km/h
Sensor: Nr:Datum:Temp:Abs-Feuchte:Windchill:Wind:
Aussen-T/F 851 29-04-2010 02:15:05 12.8 C 6.05 g/m*3 12.8 C 0 km/h
852 29-04-2010 02:27:05 12.9 C 6.09 g/m*3 12.9 C 0 km/h
853 29-04-2010 02:39:05 12.7 C 6.01 g/m*3 12.7 C 0 km/h
854 29-04-2010 02:51:05 12.5 C 6.16 g/m*3 12.5 C 0 km/h
855 29-04-2010 03:03:05 12.2 C 6.37 g/m*3 12.2 C 0 km/h
856 29-04-2010 03:15:05 12 C 6.29 g/m*3 12 C 0 km/h
857 29-04-2010 03:27:05 11.8 C 6.21 g/m*3 11.8 C 0 km/h
858 29-04-2010 03:39:05 11.8 C 6.31 g/m*3 11.8 C 0 km/h
859 29-04-2010 03:51:05 11.7 C 6.38 g/m*3 11.7 C 0 km/h
860 29-04-2010 04:03:05 11.7 C 6.38 g/m*3 11.7 C 0 km/h
861 29-04-2010 04:15:05 11.5 C 6.4 g/m*3 11.5 C 0 km/h
862 29-04-2010 04:27:06 11.2 C 6.49 g/m*3 11.2 C 0 km/h
863 29-04-2010 04:39:06 10.9 C 6.56 g/m*3 10.9 C 0 km/h
864 29-04-2010 04:51:06 10.8 C 6.42 g/m*3 10.8 C 0 km/h
865 29-04-2010 05:03:06 10.7 C 6.38 g/m*3 10.7 C 0 km/h
866 29-04-2010 05:15:06 10.6 C 6.34 g/m*3 10.6 C 0 km/h
867 29-04-2010 05:27:06 10.4 C 6.26 g/m*3 10.4 C 0 km/h
868 29-04-2010 05:39:06 10.3 C 6.32 g/m*3 10.3 C 0 km/h
869 29-04-2010 05:51:06 10.2 C 6.28 g/m*3 10.2 C 0 km/h
870 29-04-2010 06:03:06 10.1 C 6.24 g/m*3 10.1 C 0 km/h
871 29-04-2010 06:15:06 9.9 C 6.35 g/m*3 9.9 C 0 km/h
872 29-04-2010 06:27:06 9.7 C 6.45 g/m*3 9.7 C 0 km/h
873 29-04-2010 06:39:06 9.8 C 6.49 g/m*3 9.8 C 0 km/h
874 29-04-2010 06:51:01 9.8 C 6.49 g/m*3 9.8 C 0 km/h
875 29-04-2010 07:03:02 10 C 6.48 g/m*3 10 C 0 km/h
Sensor: Nr:Datum:Temp:Abs-Feuchte:Windchill:Wind:
Aussen-T/F 876 29-04-2010 07:15:01 10.1 C 6.52 g/m*3 10.1 C 0 km/h
877 29-04-2010 07:27:01 10.3 C 6.61 g/m*3 10.3 C 0 km/h
878 29-04-2010 07:39:02 10.3 C 6.61 g/m*3 10.3 C 0 km/h
879 29-04-2010 07:51:02 10.4 C 6.65 g/m*3 10.4 C 0 km/h
880 29-04-2010 08:03:02 10.9 C 6.76 g/m*3 10.9 C 0 km/h
881 29-04-2010 08:15:02 11.9 C 6.88 g/m*3 11.9 C 0 km/h
882 29-04-2010 08:27:02 12.5 C 6.71 g/m*3 12.5 C 0 km/h
883 29-04-2010 08:39:02 12.8 C 6.72 g/m*3 12.8 C 0 km/h
884 29-04-2010 08:51:01 12.9 C 6.76 g/m*3 12.9 C 0 km/h
885 29-04-2010 09:03:02 12.8 C 6.72 g/m*3 12.8 C 0 km/h
886 29-04-2010 09:15:02 13.1 C 6.62 g/m*3 13.1 C 0 km/h
887 29-04-2010 09:27:02 14 C 6.39 g/m*3 14 C 0 km/h
888 29-04-2010 09:39:02 14.9 C 6.5 g/m*3 14.9 C 0 km/h
889 29-04-2010 09:51:01 15.7 C 6.15 g/m*3 15.7 C 0 km/h
890 29-04-2010 10:03:02 16.6 C 6.36 g/m*3 16.6 C 0 km/h
891 29-04-2010 10:15:02 17.4 C 6.37 g/m*3 17.4 C 0 km/h
892 29-04-2010 10:27:02 17.7 C 6.49 g/m*3 17.7 C 0 km/h
893 29-04-2010 10:39:01 18.3 C 6.88 g/m*3 18.3 C 0 km/h
894 29-04-2010 10:51:01 19.3 C 6.8 g/m*3 19.3 C 0 km/h
895 29-04-2010 11:03:01 20.1 C 6.78 g/m*3 20.1 C 0 km/h
896 29-04-2010 11:15:02 20.9 C 6.74 g/m*3 20.9 C 0 km/h
897 29-04-2010 11:27:02 22 C 6.4 g/m*3 22 C 0 km/h
898 29-04-2010 11:39:01 22.3 C 6.12 g/m*3 22.3 C 0 km/h
899 29-04-2010 11:51:01 22.5 C 6.39 g/m*3 22.5 C 0 km/h
900 29-04-2010 12:03:01 22.7 C 6.26 g/m*3 22.7 C 0 km/h
Sensor: Nr:Datum:Temp:Abs-Feuchte:Windchill:Wind:
Aussen-T/F 901 29-04-2010 12:15:02 23.7 C 6.2 g/m*3 23.7 C 0 km/h
902 29-04-2010 12:27:02 24 C 5.87 g/m*3 24 C 0 km/h
903 29-04-2010 12:39:01 24.3 C 5.75 g/m*3 24.3 C 0 km/h
904 29-04-2010 12:51:03 24.7 C 4.75 g/m*3 24.7 C 0 km/h
905 29-04-2010 13:03:02 25.2 C 4.66 g/m*3 25.2 C 0 km/h
906 29-04-2010 13:15:03 25.7 C 4.79 g/m*3 25.7 C 0 km/h
907 29-04-2010 13:27:03 25.9 C 4.84 g/m*3 25.9 C 0 km/h
908 29-04-2010 13:39:02 26.1 C 4.9 g/m*3 26.1 C 0 km/h
909 29-04-2010 13:51:03 26.4 C 4.98 g/m*3 26.4 C 0 km/h
910 29-04-2010 14:03:02 26.4 C 4.98 g/m*3 26.4 C 0 km/h
911 29-04-2010 14:15:02 26.6 C 5.03 g/m*3 26.6 C 0 km/h
912 29-04-2010 14:27:02 27.1 C 5.18 g/m*3 27.1 C 0 km/h
913 29-04-2010 14:39:02 27 C 5.15 g/m*3 27 C 0 km/h
914 29-04-2010 14:51:02 28 C 5.44 g/m*3 28 C 0 km/h
915 29-04-2010 15:03:02 27.9 C 5.41 g/m*3 27.9 C 0 km/h
916 29-04-2010 15:15:02 27.6 C 5.32 g/m*3 27.6 C 0 km/h
917 29-04-2010 15:27:02 27.6 C 5.32 g/m*3 27.6 C 0 km/h
918 29-04-2010 15:39:01 27.6 C 5.32 g/m*3 27.6 C 0 km/h
919 29-04-2010 15:51:02 27.6 C 5.32 g/m*3 27.6 C 0 km/h
920 29-04-2010 16:03:01 27.9 C 5.41 g/m*3 27.9 C 0 km/h
921 29-04-2010 16:15:02 27.8 C 5.38 g/m*3 27.8 C 0 km/h
922 29-04-2010 16:27:02 27.9 C 5.41 g/m*3 27.9 C 0 km/h
923 29-04-2010 16:39:01 27.6 C 5.32 g/m*3 27.6 C 0 km/h
924 29-04-2010 16:51:03 27.8 C 5.38 g/m*3 27.8 C 0 km/h
925 29-04-2010 17:03:02 27.8 C 5.38 g/m*3 27.8 C 0 km/h
Sensor: Nr:Datum:Temp:Abs-Feuchte:Windchill:Wind:
Aussen-T/F 926 29-04-2010 17:15:02 27.8 C 5.38 g/m*3 27.8 C 0 km/h
927 29-04-2010 17:27:02 27.5 C 5.29 g/m*3 27.5 C 0 km/h
928 29-04-2010 17:39:02 27.8 C 5.38 g/m*3 27.8 C 0 km/h
929 29-04-2010 17:51:02 28.4 C 5.56 g/m*3 28.4 C 0 km/h
930 29-04-2010 18:03:02 28 C 5.44 g/m*3 28 C 0 km/h
931 29-04-2010 18:15:02 27.8 C 5.38 g/m*3 27.8 C 0 km/h
932 29-04-2010 18:27:02 27.5 C 5.29 g/m*3 27.5 C 0 km/h
933 29-04-2010 18:39:02 27.5 C 5.29 g/m*3 27.5 C 0 km/h
934 29-04-2010 18:51:02 27 C 5.15 g/m*3 27 C 0 km/h
935 29-04-2010 19:03:02 26.5 C 5.01 g/m*3 26.5 C 0 km/h
936 29-04-2010 19:15:02 26.1 C 4.9 g/m*3 26.1 C 0 km/h
937 29-04-2010 19:27:02 25.7 C 4.79 g/m*3 25.7 C 0 km/h
938 29-04-2010 19:39:02 25.3 C 4.68 g/m*3 25.3 C 0 km/h
939 29-04-2010 19:51:01 24.8 C 5.01 g/m*3 24.8 C 0 km/h
940 29-04-2010 20:03:02 24.4 C 5.12 g/m*3 24.4 C 0 km/h
941 29-04-2010 20:15:02 23.9 C 5.41 g/m*3 23.9 C 0 km/h
942 29-04-2010 20:27:02 23.6 C 5.53 g/m*3 23.6 C 0 km/h
943 29-04-2010 20:39:02 23.1 C 5.58 g/m*3 23.1 C 0 km/h
944 29-04-2010 20:51:02 22.6 C 6.03 g/m*3 22.6 C 0 km/h
945 29-04-2010 21:03:02 22.2 C 6.09 g/m*3 22.2 C 0 km/h
946 29-04-2010 21:15:02 21.9 C 6.37 g/m*3 21.9 C 0 km/h
947 29-04-2010 21:27:02 21.7 C 6.29 g/m*3 21.7 C 0 km/h
948 29-04-2010 21:39:01 21.6 C 6.45 g/m*3 21.6 C 0 km/h
949 29-04-2010 21:51:02 21.5 C 6.41 g/m*3 21.5 C 0 km/h
950 29-04-2010 22:03:01 21.4 C 6.56 g/m*3 21.4 C 0 km/h
Sensor: Nr:Datum:Temp:Abs-Feuchte:Windchill:Wind:
Aussen-T/F 951 29-04-2010 22:15:02 21.3 C 6.52 g/m*3 21.3 C 0 km/h
952 29-04-2010 22:27:02 21.1 C 6.63 g/m*3 21.1 C 0 km/h
953 29-04-2010 22:39:01 20.7 C 7.02 g/m*3 20.7 C 0 km/h
954 29-04-2010 22:51:02 20.5 C 7.12 g/m*3 20.5 C 0 km/h
955 29-04-2010 23:04:01 20.4 C 7.08 g/m*3 20.4 C 0 km/h
956 29-04-2010 23:16:01 20.1 C 7.13 g/m*3 20.1 C 0 km/h
957 29-04-2010 23:28:01 19.7 C 7.3 g/m*3 19.7 C 0 km/h
958 29-04-2010 23:40:01 19.5 C 7.22 g/m*3 19.5 C 0 km/h
959 29-04-2010 23:52:01 19.3 C 7.13 g/m*3 19.3 C 0 km/h
960 30-04-2010 00:04:01 19.4 C 7.17 g/m*3 19.4 C 0 km/h
961 30-04-2010 00:16:02 19.6 C 7.09 g/m*3 19.6 C 0 km/h
962 30-04-2010 00:28:02 19.7 C 6.96 g/m*3 19.7 C 0 km/h
963 30-04-2010 00:40:02 20 C 6.91 g/m*3 20 C 0 km/h
964 30-04-2010 00:52:02 20.3 C 6.68 g/m*3 20.3 C 0 km/h
965 30-04-2010 01:04:02 20.5 C 6.58 g/m*3 20.5 C 0 km/h
966 30-04-2010 01:16:02 20.8 C 6.7 g/m*3 20.8 C 0 km/h
967 30-04-2010 01:28:02 20.9 C 6.92 g/m*3 20.9 C 0 km/h
968 30-04-2010 01:40:02 20.7 C 6.84 g/m*3 20.7 C 0 km/h
969 30-04-2010 01:52:02 20.8 C 6.7 g/m*3 20.8 C 0 km/h
970 30-04-2010 02:04:02 20.8 C 6.7 g/m*3 20.8 C 0 km/h
971 30-04-2010 02:16:02 20.9 C 6.74 g/m*3 20.9 C 0 km/h
972 30-04-2010 02:28:02 21 C 6.59 g/m*3 21 C 0 km/h
973 30-04-2010 02:40:02 20.5 C 6.94 g/m*3 20.5 C 0 km/h
974 30-04-2010 02:52:02 20.6 C 6.98 g/m*3 20.6 C 0 km/h
975 30-04-2010 03:04:02 20.4 C 7.08 g/m*3 20.4 C 0 km/h
Sensor: Nr:Datum:Temp:Abs-Feuchte:Windchill:Wind:
Aussen-T/F 976 30-04-2010 03:16:02 20.1 C 7.13 g/m*3 20.1 C 0 km/h
977 30-04-2010 03:28:02 20.1 C 7.3 g/m*3 20.1 C 0 km/h
978 30-04-2010 03:40:02 19.8 C 7.69 g/m*3 19.8 C 0 km/h
979 30-04-2010 03:52:02 19.8 C 7.86 g/m*3 19.8 C 0 km/h
980 30-04-2010 04:04:02 19.7 C 7.81 g/m*3 19.7 C 0 km/h
981 30-04-2010 04:16:02 19.7 C 7.98 g/m*3 19.7 C 0 km/h
982 30-04-2010 04:28:02 19.4 C 8.18 g/m*3 19.4 C 0 km/h
983 30-04-2010 04:40:03 19.2 C 8.24 g/m*3 19.2 C 0 km/h
984 30-04-2010 04:52:03 18.9 C 8.42 g/m*3 18.9 C 0 km/h
985 30-04-2010 05:04:03 18.7 C 8.33 g/m*3 18.7 C 0 km/h
986 30-04-2010 05:16:03 18.6 C 8.44 g/m*3 18.6 C 0 km/h
987 30-04-2010 05:28:03 18.2 C 8.39 g/m*3 18.2 C 0 km/h
988 30-04-2010 05:40:03 17.9 C 8.7 g/m*3 17.9 C 0 km/h
989 30-04-2010 05:52:03 17.8 C 8.65 g/m*3 17.8 C 0 km/h
990 30-04-2010 06:04:03 17.5 C 8.65 g/m*3 17.5 C 0 km/h
991 30-04-2010 06:16:03 17.4 C 8.74 g/m*3 17.4 C 0 km/h
992 30-04-2010 06:28:03 17.3 C 8.69 g/m*3 17.3 C 0 km/h
993 30-04-2010 06:40:03 17.4 C 8.74 g/m*3 17.4 C 0 km/h
994 30-04-2010 06:52:03 17.2 C 8.64 g/m*3 17.2 C 0 km/h
995 30-04-2010 07:04:02 17.1 C 8.73 g/m*3 17.1 C 0 km/h
996 30-04-2010 07:16:01 17.3 C 8.84 g/m*3 17.3 C 0 km/h
997 30-04-2010 07:28:01 17.5 C 8.95 g/m*3 17.5 C 0 km/h
998 30-04-2010 07:40:02 17.7 C 8.9 g/m*3 17.7 C 0 km/h
999 30-04-2010 07:52:02 17.6 C 8.55 g/m*3 17.6 C 0 km/h
1000 30-04-2010 08:04:02 18.1 C 8.19 g/m*3 18.1 C 0 km/h
Sensor: Nr:Datum:Temp:Abs-Feuchte:Windchill:Wind:
Aussen-T/F 1001 30-04-2010 08:16:02 18.3 C 7.97 g/m*3 18.3 C 0 km/h
1002 30-04-2010 08:28:02 18.3 C 7.97 g/m*3 18.3 C 0 km/h
1003 30-04-2010 08:40:02 18.2 C 7.93 g/m*3 18.2 C 0 km/h
1004 30-04-2010 08:52:02 18.4 C 8.02 g/m*3 18.4 C 0 km/h
1005 30-04-2010 09:04:03 18.3 C 7.97 g/m*3 18.3 C 0 km/h
1006 30-04-2010 09:16:02 18.3 C 7.82 g/m*3 18.3 C 0 km/h
1007 30-04-2010 09:28:02 18.4 C 7.24 g/m*3 18.4 C 0 km/h
1008 30-04-2010 09:40:02 18.5 C 6.65 g/m*3 18.5 C 0 km/h
1009 30-04-2010 09:52:01 18.4 C 6.61 g/m*3 18.4 C 0 km/h
1010 30-04-2010 10:04:02 18.3 C 6.57 g/m*3 18.3 C 0 km/h
1011 30-04-2010 10:16:01 18.5 C 6.33 g/m*3 18.5 C 0 km/h
1012 30-04-2010 10:28:01 18.6 C 6.37 g/m*3 18.6 C 0 km/h
1013 30-04-2010 10:40:02 18.8 C 6.44 g/m*3 18.8 C 0 km/h
1014 30-04-2010 10:52:02 18.6 C 5.73 g/m*3 18.6 C 0 km/h
1015 30-04-2010 11:04:02 19 C 5.87 g/m*3 19 C 0 km/h
1016 30-04-2010 11:16:02 18.9 C 5.83 g/m*3 18.9 C 0 km/h
1017 30-04-2010 11:28:02 19 C 5.87 g/m*3 19 C 0 km/h
1018 30-04-2010 11:40:02 19.5 C 6.04 g/m*3 19.5 C 0 km/h
1019 30-04-2010 11:52:02 19.7 C 6.11 g/m*3 19.7 C 0 km/h
1020 30-04-2010 12:04:02 20.6 C 6.09 g/m*3 20.6 C 0 km/h
1021 30-04-2010 12:16:02 20.8 C 5.79 g/m*3 20.8 C 0 km/h
1022 30-04-2010 12:28:02 19.9 C 6.01 g/m*3 19.9 C 0 km/h
1023 30-04-2010 12:40:02 19.8 C 5.98 g/m*3 19.8 C 0 km/h
1024 30-04-2010 12:52:01 20 C 5.88 g/m*3 20 C 0 km/h
1025 30-04-2010 13:04:02 20.6 C 5.73 g/m*3 20.6 C 0 km/h
Sensor: Nr:Datum:Temp:Abs-Feuchte:Windchill:Wind:
Aussen-T/F 1026 30-04-2010 13:16:01 20.7 C 5.76 g/m*3 20.7 C 0 km/h
1027 30-04-2010 13:28:01 21 C 5.5 g/m*3 21 C 0 km/h
1028 30-04-2010 13:40:01 21 C 5.5 g/m*3 21 C 0 km/h
1029 30-04-2010 13:52:01 20.8 C 5.61 g/m*3 20.8 C 0 km/h
1030 30-04-2010 14:04:02 20.5 C 5.69 g/m*3 20.5 C 0 km/h
1031 30-04-2010 14:16:01 21.4 C 5.81 g/m*3 21.4 C 0 km/h
1032 30-04-2010 14:28:01 20.9 C 5.65 g/m*3 20.9 C 0 km/h
1033 30-04-2010 14:40:02 20.8 C 5.79 g/m*3 20.8 C 0 km/h
1034 30-04-2010 14:52:02 20.8 C 6.34 g/m*3 20.8 C 0 km/h
1035 30-04-2010 15:04:02 20.4 C 6.01 g/m*3 20.4 C 0 km/h
1036 30-04-2010 15:16:01 20.7 C 6.12 g/m*3 20.7 C 0 km/h
1037 30-04-2010 15:28:01 20.6 C 6.09 g/m*3 20.6 C 0 km/h
1038 30-04-2010 15:40:02 20.9 C 6.19 g/m*3 20.9 C 0 km/h
1039 30-04-2010 15:52:02 20.6 C 6.09 g/m*3 20.6 C 0 km/h
1040 30-04-2010 16:04:02 19.7 C 5.94 g/m*3 19.7 C 0 km/h
1041 30-04-2010 16:16:01 19.4 C 5.84 g/m*3 19.4 C 0 km/h
1042 30-04-2010 16:28:01 19.6 C 5.91 g/m*3 19.6 C 0 km/h
1043 30-04-2010 16:40:02 19.7 C 5.94 g/m*3 19.7 C 0 km/h
1044 30-04-2010 16:52:02 19.5 C 6.04 g/m*3 19.5 C 0 km/h
1045 30-04-2010 17:04:02 19.7 C 6.11 g/m*3 19.7 C 0 km/h
1046 30-04-2010 17:16:02 19.8 C 5.98 g/m*3 19.8 C 0 km/h
1047 30-04-2010 17:28:02 20 C 6.22 g/m*3 20 C 0 km/h
1048 30-04-2010 17:40:02 19.4 C 6.01 g/m*3 19.4 C 0 km/h
1049 30-04-2010 17:52:02 19.5 C 6.04 g/m*3 19.5 C 0 km/h
1050 30-04-2010 18:04:02 19.5 C 6.04 g/m*3 19.5 C 0 km/h
Sensor: Nr:Datum:Temp:Abs-Feuchte:Windchill:Wind:
Aussen-T/F 1051 30-04-2010 18:16:02 19.7 C 6.28 g/m*3 19.7 C 0 km/h
1052 30-04-2010 18:28:02 19.2 C 5.94 g/m*3 19.2 C 0 km/h
1053 30-04-2010 18:40:02 19.1 C 6.07 g/m*3 19.1 C 0 km/h
1054 30-04-2010 18:52:02 18.9 C 6.16 g/m*3 18.9 C 0 km/h
1055 30-04-2010 19:04:02 18.8 C 6.44 g/m*3 18.8 C 0 km/h
1056 30-04-2010 19:16:03 18.7 C 6.24 g/m*3 18.7 C 0 km/h
1057 30-04-2010 19:28:03 18.4 C 6.13 g/m*3 18.4 C 0 km/h
1058 30-04-2010 19:40:02 18.1 C 6.18 g/m*3 18.1 C 0 km/h
1059 30-04-2010 19:52:02 18.1 C 6.33 g/m*3 18.1 C 0 km/h
1060 30-04-2010 20:04:02 18 C 6.3 g/m*3 18 C 0 km/h
1061 30-04-2010 20:16:03 17.9 C 6.41 g/m*3 17.9 C 0 km/h
1062 30-04-2010 20:28:03 17.7 C 6.49 g/m*3 17.7 C 0 km/h
1063 30-04-2010 20:40:02 17 C 7.23 g/m*3 17 C 0 km/h
1064 30-04-2010 20:52:02 16.3 C 7.77 g/m*3 16.3 C 0 km/h
1065 30-04-2010 21:04:02 15.1 C 8.26 g/m*3 15.1 C 0 km/h
1066 30-04-2010 21:16:02 14.7 C 8.69 g/m*3 14.7 C 0 km/h
1067 30-04-2010 21:28:02 15.1 C 8.9 g/m*3 15.1 C 0 km/h
1068 30-04-2010 21:40:02 15.3 C 8.75 g/m*3 15.3 C 0 km/h
1069 30-04-2010 21:52:02 15.2 C 8.44 g/m*3 15.2 C 0 km/h
1070 30-04-2010 22:04:02 15.3 C 8.23 g/m*3 15.3 C 0 km/h
1071 30-04-2010 22:16:02 15.2 C 8.05 g/m*3 15.2 C 0 km/h
1072 30-04-2010 22:28:02 14.9 C 8.16 g/m*3 14.9 C 0 km/h
1073 30-04-2010 22:40:02 14.9 C 8.16 g/m*3 14.9 C 0 km/h
1074 30-04-2010 22:52:01 14.8 C 8.11 g/m*3 14.8 C 0 km/h
1075 30-04-2010 23:05:02 14.2 C 7.33 g/m*3 14.2 C 0 km/h
Sensor: Nr:Datum:Temp:Abs-Feuchte:Windchill:Wind:
Aussen-T/F 1076 30-04-2010 23:17:02 13.8 C 7.15 g/m*3 13.8 C 0 km/h
1077 30-04-2010 23:29:02 13.4 C 6.74 g/m*3 13.4 C 0 km/h
1078 30-04-2010 23:41:02 13.1 C 6.39 g/m*3 13.1 C 0 km/h
1079 30-04-2010 23:53:02 13.1 C 6.28 g/m*3 13.1 C 0 km/h
1080 01-05-2010 00:05:02 13.2 C 6.32 g/m*3 13.2 C 0 km/h
1081 01-05-2010 00:17:02 13.3 C 6.47 g/m*3 13.3 C 0 km/h
1082 01-05-2010 00:29:02 13.3 C 6.47 g/m*3 13.3 C 0 km/h
1083 01-05-2010 00:41:03 13.4 C 6.86 g/m*3 13.4 C 0 km/h
1084 01-05-2010 00:53:03 13.4 C 6.86 g/m*3 13.4 C 0 km/h
1085 01-05-2010 01:05:03 13.4 C 6.86 g/m*3 13.4 C 0 km/h
1086 01-05-2010 01:17:03 13.3 C 6.59 g/m*3 13.3 C 0 km/h
1087 01-05-2010 01:29:03 13.2 C 6.77 g/m*3 13.2 C 0 km/h
1088 01-05-2010 01:41:03 13.1 C 7.07 g/m*3 13.1 C 0 km/h
1089 01-05-2010 01:53:03 13 C 7.03 g/m*3 13 C 0 km/h
1090 01-05-2010 02:05:03 12.9 C 7.1 g/m*3 12.9 C 0 km/h
1091 01-05-2010 02:17:03 12.8 C 7.06 g/m*3 12.8 C 0 km/h
1092 01-05-2010 02:29:03 12.9 C 6.88 g/m*3 12.9 C 0 km/h
1093 01-05-2010 02:41:03 12.9 C 6.65 g/m*3 12.9 C 0 km/h
1094 01-05-2010 02:53:03 12.9 C 6.54 g/m*3 12.9 C 0 km/h
1095 01-05-2010 03:05:03 12.8 C 6.83 g/m*3 12.8 C 0 km/h
1096 01-05-2010 03:17:03 12.7 C 6.79 g/m*3 12.7 C 0 km/h
1097 01-05-2010 03:29:03 12.6 C 6.53 g/m*3 12.6 C 0 km/h
1098 01-05-2010 03:41:03 12.5 C 6.49 g/m*3 12.5 C 0 km/h
1099 01-05-2010 03:53:03 12.5 C 6.6 g/m*3 12.5 C 0 km/h
1100 01-05-2010 04:05:03 12.5 C 6.82 g/m*3 12.5 C 0 km/h
Sensor: Nr:Datum:Temp:Abs-Feuchte:Windchill:Wind:
Aussen-T/F 1101 01-05-2010 04:17:03 12.5 C 7.26 g/m*3 12.5 C 0 km/h
1102 01-05-2010 04:29:03 12.5 C 7.04 g/m*3 12.5 C 0 km/h
1103 01-05-2010 04:41:03 12.4 C 7.21 g/m*3 12.4 C 0 km/h
1104 01-05-2010 04:53:03 12.4 C 7.21 g/m*3 12.4 C 0 km/h
1105 01-05-2010 05:05:04 12.4 C 7.21 g/m*3 12.4 C 0 km/h
1106 01-05-2010 05:17:04 12.4 C 7.32 g/m*3 12.4 C 0 km/h
1107 01-05-2010 05:29:04 12.4 C 7.43 g/m*3 12.4 C 0 km/h
1108 01-05-2010 05:41:04 12.3 C 7.49 g/m*3 12.3 C 0 km/h
1109 01-05-2010 05:53:04 11.8 C 7.79 g/m*3 11.8 C 0 km/h
1110 01-05-2010 06:05:04 11.6 C 8.11 g/m*3 11.6 C 0 km/h
1111 01-05-2010 06:17:04 11.5 C 8.16 g/m*3 11.5 C 0 km/h
1112 01-05-2010 06:29:04 11.5 C 8.37 g/m*3 11.5 C 0 km/h
1113 01-05-2010 06:41:04 11.5 C 8.47 g/m*3 11.5 C 0 km/h
1114 01-05-2010 06:53:04 11.4 C 8.42 g/m*3 11.4 C 0 km/h
1115 01-05-2010 07:05:04 11.4 C 8.42 g/m*3 11.4 C 0 km/h
1116 01-05-2010 07:17:04 11.4 C 8.31 g/m*3 11.4 C 0 km/h
1117 01-05-2010 07:29:04 11.6 C 8.52 g/m*3 11.6 C 0 km/h
1118 01-05-2010 07:41:02 11.8 C 8.63 g/m*3 11.8 C 0 km/h
1119 01-05-2010 07:53:01 12.1 C 8.69 g/m*3 12.1 C 0 km/h
1120 01-05-2010 08:05:02 12.6 C 8.85 g/m*3 12.6 C 0 km/h
1121 01-05-2010 08:17:01 12.7 C 8.24 g/m*3 12.7 C 0 km/h
1122 01-05-2010 08:29:01 13 C 7.94 g/m*3 13 C 0 km/h
1123 01-05-2010 08:41:01 13.4 C 8.14 g/m*3 13.4 C 0 km/h
1124 01-05-2010 08:53:01 13.6 C 8.12 g/m*3 13.6 C 0 km/h
1125 01-05-2010 09:05:02 13.9 C 8.15 g/m*3 13.9 C 0 km/h
Sensor: Nr:Datum:Temp:Abs-Feuchte:Windchill:Wind:
Aussen-T/F 1126 01-05-2010 09:17:01 14.3 C 7.99 g/m*3 14.3 C 0 km/h
1127 01-05-2010 09:29:01 14.3 C 7.86 g/m*3 14.3 C 0 km/h
1128 01-05-2010 09:41:01 14.2 C 8.06 g/m*3 14.2 C 0 km/h
1129 01-05-2010 09:53:01 14 C 7.96 g/m*3 14 C 0 km/h
1130 01-05-2010 10:05:02 14.3 C 7.74 g/m*3 14.3 C 0 km/h
1131 01-05-2010 10:17:01 14.3 C 7.49 g/m*3 14.3 C 0 km/h
1132 01-05-2010 10:29:01 14.7 C 7.81 g/m*3 14.7 C 0 km/h
1133 01-05-2010 10:41:02 14.7 C 7.43 g/m*3 14.7 C 0 km/h
1134 01-05-2010 10:53:02 15.1 C 7.22 g/m*3 15.1 C 0 km/h
1135 01-05-2010 11:05:02 15.8 C 7.4 g/m*3 15.8 C 0 km/h
1136 01-05-2010 11:17:01 15.9 C 6.91 g/m*3 15.9 C 0 km/h
1137 01-05-2010 11:29:01 16.5 C 6.46 g/m*3 16.5 C 0 km/h
1138 01-05-2010 11:41:02 16.9 C 6.33 g/m*3 16.9 C 0 km/h
1139 01-05-2010 11:53:02 17.2 C 5.71 g/m*3 17.2 C 0 km/h
1140 01-05-2010 12:05:02 17.6 C 5.85 g/m*3 17.6 C 0 km/h
1141 01-05-2010 12:17:02 17.7 C 5.88 g/m*3 17.7 C 0 km/h
1142 01-05-2010 12:29:02 17.6 C 5.85 g/m*3 17.6 C 0 km/h
1143 01-05-2010 12:41:02 16.9 C 5.32 g/m*3 16.9 C 0 km/h
1144 01-05-2010 12:53:02 17.6 C 5.7 g/m*3 17.6 C 0 km/h
1145 01-05-2010 13:05:02 18.9 C 5.67 g/m*3 18.9 C 0 km/h
1146 01-05-2010 13:17:02 18.6 C 5.09 g/m*3 18.6 C 0 km/h
1147 01-05-2010 13:29:02 18.9 C 5.18 g/m*3 18.9 C 0 km/h
1148 01-05-2010 13:41:02 18.9 C 5.02 g/m*3 18.9 C 0 km/h
1149 01-05-2010 13:53:01 20.7 C 4.68 g/m*3 20.7 C 0 km/h
1150 01-05-2010 14:05:02 19.1 C 4.92 g/m*3 19.1 C 0 km/h
Sensor: Nr:Datum:Temp:Abs-Feuchte:Windchill:Wind:
Aussen-T/F 1151 01-05-2010 14:17:01 19.9 C 4.98 g/m*3 19.9 C 0 km/h
1152 01-05-2010 14:29:01 19.7 C 4.92 g/m*3 19.7 C 0 km/h
1153 01-05-2010 14:41:02 20.3 C 4.75 g/m*3 20.3 C 0 km/h
1154 01-05-2010 14:53:02 20.1 C 4.87 g/m*3 20.1 C 0 km/h
1155 01-05-2010 15:05:03 19.7 C 4.75 g/m*3 19.7 C 0 km/h
1156 01-05-2010 15:17:02 19.9 C 4.81 g/m*3 19.9 C 0 km/h
1157 01-05-2010 15:29:02 18.9 C 4.86 g/m*3 18.9 C 0 km/h
1158 01-05-2010 15:41:02 18.8 C 4.99 g/m*3 18.8 C 0 km/h
1159 01-05-2010 15:53:02 18.1 C 5.1 g/m*3 18.1 C 0 km/h
1160 01-05-2010 16:05:02 17.7 C 5.28 g/m*3 17.7 C 0 km/h
1161 01-05-2010 16:17:01 17.5 C 5.37 g/m*3 17.5 C 0 km/h
1162 01-05-2010 16:29:01 17.5 C 5.52 g/m*3 17.5 C 0 km/h
1163 01-05-2010 16:41:02 17.5 C 5.67 g/m*3 17.5 C 0 km/h
1164 01-05-2010 16:53:01 17.7 C 5.73 g/m*3 17.7 C 0 km/h
1165 01-05-2010 17:05:02 17.7 C 5.73 g/m*3 17.7 C 0 km/h
1166 01-05-2010 17:17:01 17.9 C 5.8 g/m*3 17.9 C 0 km/h
1167 01-05-2010 17:29:01 17.9 C 5.65 g/m*3 17.9 C 0 km/h
1168 01-05-2010 17:41:02 17.7 C 5.73 g/m*3 17.7 C 0 km/h
1169 01-05-2010 17:53:01 17.2 C 5.71 g/m*3 17.2 C 0 km/h
1170 01-05-2010 18:05:02 17.4 C 5.93 g/m*3 17.4 C 0 km/h
1171 01-05-2010 18:17:02 17.5 C 5.96 g/m*3 17.5 C 0 km/h
1172 01-05-2010 18:29:02 17.6 C 6.15 g/m*3 17.6 C 0 km/h
1173 01-05-2010 18:41:01 17.4 C 5.93 g/m*3 17.4 C 0 km/h
1174 01-05-2010 18:53:01 17.4 C 5.78 g/m*3 17.4 C 0 km/h
1175 01-05-2010 19:05:01 17 C 5.64 g/m*3 17 C 0 km/h
Sensor: Nr:Datum:Temp:Abs-Feuchte:Windchill:Wind:
Aussen-T/F 1176 01-05-2010 19:17:01 16.9 C 5.9 g/m*3 16.9 C 0 km/h
1177 01-05-2010 19:29:01 16.8 C 6 g/m*3 16.8 C 0 km/h
1178 01-05-2010 19:41:01 16.7 C 6.11 g/m*3 16.7 C 0 km/h
1179 01-05-2010 19:53:02 16.4 C 6 g/m*3 16.4 C 0 km/h
1180 01-05-2010 20:05:02 16.3 C 5.97 g/m*3 16.3 C 0 km/h
1181 01-05-2010 20:17:02 16 C 5.99 g/m*3 16 C 0 km/h
1182 01-05-2010 20:29:02 15.7 C 6.15 g/m*3 15.7 C 0 km/h
1183 01-05-2010 20:41:02 15.6 C 6.25 g/m*3 15.6 C 0 km/h
1184 01-05-2010 20:53:02 15.6 C 6.38 g/m*3 15.6 C 0 km/h
1185 01-05-2010 21:05:01 15.5 C 6.34 g/m*3 15.5 C 0 km/h
1186 01-05-2010 21:17:02 15.3 C 6.27 g/m*3 15.3 C 0 km/h
1187 01-05-2010 21:29:02 15 C 6.41 g/m*3 15 C 0 km/h
1188 01-05-2010 21:41:02 14.7 C 6.55 g/m*3 14.7 C 0 km/h
1189 01-05-2010 21:53:02 14.4 C 6.55 g/m*3 14.4 C 0 km/h
1190 01-05-2010 22:05:02 14.3 C 6.63 g/m*3 14.3 C 0 km/h
1191 01-05-2010 22:17:02 14.3 C 5.77 g/m*3 14.3 C 0 km/h
1192 01-05-2010 22:29:02 14.2 C 5.74 g/m*3 14.2 C 0 km/h
1193 01-05-2010 22:41:01 14.2 C 5.98 g/m*3 14.2 C 0 km/h
1194 01-05-2010 22:54:02 14.1 C 6.07 g/m*3 14.1 C 0 km/h
1195 01-05-2010 23:06:03 14.2 C 6.23 g/m*3 14.2 C 0 km/h
1196 01-05-2010 23:18:03 14.2 C 6.23 g/m*3 14.2 C 0 km/h
1197 01-05-2010 23:30:03 14.2 C 6.35 g/m*3 14.2 C 0 km/h
1198 01-05-2010 23:42:03 14 C 6.39 g/m*3 14 C 0 km/h
1199 01-05-2010 23:54:03 13.9 C 6.47 g/m*3 13.9 C 0 km/h
1200 02-05-2010 00:06:03 13.8 C 6.55 g/m*3 13.8 C 0 km/h
Sensor: Nr:Datum:Temp:Abs-Feuchte:Windchill:Wind:
Aussen-T/F 1201 02-05-2010 00:18:03 13.3 C 6.93 g/m*3 13.3 C 0 km/h
1202 02-05-2010 00:30:03 12.6 C 7.3 g/m*3 12.6 C 0 km/h
1203 02-05-2010 00:42:03 12.6 C 7.41 g/m*3 12.6 C 0 km/h
1204 02-05-2010 00:54:03 12.5 C 7.26 g/m*3 12.5 C 0 km/h
1205 02-05-2010 01:06:03 12.5 C 7.26 g/m*3 12.5 C 0 km/h
1206 02-05-2010 01:18:03 12.6 C 7.3 g/m*3 12.6 C 0 km/h
1207 02-05-2010 01:30:03 12.6 C 7.19 g/m*3 12.6 C 0 km/h
1208 02-05-2010 01:42:03 12.5 C 7.26 g/m*3 12.5 C 0 km/h
1209 02-05-2010 01:54:03 12.5 C 7.26 g/m*3 12.5 C 0 km/h
1210 02-05-2010 02:06:03 12.5 C 7.26 g/m*3 12.5 C 0 km/h
1211 02-05-2010 02:18:03 12.4 C 7.21 g/m*3 12.4 C 0 km/h
1212 02-05-2010 02:30:03 12.3 C 7.28 g/m*3 12.3 C 0 km/h
1213 02-05-2010 02:42:03 12.2 C 7.23 g/m*3 12.2 C 0 km/h
1214 02-05-2010 02:54:03 12.1 C 7.29 g/m*3 12.1 C 0 km/h
1215 02-05-2010 03:06:03 12 C 7.25 g/m*3 12 C 0 km/h
1216 02-05-2010 03:18:03 12 C 7.14 g/m*3 12 C 0 km/h
1217 02-05-2010 03:30:04 11.9 C 7.31 g/m*3 11.9 C 0 km/h
1218 02-05-2010 03:42:04 11.7 C 7.32 g/m*3 11.7 C 0 km/h
1219 02-05-2010 03:54:04 11.6 C 7.17 g/m*3 11.6 C 0 km/h
1220 02-05-2010 04:06:04 11.6 C 7.17 g/m*3 11.6 C 0 km/h
1221 02-05-2010 04:18:04 11.6 C 7.17 g/m*3 11.6 C 0 km/h
1222 02-05-2010 04:30:04 11.6 C 7.28 g/m*3 11.6 C 0 km/h
1223 02-05-2010 04:42:04 11.7 C 7.43 g/m*3 11.7 C 0 km/h
1224 02-05-2010 04:54:04 11.3 C 7.24 g/m*3 11.3 C 0 km/h
1225 02-05-2010 05:06:04 11.1 C 7.05 g/m*3 11.1 C 0 km/h
Sensor: Nr:Datum:Temp:Abs-Feuchte:Windchill:Wind:
Aussen-T/F 1226 02-05-2010 05:18:04 11.1 C 7.05 g/m*3 11.1 C 0 km/h
1227 02-05-2010 05:30:04 11.1 C 7.15 g/m*3 11.1 C 0 km/h
1228 02-05-2010 05:42:04 11 C 7.11 g/m*3 11 C 0 km/h
1229 02-05-2010 05:54:04 11 C 7.11 g/m*3 11 C 0 km/h
1230 02-05-2010 06:06:04 10.9 C 7.16 g/m*3 10.9 C 0 km/h
1231 02-05-2010 06:18:04 11 C 7.11 g/m*3 11 C 0 km/h
1232 02-05-2010 06:30:04 11 C 7.31 g/m*3 11 C 0 km/h
1233 02-05-2010 06:42:04 10.9 C 7.26 g/m*3 10.9 C 0 km/h
1234 02-05-2010 06:54:04 10.9 C 7.26 g/m*3 10.9 C 0 km/h
1235 02-05-2010 07:06:04 11 C 7.21 g/m*3 11 C 0 km/h
1236 02-05-2010 07:18:04 11.2 C 7.4 g/m*3 11.2 C 0 km/h
1237 02-05-2010 07:30:04 11.4 C 7.49 g/m*3 11.4 C 0 km/h
1238 02-05-2010 07:42:04 11.4 C 7.49 g/m*3 11.4 C 0 km/h
1239 02-05-2010 07:54:02 11.4 C 7.49 g/m*3 11.4 C 0 km/h
1240 02-05-2010 08:06:02 11.4 C 7.6 g/m*3 11.4 C 0 km/h
1241 02-05-2010 08:18:02 11.6 C 7.8 g/m*3 11.6 C 0 km/h
1242 02-05-2010 08:30:02 11.2 C 7.7 g/m*3 11.2 C 0 km/h
1243 02-05-2010 08:42:02 11.2 C 7.8 g/m*3 11.2 C 0 km/h
1244 02-05-2010 08:54:01 11.5 C 8.06 g/m*3 11.5 C 0 km/h
1245 02-05-2010 09:06:02 11.8 C 8.21 g/m*3 11.8 C 0 km/h
1246 02-05-2010 09:18:01 11.8 C 8 g/m*3 11.8 C 0 km/h
1247 02-05-2010 09:30:01 12.1 C 8.04 g/m*3 12.1 C 0 km/h
1248 02-05-2010 09:42:02 12.4 C 8.09 g/m*3 12.4 C 0 km/h
1249 02-05-2010 09:54:01 12.9 C 8.11 g/m*3 12.9 C 0 km/h
1250 02-05-2010 10:06:02 13.1 C 8.1 g/m*3 13.1 C 0 km/h
Sensor: Nr:Datum:Temp:Abs-Feuchte:Windchill:Wind:
Aussen-T/F 1251 02-05-2010 10:18:01 13.5 C 8.07 g/m*3 13.5 C 0 km/h
1252 02-05-2010 10:30:01 14.1 C 8.01 g/m*3 14.1 C 0 km/h
1253 02-05-2010 10:42:02 14.9 C 8.03 g/m*3 14.9 C 0 km/h
1254 02-05-2010 10:54:01 15.5 C 7.8 g/m*3 15.5 C 0 km/h
1255 02-05-2010 11:06:02 16.2 C 7.58 g/m*3 16.2 C 0 km/h
1256 02-05-2010 11:18:02 16.7 C 7.82 g/m*3 16.7 C 0 km/h
1257 02-05-2010 11:30:02 17.4 C 7.26 g/m*3 17.4 C 0 km/h
1258 02-05-2010 11:42:01 18.1 C 7.11 g/m*3 18.1 C 0 km/h
1259 02-05-2010 11:54:02 17.9 C 7.02 g/m*3 17.9 C 0 km/h
1260 02-05-2010 12:06:01 16.4 C 6.42 g/m*3 16.4 C 0 km/h
1261 02-05-2010 12:18:02 13.5 C 7.37 g/m*3 13.5 C 0 km/h
1262 02-05-2010 12:30:02 12.5 C 7.92 g/m*3 12.5 C 0 km/h
1263 02-05-2010 12:42:01 11.4 C 7.7 g/m*3 11.4 C 0 km/h
1264 02-05-2010 12:54:02 10.7 C 8.05 g/m*3 10.7 C 0 km/h
1265 02-05-2010 13:06:02 10.8 C 8.3 g/m*3 10.8 C 0 km/h
1266 02-05-2010 13:18:02 11.8 C 8.95 g/m*3 11.8 C 0 km/h
1267 02-05-2010 13:30:02 11.6 C 8.63 g/m*3 11.6 C 0 km/h
1268 02-05-2010 13:42:03 12.2 C 8.85 g/m*3 12.2 C 0 km/h
1269 02-05-2010 13:54:02 13.1 C 8.9 g/m*3 13.1 C 0 km/h
1270 02-05-2010 14:06:02 13.9 C 8.99 g/m*3 13.9 C 0 km/h
1271 02-05-2010 14:18:02 14.5 C 8.95 g/m*3 14.5 C 0 km/h
1272 02-05-2010 14:30:02 15.2 C 9.09 g/m*3 15.2 C 0 km/h
1273 02-05-2010 14:42:02 15.3 C 8.88 g/m*3 15.3 C 0 km/h
1274 02-05-2010 14:54:02 15.4 C 8.54 g/m*3 15.4 C 0 km/h
1275 02-05-2010 15:06:02 14.9 C 8.03 g/m*3 14.9 C 0 km/h
Sensor: Nr:Datum:Temp:Abs-Feuchte:Windchill:Wind:
Aussen-T/F 1276 02-05-2010 15:18:02 15.9 C 8.13 g/m*3 15.9 C 0 km/h
1277 02-05-2010 15:30:02 17.7 C 7.39 g/m*3 17.7 C 0 km/h
1278 02-05-2010 15:42:02 18.7 C 6.56 g/m*3 18.7 C 0 km/h
1279 02-05-2010 15:54:02 18.6 C 6.05 g/m*3 18.6 C 0 km/h
1280 02-05-2010 16:06:02 19.4 C 6.17 g/m*3 19.4 C 0 km/h
1281 02-05-2010 16:18:02 18.8 C 5.96 g/m*3 18.8 C 0 km/h
1282 02-05-2010 16:30:02 18 C 6.6 g/m*3 18 C 0 km/h
1283 02-05-2010 16:42:02 17.3 C 7.37 g/m*3 17.3 C 0 km/h
1284 02-05-2010 16:54:01 13.5 C 7.25 g/m*3 13.5 C 0 km/h
1285 02-05-2010 17:06:02 12.3 C 8.25 g/m*3 12.3 C 0 km/h
1286 02-05-2010 17:18:01 13.4 C 9.18 g/m*3 13.4 C 0 km/h
1287 02-05-2010 17:30:01 15.2 C 8.83 g/m*3 15.2 C 0 km/h
1288 02-05-2010 17:42:01 16.5 C 8.28 g/m*3 16.5 C 0 km/h
1289 02-05-2010 17:54:01 17.2 C 8.05 g/m*3 17.2 C 0 km/h
1290 02-05-2010 18:06:01 18.5 C 7.59 g/m*3 18.5 C 0 km/h
1291 02-05-2010 18:18:02 18 C 6.91 g/m*3 18 C 0 km/h
1292 02-05-2010 18:30:02 16.7 C 6.68 g/m*3 16.7 C 0 km/h
1293 02-05-2010 18:42:01 16.3 C 6.94 g/m*3 16.3 C 0 km/h
1294 02-05-2010 18:54:03 16.4 C 7.12 g/m*3 16.4 C 0 km/h
1295 02-05-2010 19:06:02 17.5 C 6.71 g/m*3 17.5 C 0 km/h
1296 02-05-2010 19:18:02 16.9 C 6.9 g/m*3 16.9 C 0 km/h
1297 02-05-2010 19:30:02 18 C 6.91 g/m*3 18 C 0 km/h
1298 02-05-2010 19:42:02 17.6 C 6.75 g/m*3 17.6 C 0 km/h
1299 02-05-2010 19:54:02 17.3 C 6.48 g/m*3 17.3 C 0 km/h
1300 02-05-2010 20:06:02 17.3 C 6.92 g/m*3 17.3 C 0 km/h
Sensor: Nr:Datum:Temp:Abs-Feuchte:Windchill:Wind:
Aussen-T/F 1301 02-05-2010 20:18:02 17 C 7.23 g/m*3 17 C 0 km/h
1302 02-05-2010 20:30:02 16.2 C 7.31 g/m*3 16.2 C 0 km/h
1303 02-05-2010 20:42:02 15.1 C 7.35 g/m*3 15.1 C 0 km/h
1304 02-05-2010 20:54:02 14.1 C 7.4 g/m*3 14.1 C 0 km/h
1305 02-05-2010 21:06:02 13.4 C 7.56 g/m*3 13.4 C 0 km/h
1306 02-05-2010 21:18:02 12.8 C 7.62 g/m*3 12.8 C 0 km/h
1307 02-05-2010 21:30:03 12.5 C 7.7 g/m*3 12.5 C 0 km/h
1308 02-05-2010 21:42:01 12.3 C 7.82 g/m*3 12.3 C 0 km/h
1309 02-05-2010 21:54:03 12.1 C 7.72 g/m*3 12.1 C 0 km/h
1310 02-05-2010 22:06:03 11.8 C 7.79 g/m*3 11.8 C 0 km/h
1311 02-05-2010 22:19:04 11.6 C 7.8 g/m*3 11.6 C 0 km/h
1312 02-05-2010 22:31:04 11.3 C 7.65 g/m*3 11.3 C 0 km/h
1313 02-05-2010 22:43:04 11.2 C 7.7 g/m*3 11.2 C 0 km/h
1314 02-05-2010 22:55:04 11 C 7.61 g/m*3 11 C 0 km/h
1315 02-05-2010 23:07:04 10.8 C 7.61 g/m*3 10.8 C 0 km/h
1316 02-05-2010 23:19:04 10.6 C 7.52 g/m*3 10.6 C 0 km/h
1317 02-05-2010 23:31:04 10.2 C 7.33 g/m*3 10.2 C 0 km/h
1318 02-05-2010 23:43:04 10.2 C 7.42 g/m*3 10.2 C 0 km/h
1319 02-05-2010 23:55:04 10.2 C 7.42 g/m*3 10.2 C 0 km/h
1320 03-05-2010 00:07:04 10.1 C 7.28 g/m*3 10.1 C 0 km/h
1321 03-05-2010 00:19:04 10 C 7.33 g/m*3 10 C 0 km/h
1322 03-05-2010 00:31:04 9.9 C 7.38 g/m*3 9.9 C 0 km/h
1323 03-05-2010 00:43:04 9.5 C 7.19 g/m*3 9.5 C 0 km/h
1324 03-05-2010 00:55:04 9.3 C 7.19 g/m*3 9.3 C 0 km/h
1325 03-05-2010 01:07:04 9.2 C 7.14 g/m*3 9.2 C 0 km/h
Sensor: Nr:Datum:Temp:Abs-Feuchte:Windchill:Wind:
Aussen-T/F 1326 03-05-2010 01:19:04 9.1 C 7.1 g/m*3 9.1 C 0 km/h
1327 03-05-2010 01:31:04 9.1 C 7.1 g/m*3 9.1 C 0 km/h
1328 03-05-2010 01:43:04 8.7 C 7.09 g/m*3 8.7 C 0 km/h
1329 03-05-2010 01:55:04 8.7 C 7.09 g/m*3 8.7 C 0 km/h
1330 03-05-2010 02:07:04 8.5 C 7 g/m*3 8.5 C 0 km/h
1331 03-05-2010 02:19:05 8.1 C 6.82 g/m*3 8.1 C 0 km/h
1332 03-05-2010 02:31:05 8 C 6.78 g/m*3 8 C 0 km/h
1333 03-05-2010 02:43:05 8 C 6.78 g/m*3 8 C 0 km/h
1334 03-05-2010 02:55:05 8 C 6.78 g/m*3 8 C 0 km/h
1335 03-05-2010 03:07:05 8.2 C 7.03 g/m*3 8.2 C 0 km/h
1336 03-05-2010 03:19:05 8.2 C 7.03 g/m*3 8.2 C 0 km/h
1337 03-05-2010 03:31:05 8 C 6.94 g/m*3 8 C 0 km/h
1338 03-05-2010 03:43:05 8 C 7.03 g/m*3 8 C 0 km/h
1339 03-05-2010 03:55:05 8.1 C 7.07 g/m*3 8.1 C 0 km/h
1340 03-05-2010 04:07:05 8.2 C 7.12 g/m*3 8.2 C 0 km/h
1341 03-05-2010 04:19:05 8.3 C 7.16 g/m*3 8.3 C 0 km/h
1342 03-05-2010 04:31:05 8.4 C 7.21 g/m*3 8.4 C 0 km/h
1343 03-05-2010 04:43:05 8.6 C 7.22 g/m*3 8.6 C 0 km/h
1344 03-05-2010 04:55:05 8.6 C 7.22 g/m*3 8.6 C 0 km/h
1345 03-05-2010 05:07:05 8.6 C 7.13 g/m*3 8.6 C 0 km/h
1346 03-05-2010 05:19:05 8.6 C 7.13 g/m*3 8.6 C 0 km/h
1347 03-05-2010 05:31:05 8.6 C 7.13 g/m*3 8.6 C 0 km/h
1348 03-05-2010 05:43:05 8.7 C 7.18 g/m*3 8.7 C 0 km/h
1349 03-05-2010 05:55:05 8.5 C 7.09 g/m*3 8.5 C 0 km/h
1350 03-05-2010 06:07:05 8.6 C 7.13 g/m*3 8.6 C 0 km/h
Sensor: Nr:Datum:Temp:Abs-Feuchte:Windchill:Wind:
Aussen-T/F 1351 03-05-2010 06:19:05 8.7 C 7.18 g/m*3 8.7 C 0 km/h
1352 03-05-2010 06:31:05 8.6 C 7.13 g/m*3 8.6 C 0 km/h
1353 03-05-2010 06:43:05 8.6 C 7.13 g/m*3 8.6 C 0 km/h
1354 03-05-2010 06:55:02 8.5 C 7.09 g/m*3 8.5 C 0 km/h
1355 03-05-2010 07:07:03 8.2 C 6.95 g/m*3 8.2 C 0 km/h
1356 03-05-2010 07:19:02 8.3 C 7 g/m*3 8.3 C 0 km/h
1357 03-05-2010 07:31:02 8.2 C 7.03 g/m*3 8.2 C 0 km/h
1358 03-05-2010 07:43:02 8.5 C 7.17 g/m*3 8.5 C 0 km/h
1359 03-05-2010 07:55:01 8.8 C 7.4 g/m*3 8.8 C 0 km/h
1360 03-05-2010 08:07:02 9.1 C 7.28 g/m*3 9.1 C 0 km/h
1361 03-05-2010 08:19:02 9.6 C 7.24 g/m*3 9.6 C 0 km/h
1362 03-05-2010 08:31:02 10 C 6.86 g/m*3 10 C 0 km/h
1363 03-05-2010 08:43:02 9.9 C 6.72 g/m*3 9.9 C 0 km/h
1364 03-05-2010 08:55:02 10 C 6.67 g/m*3 10 C 0 km/h
1365 03-05-2010 09:07:02 10.1 C 6.62 g/m*3 10.1 C 0 km/h
1366 03-05-2010 09:19:02 10.6 C 6.83 g/m*3 10.6 C 0 km/h
1367 03-05-2010 09:31:02 10.5 C 6.69 g/m*3 10.5 C 0 km/h
1368 03-05-2010 09:43:02 10.8 C 6.82 g/m*3 10.8 C 0 km/h
1369 03-05-2010 09:55:01 10.8 C 6.72 g/m*3 10.8 C 0 km/h
1370 03-05-2010 10:07:02 10.8 C 6.72 g/m*3 10.8 C 0 km/h
1371 03-05-2010 10:19:01 11 C 6.71 g/m*3 11 C 0 km/h
1372 03-05-2010 10:31:01 10.9 C 6.76 g/m*3 10.9 C 0 km/h
1373 03-05-2010 10:43:01 10.8 C 6.72 g/m*3 10.8 C 0 km/h
1374 03-05-2010 10:55:01 11.5 C 6.92 g/m*3 11.5 C 0 km/h
1375 03-05-2010 11:07:02 12.1 C 6.65 g/m*3 12.1 C 0 km/h
Sensor: Nr:Datum:Temp:Abs-Feuchte:Windchill:Wind:
Aussen-T/F 1376 03-05-2010 11:19:01 11.9 C 6.67 g/m*3 11.9 C 0 km/h
1377 03-05-2010 11:31:01 12.1 C 6.65 g/m*3 12.1 C 0 km/h
1378 03-05-2010 11:43:01 14.1 C 6.8 g/m*3 14.1 C 0 km/h
1379 03-05-2010 11:55:01 14.5 C 6.72 g/m*3 14.5 C 0 km/h
1380 03-05-2010 12:07:01 14.7 C 6.55 g/m*3 14.7 C 0 km/h
1381 03-05-2010 12:19:02 15.7 C 6.42 g/m*3 15.7 C 0 km/h
1382 03-05-2010 12:31:01 15.2 C 6.23 g/m*3 15.2 C 0 km/h
1383 03-05-2010 12:43:01 14.5 C 6.09 g/m*3 14.5 C 0 km/h
1384 03-05-2010 12:55:02 13.6 C 6.94 g/m*3 13.6 C 0 km/h
1385 03-05-2010 13:07:01 14.2 C 6.84 g/m*3 14.2 C 0 km/h
1386 03-05-2010 13:19:01 14.9 C 6.88 g/m*3 14.9 C 0 km/h
1387 03-05-2010 13:31:01 15.7 C 6.42 g/m*3 15.7 C 0 km/h
1388 03-05-2010 13:43:01 16.7 C 6.25 g/m*3 16.7 C 0 km/h
1389 03-05-2010 13:55:02 11.3 C 5.71 g/m*3 11.3 C 0 km/h
1390 03-05-2010 14:07:02 11.2 C 6.28 g/m*3 11.2 C 0 km/h
1391 03-05-2010 14:19:02 10.1 C 6.43 g/m*3 10.1 C 0 km/h
1392 03-05-2010 14:31:01 9.1 C 6.83 g/m*3 9.1 C 0 km/h
1393 03-05-2010 14:43:01 9 C 7.23 g/m*3 9 C 0 km/h
1394 03-05-2010 14:55:02 8.4 C 7.13 g/m*3 8.4 C 0 km/h
1395 03-05-2010 15:07:01 8.8 C 7.49 g/m*3 8.8 C 0 km/h
1396 03-05-2010 15:19:02 9 C 7.67 g/m*3 9 C 0 km/h
1397 03-05-2010 15:31:02 9.6 C 8.06 g/m*3 9.6 C 0 km/h
1398 03-05-2010 15:43:02 10.2 C 8.18 g/m*3 10.2 C 0 km/h
1399 03-05-2010 15:55:02 11.1 C 8.56 g/m*3 11.1 C 0 km/h
1400 03-05-2010 16:07:02 11.1 C 7.86 g/m*3 11.1 C 0 km/h
Sensor: Nr:Datum:Temp:Abs-Feuchte:Windchill:Wind:
Aussen-T/F 1401 03-05-2010 16:19:02 11 C 7.51 g/m*3 11 C 0 km/h
1402 03-05-2010 16:31:02 10.2 C 7.23 g/m*3 10.2 C 0 km/h
1403 03-05-2010 16:43:02 10.1 C 7.28 g/m*3 10.1 C 0 km/h
1404 03-05-2010 16:55:01 10.5 C 7.37 g/m*3 10.5 C 0 km/h
1405 03-05-2010 17:07:02 10.1 C 6.9 g/m*3 10.1 C 0 km/h
1406 03-05-2010 17:19:01 10.4 C 7.42 g/m*3 10.4 C 0 km/h
1407 03-05-2010 17:31:02 10.7 C 7.46 g/m*3 10.7 C 0 km/h
1408 03-05-2010 17:43:03 11.4 C 7.49 g/m*3 11.4 C 0 km/h
1409 03-05-2010 17:55:02 11.5 C 7.02 g/m*3 11.5 C 0 km/h
1410 03-05-2010 18:07:02 11.3 C 7.14 g/m*3 11.3 C 0 km/h
1411 03-05-2010 18:19:01 10.7 C 6.58 g/m*3 10.7 C 0 km/h
1412 03-05-2010 18:31:02 10.9 C 6.96 g/m*3 10.9 C 0 km/h
1413 03-05-2010 18:43:02 11 C 7.01 g/m*3 11 C 0 km/h
1414 03-05-2010 18:55:02 10.9 C 6.66 g/m*3 10.9 C 0 km/h
1415 03-05-2010 19:07:02 10.8 C 6.62 g/m*3 10.8 C 0 km/h
1416 03-05-2010 19:19:01 10.7 C 6.58 g/m*3 10.7 C 0 km/h
1417 03-05-2010 19:31:02 10.4 C 6.65 g/m*3 10.4 C 0 km/h
1418 03-05-2010 19:43:02 10.3 C 6.42 g/m*3 10.3 C 0 km/h
1419 03-05-2010 19:55:02 10.3 C 6.42 g/m*3 10.3 C 0 km/h
1420 03-05-2010 20:07:02 10.1 C 6.15 g/m*3 10.1 C 0 km/h
1421 03-05-2010 20:19:02 10 C 6.01 g/m*3 10 C 0 km/h
1422 03-05-2010 20:31:02 9.8 C 6.12 g/m*3 9.8 C 0 km/h
1423 03-05-2010 20:43:02 9.5 C 5.92 g/m*3 9.5 C 0 km/h
1424 03-05-2010 20:55:01 9.3 C 6.11 g/m*3 9.3 C 0 km/h
1425 03-05-2010 21:07:02 9.2 C 6.07 g/m*3 9.2 C 0 km/h
Sensor: Nr:Datum:Temp:Abs-Feuchte:Windchill:Wind:
Aussen-T/F 1426 03-05-2010 21:19:02 9.2 C 6.25 g/m*3 9.2 C 0 km/h
1427 03-05-2010 21:31:02 9.2 C 6.25 g/m*3 9.2 C 0 km/h
1428 03-05-2010 21:43:02 8.9 C 6.39 g/m*3 8.9 C 0 km/h
1429 03-05-2010 21:55:02 8.9 C 6.31 g/m*3 8.9 C 0 km/h
1430 03-05-2010 22:07:02 8.8 C 6.44 g/m*3 8.8 C 0 km/h
1431 03-05-2010 22:20:05 8.7 C 6.49 g/m*3 8.7 C 0 km/h
1432 03-05-2010 22:32:05 8.5 C 6.49 g/m*3 8.5 C 0 km/h
1433 03-05-2010 22:44:05 8.5 C 6.57 g/m*3 8.5 C 0 km/h
1434 03-05-2010 22:56:05 8.4 C 6.45 g/m*3 8.4 C 0 km/h
1435 03-05-2010 23:08:05 8.4 C 6.45 g/m*3 8.4 C 0 km/h
1436 03-05-2010 23:20:05 8.4 C 6.53 g/m*3 8.4 C 0 km/h
1437 03-05-2010 23:32:05 8.4 C 6.53 g/m*3 8.4 C 0 km/h
1438 03-05-2010 23:44:05 8.3 C 6.49 g/m*3 8.3 C 0 km/h
1439 03-05-2010 23:56:05 8.3 C 6.49 g/m*3 8.3 C 0 km/h
1440 04-05-2010 00:08:05 8 C 6.37 g/m*3 8 C 0 km/h
1441 04-05-2010 00:20:05 7.5 C 6.24 g/m*3 7.5 C 0 km/h
1442 04-05-2010 00:32:05 7.2 C 6.28 g/m*3 7.2 C 0 km/h
1443 04-05-2010 00:44:05 7.4 C 6.44 g/m*3 7.4 C 0 km/h
1444 04-05-2010 00:56:05 7.8 C 6.69 g/m*3 7.8 C 0 km/h
1445 04-05-2010 01:08:05 8 C 6.53 g/m*3 8 C 0 km/h
1446 04-05-2010 01:20:06 8.1 C 6.49 g/m*3 8.1 C 0 km/h
1447 04-05-2010 01:32:06 8.2 C 6.45 g/m*3 8.2 C 0 km/h
1448 04-05-2010 01:44:06 8.3 C 6.49 g/m*3 8.3 C 0 km/h
1449 04-05-2010 01:56:06 8.4 C 6.53 g/m*3 8.4 C 0 km/h
1450 04-05-2010 02:08:06 8.4 C 6.53 g/m*3 8.4 C 0 km/h
Sensor: Nr:Datum:Temp:Abs-Feuchte:Windchill:Wind:
Aussen-T/F 1451 04-05-2010 02:20:06 8.4 C 6.53 g/m*3 8.4 C 0 km/h
1452 04-05-2010 02:32:06 8.4 C 6.53 g/m*3 8.4 C 0 km/h
1453 04-05-2010 02:44:06 8.3 C 6.49 g/m*3 8.3 C 0 km/h
1454 04-05-2010 02:56:06 8.4 C 6.62 g/m*3 8.4 C 0 km/h
1455 04-05-2010 03:08:06 8.4 C 6.62 g/m*3 8.4 C 0 km/h
1456 04-05-2010 03:20:06 8.4 C 6.62 g/m*3 8.4 C 0 km/h
1457 04-05-2010 03:32:06 8.3 C 6.57 g/m*3 8.3 C 0 km/h
1458 04-05-2010 03:44:06 8.2 C 6.62 g/m*3 8.2 C 0 km/h
1459 04-05-2010 03:56:06 8.1 C 6.66 g/m*3 8.1 C 0 km/h
1460 04-05-2010 04:08:06 8 C 6.61 g/m*3 8 C 0 km/h
1461 04-05-2010 04:20:06 7.9 C 6.74 g/m*3 7.9 C 0 km/h
1462 04-05-2010 04:32:06 7.9 C 6.82 g/m*3 7.9 C 0 km/h
1463 04-05-2010 04:44:06 7.9 C 6.82 g/m*3 7.9 C 0 km/h
1464 04-05-2010 04:56:06 7.9 C 6.82 g/m*3 7.9 C 0 km/h
1465 04-05-2010 05:08:06 8 C 6.78 g/m*3 8 C 0 km/h
1466 04-05-2010 05:20:06 8.1 C 6.82 g/m*3 8.1 C 0 km/h
1467 04-05-2010 05:32:07 8.2 C 6.87 g/m*3 8.2 C 0 km/h
1468 04-05-2010 05:44:07 8.2 C 6.87 g/m*3 8.2 C 0 km/h
1469 04-05-2010 05:56:07 8.2 C 6.87 g/m*3 8.2 C 0 km/h
1470 04-05-2010 06:08:07 8.1 C 6.82 g/m*3 8.1 C 0 km/h
1471 04-05-2010 06:20:07 8.2 C 6.87 g/m*3 8.2 C 0 km/h
1472 04-05-2010 06:32:07 8.2 C 6.87 g/m*3 8.2 C 0 km/h
1473 04-05-2010 06:44:07 8.3 C 6.91 g/m*3 8.3 C 0 km/h
1474 04-05-2010 06:56:02 8.4 C 6.96 g/m*3 8.4 C 0 km/h
1475 04-05-2010 07:08:01 8.5 C 7 g/m*3 8.5 C 0 km/h
Sensor: Nr:Datum:Temp:Abs-Feuchte:Windchill:Wind:
Aussen-T/F 1476 04-05-2010 07:20:02 8.6 C 6.96 g/m*3 8.6 C 0 km/h
1477 04-05-2010 07:32:01 8.7 C 7.01 g/m*3 8.7 C 0 km/h
1478 04-05-2010 07:44:01 8.7 C 6.92 g/m*3 8.7 C 0 km/h
1479 04-05-2010 07:56:02 8.8 C 6.79 g/m*3 8.8 C 0 km/h
1480 04-05-2010 08:08:01 9.2 C 6.61 g/m*3 9.2 C 0 km/h
1481 04-05-2010 08:20:01 9 C 6.44 g/m*3 9 C 0 km/h
1482 04-05-2010 08:32:02 9.1 C 6.48 g/m*3 9.1 C 0 km/h
1483 04-05-2010 08:44:03 8.9 C 6.31 g/m*3 8.9 C 0 km/h
1484 04-05-2010 08:56:02 8.9 C 6.31 g/m*3 8.9 C 0 km/h
1485 04-05-2010 09:08:02 9.2 C 6.34 g/m*3 9.2 C 0 km/h
1486 04-05-2010 09:20:01 9.1 C 6.21 g/m*3 9.1 C 0 km/h
1487 04-05-2010 09:32:02 9.3 C 6.29 g/m*3 9.3 C 0 km/h
1488 04-05-2010 09:44:02 9.3 C 6.2 g/m*3 9.3 C 0 km/h
1489 04-05-2010 09:56:02 9.5 C 6.19 g/m*3 9.5 C 0 km/h
1490 04-05-2010 10:08:02 9.6 C 6.14 g/m*3 9.6 C 0 km/h
1491 04-05-2010 10:20:01 9.8 C 5.85 g/m*3 9.8 C 0 km/h
1492 04-05-2010 10:32:02 9.8 C 5.85 g/m*3 9.8 C 0 km/h
1493 04-05-2010 10:44:02 9.9 C 5.7 g/m*3 9.9 C 0 km/h
1494 04-05-2010 10:56:01 10 C 5.54 g/m*3 10 C 0 km/h
1495 04-05-2010 11:08:02 10.2 C 5.52 g/m*3 10.2 C 0 km/h
1496 04-05-2010 11:20:02 10.5 C 5.24 g/m*3 10.5 C 0 km/h
1497 04-05-2010 11:32:02 10.7 C 5.21 g/m*3 10.7 C 0 km/h
1498 04-05-2010 11:44:02 11.1 C 5.04 g/m*3 11.1 C 0 km/h
1499 04-05-2010 11:56:02 11.3 C 5 g/m*3 11.3 C 0 km/h
1500 04-05-2010 12:08:02 10.8 C 4.94 g/m*3 10.8 C 0 km/h
Sensor: Nr:Datum:Temp:Abs-Feuchte:Windchill:Wind:
Aussen-T/F 1501 04-05-2010 12:20:02 10.5 C 4.85 g/m*3 10.5 C 0 km/h
1502 04-05-2010 12:32:01 10.6 C 4.78 g/m*3 10.6 C 0 km/h
1503 04-05-2010 12:44:01 11.6 C 4.89 g/m*3 11.6 C 0 km/h
1504 04-05-2010 12:56:02 12 C 4.69 g/m*3 12 C 0 km/h
1505 04-05-2010 13:08:01 12.2 C 4.64 g/m*3 12.2 C 0 km/h
1506 04-05-2010 13:20:02 11.7 C 4.71 g/m*3 11.7 C 0 km/h
1507 04-05-2010 13:32:01 11.8 C 4.53 g/m*3 11.8 C 0 km/h
1508 04-05-2010 13:44:01 12 C 4.48 g/m*3 12 C 0 km/h
1509 04-05-2010 13:56:02 12.2 C 4.53 g/m*3 12.2 C 0 km/h
1510 04-05-2010 14:08:02 12.1 C 4.5 g/m*3 12.1 C 0 km/h
1511 04-05-2010 14:20:02 12.5 C 4.84 g/m*3 12.5 C 0 km/h
1512 04-05-2010 14:32:02 13.1 C 4.56 g/m*3 13.1 C 0 km/h
1513 04-05-2010 14:44:02 13.4 C 4.65 g/m*3 13.4 C 0 km/h
1514 04-05-2010 14:56:02 13.5 C 4.44 g/m*3 13.5 C 0 km/h
1515 04-05-2010 15:08:02 13.5 C 4.56 g/m*3 13.5 C 0 km/h
1516 04-05-2010 15:20:02 13.8 C 4.41 g/m*3 13.8 C 0 km/h
1517 04-05-2010 15:32:02 13.5 C 4.44 g/m*3 13.5 C 0 km/h
1518 04-05-2010 15:44:02 13.5 C 4.56 g/m*3 13.5 C 0 km/h
1519 04-05-2010 15:56:02 12.9 C 4.51 g/m*3 12.9 C 0 km/h
1520 04-05-2010 16:08:02 12.5 C 4.51 g/m*3 12.5 C 0 km/h
1521 04-05-2010 16:20:02 12.8 C 4.59 g/m*3 12.8 C 0 km/h
1522 04-05-2010 16:32:02 12.5 C 4.4 g/m*3 12.5 C 0 km/h
1523 04-05-2010 16:44:02 12.5 C 4.4 g/m*3 12.5 C 0 km/h
1524 04-05-2010 16:56:01 12 C 4.26 g/m*3 12 C 0 km/h
1525 04-05-2010 17:08:02 12 C 4.26 g/m*3 12 C 0 km/h
Sensor: Nr:Datum:Temp:Abs-Feuchte:Windchill:Wind:
Aussen-T/F 1526 04-05-2010 17:20:01 11.4 C 4.31 g/m*3 11.4 C 0 km/h
1527 04-05-2010 17:32:02 11.4 C 4.41 g/m*3 11.4 C 0 km/h
1528 04-05-2010 17:44:02 11.5 C 4.34 g/m*3 11.5 C 0 km/h
1529 04-05-2010 17:56:02 11.4 C 4.31 g/m*3 11.4 C 0 km/h
1530 04-05-2010 18:08:02 11.5 C 4.23 g/m*3 11.5 C 0 km/h
1531 04-05-2010 18:20:02 11.4 C 4.21 g/m*3 11.4 C 0 km/h
1532 04-05-2010 18:32:02 11.2 C 4.16 g/m*3 11.2 C 0 km/h
1533 04-05-2010 18:44:02 11.1 C 4.13 g/m*3 11.1 C 0 km/h
1534 04-05-2010 18:56:02 11 C 4.3 g/m*3 11 C 0 km/h
1535 04-05-2010 19:08:02 11 C 4.3 g/m*3 11 C 0 km/h
1536 04-05-2010 19:20:02 12 C 4.16 g/m*3 12 C 0 km/h
1537 04-05-2010 19:32:02 11.4 C 4 g/m*3 11.4 C 0 km/h
1538 04-05-2010 19:44:02 11 C 4 g/m*3 11 C 0 km/h
1539 04-05-2010 19:56:01 11 C 4.2 g/m*3 11 C 0 km/h
1540 04-05-2010 20:08:02 10.7 C 4.22 g/m*3 10.7 C 0 km/h
1541 04-05-2010 20:20:01 10.6 C 4.49 g/m*3 10.6 C 0 km/h
1542 04-05-2010 20:32:01 10.1 C 4.35 g/m*3 10.1 C 0 km/h
1543 04-05-2010 20:44:01 9.8 C 4.36 g/m*3 9.8 C 0 km/h
1544 04-05-2010 20:56:01 9.4 C 4.34 g/m*3 9.4 C 0 km/h
1545 04-05-2010 21:08:02 9.5 C 4.28 g/m*3 9.5 C 0 km/h
1546 04-05-2010 21:20:01 9.6 C 4.31 g/m*3 9.6 C 0 km/h
1547 04-05-2010 21:32:01 9.7 C 4.61 g/m*3 9.7 C 0 km/h
1548 04-05-2010 21:44:01 9.5 C 4.64 g/m*3 9.5 C 0 km/h
1549 04-05-2010 21:56:01 8.8 C 4.61 g/m*3 8.8 C 0 km/h
1550 04-05-2010 22:09:04 8.2 C 4.35 g/m*3 8.2 C 0 km/h
Sensor: Nr:Datum:Temp:Abs-Feuchte:Windchill:Wind:
Aussen-T/F 1551 04-05-2010 22:21:04 8.1 C 4.33 g/m*3 8.1 C 0 km/h
1552 04-05-2010 22:33:05 7.8 C 4.24 g/m*3 7.8 C 0 km/h
1553 04-05-2010 22:45:05 7.7 C 4.14 g/m*3 7.7 C 0 km/h
1554 04-05-2010 22:57:05 7.5 C 4.16 g/m*3 7.5 C 0 km/h
1555 04-05-2010 23:09:05 7.4 C 4.14 g/m*3 7.4 C 0 km/h
1556 04-05-2010 23:21:05 7.4 C 4.14 g/m*3 7.4 C 0 km/h
1557 04-05-2010 23:33:05 7.3 C 4.03 g/m*3 7.3 C 0 km/h
1558 04-05-2010 23:45:05 7.3 C 4.03 g/m*3 7.3 C 0 km/h
1559 04-05-2010 23:57:05 7 C 3.95 g/m*3 7 C 0 km/h
1560 05-05-2010 00:09:05 6.8 C 4.05 g/m*3 6.8 C 0 km/h
1561 05-05-2010 00:21:05 6.7 C 4.18 g/m*3 6.7 C 0 km/h
1562 05-05-2010 00:33:05 6.3 C 4.22 g/m*3 6.3 C 0 km/h
1563 05-05-2010 00:45:05 6 C 4.21 g/m*3 6 C 0 km/h
1564 05-05-2010 00:57:05 5.8 C 4.37 g/m*3 5.8 C 0 km/h
1565 05-05-2010 01:09:05 5.5 C 4.35 g/m*3 5.5 C 0 km/h
1566 05-05-2010 01:21:05 5.3 C 4.44 g/m*3 5.3 C 0 km/h
1567 05-05-2010 01:33:05 5.4 C 4.4 g/m*3 5.4 C 0 km/h
1568 05-05-2010 01:45:05 5.6 C 4.31 g/m*3 5.6 C 0 km/h
1569 05-05-2010 01:57:05 5.6 C 4.24 g/m*3 5.6 C 0 km/h
1570 05-05-2010 02:09:05 5.7 C 4.13 g/m*3 5.7 C 0 km/h
1571 05-05-2010 02:21:05 5.7 C 4.13 g/m*3 5.7 C 0 km/h
1572 05-05-2010 02:33:05 5.6 C 4.17 g/m*3 5.6 C 0 km/h
1573 05-05-2010 02:45:06 5.5 C 4.21 g/m*3 5.5 C 0 km/h
1574 05-05-2010 02:57:06 5.2 C 4.2 g/m*3 5.2 C 0 km/h
1575 05-05-2010 03:09:06 5.1 C 4.24 g/m*3 5.1 C 0 km/h
Sensor: Nr:Datum:Temp:Abs-Feuchte:Windchill:Wind:
Aussen-T/F 1576 05-05-2010 03:21:06 4.8 C 4.22 g/m*3 4.8 C 0 km/h
1577 05-05-2010 03:33:06 4.7 C 4.13 g/m*3 4.7 C 0 km/h
1578 05-05-2010 03:45:06 4.6 C 4.1 g/m*3 4.6 C 0 km/h
1579 05-05-2010 03:57:06 4.5 C 4.01 g/m*3 4.5 C 0 km/h
1580 05-05-2010 04:09:06 4.3 C 3.96 g/m*3 4.3 C 0 km/h
1581 05-05-2010 04:21:06 4 C 4.01 g/m*3 4 C 0 km/h
1582 05-05-2010 04:33:06 3.8 C 4.08 g/m*3 3.8 C 0 km/h
1583 05-05-2010 04:45:06 3.7 C 4.11 g/m*3 3.7 C 0 km/h
1584 05-05-2010 04:57:06 3.7 C 4.05 g/m*3 3.7 C 0 km/h
1585 05-05-2010 05:09:06 3.6 C 4.02 g/m*3 3.6 C 0 km/h
1586 05-05-2010 05:21:06 3.6 C 3.96 g/m*3 3.6 C 0 km/h
1587 05-05-2010 05:33:06 3.6 C 3.9 g/m*3 3.6 C 0 km/h
1588 05-05-2010 05:45:06 3.4 C 3.79 g/m*3 3.4 C 0 km/h
1589 05-05-2010 05:57:06 3.2 C 3.86 g/m*3 3.2 C 0 km/h
1590 05-05-2010 06:09:06 3 C 3.86 g/m*3 3 C 0 km/h
1591 05-05-2010 06:21:06 2.8 C 3.99 g/m*3 2.8 C 0 km/h
1592 05-05-2010 06:33:03 2.6 C 3.99 g/m*3 2.6 C 0 km/h
1593 05-05-2010 06:45:03 2.5 C 4.02 g/m*3 2.5 C 0 km/h
1594 05-05-2010 06:57:03 2.5 C 4.08 g/m*3 2.5 C 0 km/h
1595 05-05-2010 07:09:02 2.5 C 4.14 g/m*3 2.5 C 0 km/h
1596 05-05-2010 07:21:03 2.7 C 4.25 g/m*3 2.7 C 0 km/h
1597 05-05-2010 07:33:02 2.8 C 4.28 g/m*3 2.8 C 0 km/h
1598 05-05-2010 07:45:02 3 C 4.28 g/m*3 3 C 0 km/h
1599 05-05-2010 07:57:02 3.4 C 4.4 g/m*3 3.4 C 0 km/h
1600 05-05-2010 08:09:02 3.8 C 4.45 g/m*3 3.8 C 0 km/h
Sensor: Nr:Datum:Temp:Abs-Feuchte:Windchill:Wind:
Aussen-T/F 1601 05-05-2010 08:21:02 4.4 C 4.31 g/m*3 4.4 C 0 km/h
1602 05-05-2010 08:33:02 4.6 C 4.17 g/m*3 4.6 C 0 km/h
1603 05-05-2010 08:45:02 4.9 C 4.12 g/m*3 4.9 C 0 km/h
1604 05-05-2010 08:57:02 5.3 C 4.02 g/m*3 5.3 C 0 km/h
1605 05-05-2010 09:09:01 6 C 3.99 g/m*3 6 C 0 km/h
1606 05-05-2010 09:21:02 6.6 C 3.85 g/m*3 6.6 C 0 km/h
1607 05-05-2010 09:33:02 7.2 C 3.92 g/m*3 7.2 C 0 km/h
1608 05-05-2010 09:45:02 7.5 C 3.76 g/m*3 7.5 C 0 km/h
1609 05-05-2010 09:57:02 7.9 C 3.7 g/m*3 7.9 C 0 km/h
1610 05-05-2010 10:09:02 8.1 C 3.58 g/m*3 8.1 C 0 km/h
1611 05-05-2010 10:21:02 8.6 C 3.52 g/m*3 8.6 C 0 km/h
1612 05-05-2010 10:33:02 9.5 C 3.37 g/m*3 9.5 C 0 km/h
1613 05-05-2010 10:45:01 9.6 C 3.11 g/m*3 9.6 C 0 km/h
1614 05-05-2010 10:57:01 10 C 2.91 g/m*3 10 C 0 km/h
1615 05-05-2010 11:09:02 10.4 C 2.89 g/m*3 10.4 C 0 km/h
1616 05-05-2010 11:21:01 10.7 C 2.75 g/m*3 10.7 C 0 km/h
1617 05-05-2010 11:33:02 11.2 C 3.04 g/m*3 11.2 C 0 km/h
1618 05-05-2010 11:45:02 11.9 C 2.65 g/m*3 11.9 C 0 km/h
1619 05-05-2010 11:57:02 12.5 C 2.42 g/m*3 12.5 C 0 km/h
1620 05-05-2010 12:09:02 12.7 C 2.23 g/m*3 12.7 C 0 km/h
1621 05-05-2010 12:21:01 12.7 C 2.23 g/m*3 12.7 C 0 km/h
1622 05-05-2010 12:33:02 13.4 C 2.32 g/m*3 13.4 C 0 km/h
1623 05-05-2010 12:45:02 14.6 C 2.5 g/m*3 14.6 C 0 km/h
1624 05-05-2010 12:57:02 15.2 C 2.6 g/m*3 15.2 C 0 km/h
1625 05-05-2010 13:09:02 15.9 C 2.71 g/m*3 15.9 C 0 km/h
Sensor: Nr:Datum:Temp:Abs-Feuchte:Windchill:Wind:
Aussen-T/F 1626 05-05-2010 13:21:01 16.6 C 2.83 g/m*3 16.6 C 0 km/h
1627 05-05-2010 13:33:02 17.2 C 2.93 g/m*3 17.2 C 0 km/h
1628 05-05-2010 13:45:01 16.6 C 2.83 g/m*3 16.6 C 0 km/h
1629 05-05-2010 13:57:01 16.4 C 2.79 g/m*3 16.4 C 0 km/h
1630 05-05-2010 14:09:02 16.7 C 2.84 g/m*3 16.7 C 0 km/h
1631 05-05-2010 14:21:02 16.7 C 2.84 g/m*3 16.7 C 0 km/h
1632 05-05-2010 14:33:01 17 C 2.89 g/m*3 17 C 0 km/h
1633 05-05-2010 14:45:01 17.4 C 2.96 g/m*3 17.4 C 0 km/h
1634 05-05-2010 14:57:01 17.5 C 2.98 g/m*3 17.5 C 0 km/h
1635 05-05-2010 15:09:02 18.3 C 3.13 g/m*3 18.3 C 0 km/h
1636 05-05-2010 15:21:02 18.2 C 3.11 g/m*3 18.2 C 0 km/h
1637 05-05-2010 15:33:01 17.8 C 3.04 g/m*3 17.8 C 0 km/h
1638 05-05-2010 15:45:02 18 C 3.07 g/m*3 18 C 0 km/h
1639 05-05-2010 15:57:02 18.2 C 3.11 g/m*3 18.2 C 0 km/h
1640 05-05-2010 16:09:01 18.3 C 3.13 g/m*3 18.3 C 0 km/h
1641 05-05-2010 16:21:01 18.1 C 3.09 g/m*3 18.1 C 0 km/h
1642 05-05-2010 16:33:01 17.7 C 3.02 g/m*3 17.7 C 0 km/h
1643 05-05-2010 16:45:02 17.5 C 2.98 g/m*3 17.5 C 0 km/h
1644 05-05-2010 16:57:02 17.2 C 2.93 g/m*3 17.2 C 0 km/h
1645 05-05-2010 17:09:02 16.7 C 2.84 g/m*3 16.7 C 0 km/h
1646 05-05-2010 17:21:02 16.2 C 2.76 g/m*3 16.2 C 0 km/h
1647 05-05-2010 17:33:02 15.6 C 2.66 g/m*3 15.6 C 0 km/h
1648 05-05-2010 17:45:02 15.1 C 2.58 g/m*3 15.1 C 0 km/h
1649 05-05-2010 17:57:02 14.8 C 2.53 g/m*3 14.8 C 0 km/h
1650 05-05-2010 18:09:01 14.5 C 2.49 g/m*3 14.5 C 0 km/h
Sensor: Nr:Datum:Temp:Abs-Feuchte:Windchill:Wind:
Aussen-T/F 1651 05-05-2010 18:21:01 14.4 C 2.47 g/m*3 14.4 C 0 km/h
1652 05-05-2010 18:33:02 14.2 C 2.44 g/m*3 14.2 C 0 km/h
1653 05-05-2010 18:45:02 14.1 C 2.43 g/m*3 14.1 C 0 km/h
1654 05-05-2010 18:57:02 13.8 C 2.38 g/m*3 13.8 C 0 km/h
1655 05-05-2010 19:09:02 13.7 C 2.37 g/m*3 13.7 C 0 km/h
1656 05-05-2010 19:21:01 13.6 C 2.35 g/m*3 13.6 C 0 km/h
1657 05-05-2010 19:33:02 13.5 C 2.34 g/m*3 13.5 C 0 km/h
1658 05-05-2010 19:45:02 13.3 C 2.43 g/m*3 13.3 C 0 km/h
1659 05-05-2010 19:57:02 13.1 C 2.28 g/m*3 13.1 C 0 km/h
1660 05-05-2010 20:09:02 13 C 2.49 g/m*3 13 C 0 km/h
1661 05-05-2010 20:21:02 12.9 C 2.82 g/m*3 12.9 C 0 km/h
1662 05-05-2010 20:33:02 12.8 C 2.91 g/m*3 12.8 C 0 km/h
1663 05-05-2010 20:45:02 12.7 C 2.89 g/m*3 12.7 C 0 km/h
1664 05-05-2010 20:57:02 12.6 C 2.88 g/m*3 12.6 C 0 km/h
1665 05-05-2010 21:09:02 12.5 C 2.86 g/m*3 12.5 C 0 km/h
1666 05-05-2010 21:21:02 12.4 C 2.84 g/m*3 12.4 C 0 km/h
1667 05-05-2010 21:33:02 12.3 C 2.82 g/m*3 12.3 C 0 km/h
1668 05-05-2010 21:45:02 12.3 C 2.93 g/m*3 12.3 C 0 km/h
1669 05-05-2010 21:57:02 12.2 C 2.91 g/m*3 12.2 C 0 km/h
1670 05-05-2010 22:09:03 12.1 C 3 g/m*3 12.1 C 0 km/h
1671 05-05-2010 22:21:02 12 C 3.09 g/m*3 12 C 0 km/h
1672 05-05-2010 22:34:02 11.9 C 3.39 g/m*3 11.9 C 0 km/h
1673 05-05-2010 22:46:02 11.7 C 3.35 g/m*3 11.7 C 0 km/h
1674 05-05-2010 22:58:02 11.7 C 3.35 g/m*3 11.7 C 0 km/h
1675 05-05-2010 23:10:02 11.6 C 3.22 g/m*3 11.6 C 0 km/h
Sensor: Nr:Datum:Temp:Abs-Feuchte:Windchill:Wind:
Aussen-T/F 1676 05-05-2010 23:22:02 11.5 C 3.2 g/m*3 11.5 C 0 km/h
1677 05-05-2010 23:34:02 11.6 C 3.33 g/m*3 11.6 C 0 km/h
1678 05-05-2010 23:46:02 11.4 C 3.39 g/m*3 11.4 C 0 km/h
1679 05-05-2010 23:58:02 11.4 C 3.39 g/m*3 11.4 C 0 km/h
1680 06-05-2010 00:10:02 11.3 C 3.47 g/m*3 11.3 C 0 km/h
1681 06-05-2010 00:22:02 11.2 C 3.55 g/m*3 11.2 C 0 km/h
1682 06-05-2010 00:34:02 11.2 C 3.55 g/m*3 11.2 C 0 km/h
1683 06-05-2010 00:46:02 10.7 C 4.03 g/m*3 10.7 C 0 km/h
1684 06-05-2010 00:58:02 9.8 C 4.45 g/m*3 9.8 C 0 km/h
1685 06-05-2010 01:10:02 8.7 C 5.1 g/m*3 8.7 C 0 km/h
1686 06-05-2010 01:22:02 7.9 C 5.5 g/m*3 7.9 C 0 km/h
1687 06-05-2010 01:34:02 7.3 C 5.93 g/m*3 7.3 C 0 km/h
1688 06-05-2010 01:46:02 7.1 C 6.01 g/m*3 7.1 C 0 km/h
1689 06-05-2010 01:58:03 7 C 6.04 g/m*3 7 C 0 km/h
1690 06-05-2010 02:10:03 6.9 C 6.31 g/m*3 6.9 C 0 km/h
1691 06-05-2010 02:22:03 6.8 C 6.42 g/m*3 6.8 C 0 km/h
1692 06-05-2010 02:34:03 6.7 C 6.53 g/m*3 6.7 C 0 km/h
1693 06-05-2010 02:46:03 6.5 C 6.52 g/m*3 6.5 C 0 km/h
1694 06-05-2010 02:58:03 6.8 C 6.73 g/m*3 6.8 C 0 km/h
1695 06-05-2010 03:10:03 6.8 C 6.81 g/m*3 6.8 C 0 km/h
1696 06-05-2010 03:22:03 6.7 C 6.84 g/m*3 6.7 C 0 km/h
1697 06-05-2010 03:34:03 6.5 C 6.82 g/m*3 6.5 C 0 km/h
1698 06-05-2010 03:46:03 6.9 C 7.01 g/m*3 6.9 C 0 km/h
1699 06-05-2010 03:58:03 6.8 C 7.04 g/m*3 6.8 C 0 km/h
1700 06-05-2010 04:10:03 6.9 C 7.08 g/m*3 6.9 C 0 km/h
Sensor: Nr:Datum:Temp:Abs-Feuchte:Windchill:Wind:
Aussen-T/F 1701 06-05-2010 04:22:03 6.9 C 7.08 g/m*3 6.9 C 0 km/h
1702 06-05-2010 04:34:03 6.9 C 7.08 g/m*3 6.9 C 0 km/h
1703 06-05-2010 04:46:03 6.9 C 7.08 g/m*3 6.9 C 0 km/h
1704 06-05-2010 04:58:03 6.8 C 7.04 g/m*3 6.8 C 0 km/h
1705 06-05-2010 05:10:03 6.6 C 7.02 g/m*3 6.6 C 0 km/h
1706 06-05-2010 05:22:03 6.5 C 6.97 g/m*3 6.5 C 0 km/h
1707 06-05-2010 05:34:03 6.6 C 7.02 g/m*3 6.6 C 0 km/h
1708 06-05-2010 05:46:03 6.8 C 7.11 g/m*3 6.8 C 0 km/h
1709 06-05-2010 05:58:04 6.8 C 7.11 g/m*3 6.8 C 0 km/h
1710 06-05-2010 06:10:04 6.5 C 6.97 g/m*3 6.5 C 0 km/h
1711 06-05-2010 06:22:04 6.5 C 6.97 g/m*3 6.5 C 0 km/h
1712 06-05-2010 06:34:04 6.5 C 6.97 g/m*3 6.5 C 0 km/h
1713 06-05-2010 06:46:04 6.6 C 7.02 g/m*3 6.6 C 0 km/h
1714 06-05-2010 06:58:04 6.5 C 7.05 g/m*3 6.5 C 0 km/h
1715 06-05-2010 07:10:01 6.4 C 7 g/m*3 6.4 C 0 km/h
1716 06-05-2010 07:22:02 6.4 C 7 g/m*3 6.4 C 0 km/h
1717 06-05-2010 07:34:01 6.3 C 6.96 g/m*3 6.3 C 0 km/h
1718 06-05-2010 07:46:03 6.5 C 7.05 g/m*3 6.5 C 0 km/h
1719 06-05-2010 07:58:03 6.3 C 6.96 g/m*3 6.3 C 0 km/h
1720 06-05-2010 08:10:02 6.1 C 6.87 g/m*3 6.1 C 0 km/h
1721 06-05-2010 08:22:02 6.2 C 6.91 g/m*3 6.2 C 0 km/h
1722 06-05-2010 08:34:03 6.2 C 6.91 g/m*3 6.2 C 0 km/h
1723 06-05-2010 08:46:02 6.4 C 7 g/m*3 6.4 C 0 km/h
1724 06-05-2010 08:58:02 6.2 C 6.91 g/m*3 6.2 C 0 km/h
1725 06-05-2010 09:10:02 6.2 C 6.84 g/m*3 6.2 C 0 km/h
Sensor: Nr:Datum:Temp:Abs-Feuchte:Windchill:Wind:
Aussen-T/F 1726 06-05-2010 09:22:01 6.4 C 7 g/m*3 6.4 C 0 km/h
1727 06-05-2010 09:34:02 6.6 C 7.1 g/m*3 6.6 C 0 km/h
1728 06-05-2010 09:46:02 6.8 C 7.19 g/m*3 6.8 C 0 km/h
1729 06-05-2010 09:58:02 6.8 C 7.19 g/m*3 6.8 C 0 km/h
1730 06-05-2010 10:10:02 6.8 C 7.19 g/m*3 6.8 C 0 km/h
1731 06-05-2010 10:22:02 6.9 C 7.24 g/m*3 6.9 C 0 km/h
1732 06-05-2010 10:34:02 6.8 C 7.11 g/m*3 6.8 C 0 km/h
1733 06-05-2010 10:46:02 6.8 C 7.11 g/m*3 6.8 C 0 km/h
1734 06-05-2010 10:58:02 6.9 C 7.16 g/m*3 6.9 C 0 km/h
1735 06-05-2010 11:10:02 7 C 7.21 g/m*3 7 C 0 km/h
1736 06-05-2010 11:22:02 7 C 7.13 g/m*3 7 C 0 km/h
1737 06-05-2010 11:34:02 7 C 7.13 g/m*3 7 C 0 km/h
1738 06-05-2010 11:46:01 7.1 C 7.18 g/m*3 7.1 C 0 km/h
1739 06-05-2010 11:58:01 7.1 C 7.18 g/m*3 7.1 C 0 km/h
1740 06-05-2010 12:10:01 7.2 C 7.22 g/m*3 7.2 C 0 km/h
1741 06-05-2010 12:22:02 6.9 C 7.08 g/m*3 6.9 C 0 km/h
1742 06-05-2010 12:34:02 6.9 C 7.01 g/m*3 6.9 C 0 km/h
1743 06-05-2010 12:46:01 7.1 C 7.1 g/m*3 7.1 C 0 km/h
1744 06-05-2010 12:58:01 7.2 C 7.06 g/m*3 7.2 C 0 km/h
1745 06-05-2010 13:10:02 7.5 C 7.2 g/m*3 7.5 C 0 km/h
1746 06-05-2010 13:22:01 7.7 C 7.3 g/m*3 7.7 C 0 km/h
1747 06-05-2010 13:34:02 7.4 C 7.16 g/m*3 7.4 C 0 km/h
1748 06-05-2010 13:46:02 7.3 C 7.19 g/m*3 7.3 C 0 km/h
1749 06-05-2010 13:58:02 7.2 C 7.14 g/m*3 7.2 C 0 km/h
1750 06-05-2010 14:10:03 7.3 C 7.27 g/m*3 7.3 C 0 km/h
Sensor: Nr:Datum:Temp:Abs-Feuchte:Windchill:Wind:
Aussen-T/F 1751 06-05-2010 14:22:02 7.4 C 7.32 g/m*3 7.4 C 0 km/h
1752 06-05-2010 14:34:03 7.3 C 7.27 g/m*3 7.3 C 0 km/h
1753 06-05-2010 14:46:02 7.4 C 7.32 g/m*3 7.4 C 0 km/h
1754 06-05-2010 14:58:02 7.6 C 7.49 g/m*3 7.6 C 0 km/h
1755 06-05-2010 15:10:02 7.5 C 7.44 g/m*3 7.5 C 0 km/h
1756 06-05-2010 15:22:02 7.1 C 7.18 g/m*3 7.1 C 0 km/h
1757 06-05-2010 15:34:03 7.1 C 7.25 g/m*3 7.1 C 0 km/h
1758 06-05-2010 15:46:01 6.9 C 7.16 g/m*3 6.9 C 0 km/h
1759 06-05-2010 15:58:01 6.9 C 7.24 g/m*3 6.9 C 0 km/h
1760 06-05-2010 16:10:02 6.7 C 7.14 g/m*3 6.7 C 0 km/h
1761 06-05-2010 16:22:02 6.5 C 6.97 g/m*3 6.5 C 0 km/h
1762 06-05-2010 16:34:02 6.5 C 6.97 g/m*3 6.5 C 0 km/h
1763 06-05-2010 16:46:03 6.5 C 6.97 g/m*3 6.5 C 0 km/h
1764 06-05-2010 16:58:03 6.5 C 6.97 g/m*3 6.5 C 0 km/h
1765 06-05-2010 17:10:02 6.5 C 6.9 g/m*3 6.5 C 0 km/h
1766 06-05-2010 17:22:03 6.6 C 6.95 g/m*3 6.6 C 0 km/h
1767 06-05-2010 17:34:02 6.4 C 6.85 g/m*3 6.4 C 0 km/h
1768 06-05-2010 17:46:03 6.5 C 6.9 g/m*3 6.5 C 0 km/h
1769 06-05-2010 17:58:03 6.3 C 6.81 g/m*3 6.3 C 0 km/h
1770 06-05-2010 18:10:02 6 C 6.6 g/m*3 6 C 0 km/h
1771 06-05-2010 18:22:02 5.9 C 6.56 g/m*3 5.9 C 0 km/h
1772 06-05-2010 18:34:02 5.8 C 6.52 g/m*3 5.8 C 0 km/h
1773 06-05-2010 18:46:02 5.9 C 6.63 g/m*3 5.9 C 0 km/h
1774 06-05-2010 18:58:02 5.9 C 6.63 g/m*3 5.9 C 0 km/h
1775 06-05-2010 19:10:02 6 C 6.6 g/m*3 6 C 0 km/h
Sensor: Nr:Datum:Temp:Abs-Feuchte:Windchill:Wind:
Aussen-T/F 1776 06-05-2010 19:22:02 5.9 C 6.63 g/m*3 5.9 C 0 km/h
1777 06-05-2010 19:34:02 5.9 C 6.63 g/m*3 5.9 C 0 km/h
1778 06-05-2010 19:46:02 5.7 C 6.55 g/m*3 5.7 C 0 km/h
1779 06-05-2010 19:58:02 5.6 C 6.57 g/m*3 5.6 C 0 km/h
1780 06-05-2010 20:10:01 5.6 C 6.57 g/m*3 5.6 C 0 km/h
1781 06-05-2010 20:22:02 5.5 C 6.53 g/m*3 5.5 C 0 km/h
1782 06-05-2010 20:34:02 5.6 C 6.65 g/m*3 5.6 C 0 km/h
1783 06-05-2010 20:46:02 5.4 C 6.56 g/m*3 5.4 C 0 km/h
1784 06-05-2010 20:58:02 5.4 C 6.56 g/m*3 5.4 C 0 km/h
1785 06-05-2010 21:10:01 5.4 C 6.56 g/m*3 5.4 C 0 km/h
1786 06-05-2010 21:22:02 5.4 C 6.56 g/m*3 5.4 C 0 km/h
1787 06-05-2010 21:34:01 5.3 C 6.52 g/m*3 5.3 C 0 km/h
1788 06-05-2010 21:46:03 5.4 C 6.56 g/m*3 5.4 C 0 km/h
1789 06-05-2010 21:58:03 5.4 C 6.56 g/m*3 5.4 C 0 km/h
1790 06-05-2010 22:10:02 5.4 C 6.63 g/m*3 5.4 C 0 km/h
1791 06-05-2010 22:22:02 5.4 C 6.63 g/m*3 5.4 C 0 km/h
1792 06-05-2010 22:34:02 5.4 C 6.63 g/m*3 5.4 C 0 km/h
1793 06-05-2010 22:47:02 5.4 C 6.63 g/m*3 5.4 C 0 km/h
1794 06-05-2010 22:59:02 5.4 C 6.63 g/m*3 5.4 C 0 km/h
1795 06-05-2010 23:11:02 5.4 C 6.63 g/m*3 5.4 C 0 km/h
1796 06-05-2010 23:23:02 5.4 C 6.63 g/m*3 5.4 C 0 km/h
1797 06-05-2010 23:35:02 5.4 C 6.63 g/m*3 5.4 C 0 km/h
1798 06-05-2010 23:47:02 5.3 C 6.58 g/m*3 5.3 C 0 km/h
1799 06-05-2010 23:59:02 5.3 C 6.58 g/m*3 5.3 C 0 km/h
1800 07-05-2010 00:11:02 5.4 C 6.63 g/m*3 5.4 C 0 km/h
Sensor: Nr:Datum:Temp:Abs-Feuchte:Windchill:Wind:
Aussen-T/F 1801 07-05-2010 00:23:02 5.4 C 6.63 g/m*3 5.4 C 0 km/h
1802 07-05-2010 00:35:02 5.4 C 6.63 g/m*3 5.4 C 0 km/h
1803 07-05-2010 00:47:02 5.4 C 6.63 g/m*3 5.4 C 0 km/h
1804 07-05-2010 00:59:02 5.4 C 6.63 g/m*3 5.4 C 0 km/h
1805 07-05-2010 01:11:03 5.4 C 6.63 g/m*3 5.4 C 0 km/h
1806 07-05-2010 01:23:03 5.4 C 6.63 g/m*3 5.4 C 0 km/h
1807 07-05-2010 01:35:03 5.4 C 6.63 g/m*3 5.4 C 0 km/h
1808 07-05-2010 01:47:03 5.4 C 6.63 g/m*3 5.4 C 0 km/h
1809 07-05-2010 01:59:03 5.4 C 6.63 g/m*3 5.4 C 0 km/h
1810 07-05-2010 02:11:03 5.4 C 6.63 g/m*3 5.4 C 0 km/h
1811 07-05-2010 02:23:03 5.4 C 6.63 g/m*3 5.4 C 0 km/h
1812 07-05-2010 02:35:03 5.4 C 6.63 g/m*3 5.4 C 0 km/h
1813 07-05-2010 02:47:03 5.4 C 6.63 g/m*3 5.4 C 0 km/h
1814 07-05-2010 02:59:03 5.4 C 6.63 g/m*3 5.4 C 0 km/h
1815 07-05-2010 03:11:03 5.4 C 6.63 g/m*3 5.4 C 0 km/h
1816 07-05-2010 03:23:03 5.4 C 6.63 g/m*3 5.4 C 0 km/h
1817 07-05-2010 03:35:03 5.3 C 6.58 g/m*3 5.3 C 0 km/h
1818 07-05-2010 03:47:03 5.3 C 6.58 g/m*3 5.3 C 0 km/h
1819 07-05-2010 03:59:03 5.2 C 6.54 g/m*3 5.2 C 0 km/h
1820 07-05-2010 04:11:03 5.2 C 6.54 g/m*3 5.2 C 0 km/h
1821 07-05-2010 04:23:03 5.2 C 6.54 g/m*3 5.2 C 0 km/h
1822 07-05-2010 04:35:03 5.2 C 6.54 g/m*3 5.2 C 0 km/h
1823 07-05-2010 04:47:03 5.2 C 6.54 g/m*3 5.2 C 0 km/h
1824 07-05-2010 04:59:03 5.1 C 6.5 g/m*3 5.1 C 0 km/h
1825 07-05-2010 05:11:04 5 C 6.46 g/m*3 5 C 0 km/h
Sensor: Nr:Datum:Temp:Abs-Feuchte:Windchill:Wind:
Aussen-T/F 1826 07-05-2010 05:23:04 5 C 6.46 g/m*3 5 C 0 km/h
1827 07-05-2010 05:35:04 4.9 C 6.41 g/m*3 4.9 C 0 km/h
1828 07-05-2010 05:47:04 4.8 C 6.37 g/m*3 4.8 C 0 km/h
1829 07-05-2010 05:59:04 4.7 C 6.33 g/m*3 4.7 C 0 km/h
1830 07-05-2010 06:11:04 4.7 C 6.33 g/m*3 4.7 C 0 km/h
1831 07-05-2010 06:23:04 4.6 C 6.29 g/m*3 4.6 C 0 km/h
1832 07-05-2010 06:35:04 4.5 C 6.24 g/m*3 4.5 C 0 km/h
1833 07-05-2010 06:47:04 4.6 C 6.29 g/m*3 4.6 C 0 km/h
1834 07-05-2010 06:59:04 4.6 C 6.29 g/m*3 4.6 C 0 km/h
1835 07-05-2010 07:11:04 4.6 C 6.29 g/m*3 4.6 C 0 km/h
1836 07-05-2010 07:23:04 4.7 C 6.33 g/m*3 4.7 C 0 km/h
1837 07-05-2010 07:35:04 4.6 C 6.29 g/m*3 4.6 C 0 km/h
1838 07-05-2010 07:47:04 4.7 C 6.33 g/m*3 4.7 C 0 km/h
1839 07-05-2010 07:59:04 4.8 C 6.37 g/m*3 4.8 C 0 km/h
1840 07-05-2010 08:11:04 4.9 C 6.41 g/m*3 4.9 C 0 km/h
1841 07-05-2010 08:23:04 4.8 C 6.37 g/m*3 4.8 C 0 km/h
1842 07-05-2010 08:35:02 5 C 6.46 g/m*3 5 C 0 km/h
1843 07-05-2010 08:47:02 4.8 C 6.3 g/m*3 4.8 C 0 km/h
1844 07-05-2010 08:59:02 4.6 C 6.22 g/m*3 4.6 C 0 km/h
1845 07-05-2010 09:11:02 4.9 C 6.28 g/m*3 4.9 C 0 km/h
1846 07-05-2010 09:23:03 4.8 C 6.24 g/m*3 4.8 C 0 km/h
1847 07-05-2010 09:35:02 4.7 C 6.13 g/m*3 4.7 C 0 km/h
1848 07-05-2010 09:47:02 5 C 6.12 g/m*3 5 C 0 km/h
1849 07-05-2010 09:59:02 4.9 C 6.08 g/m*3 4.9 C 0 km/h
1850 07-05-2010 10:11:02 5 C 6.05 g/m*3 5 C 0 km/h
Sensor: Nr:Datum:Temp:Abs-Feuchte:Windchill:Wind:
Aussen-T/F 1851 07-05-2010 10:23:02 5.3 C 6.17 g/m*3 5.3 C 0 km/h
1852 07-05-2010 10:35:02 6 C 6.39 g/m*3 6 C 0 km/h
1853 07-05-2010 10:47:02 5.6 C 6.15 g/m*3 5.6 C 0 km/h
1854 07-05-2010 10:59:02 5.7 C 6.12 g/m*3 5.7 C 0 km/h
1855 07-05-2010 11:11:01 6.8 C 6.58 g/m*3 6.8 C 0 km/h
1856 07-05-2010 11:23:02 7 C 6.66 g/m*3 7 C 0 km/h
1857 07-05-2010 11:35:02 7.1 C 6.71 g/m*3 7.1 C 0 km/h
1858 07-05-2010 11:47:02 7.1 C 6.71 g/m*3 7.1 C 0 km/h
1859 07-05-2010 11:59:02 7.1 C 6.63 g/m*3 7.1 C 0 km/h
1860 07-05-2010 12:11:03 7.1 C 6.4 g/m*3 7.1 C 0 km/h
1861 07-05-2010 12:23:02 7 C 6.28 g/m*3 7 C 0 km/h
1862 07-05-2010 12:35:02 7.1 C 6.4 g/m*3 7.1 C 0 km/h
1863 07-05-2010 12:47:01 7.3 C 6.48 g/m*3 7.3 C 0 km/h
1864 07-05-2010 12:59:01 7.2 C 6.2 g/m*3 7.2 C 0 km/h
1865 07-05-2010 13:11:02 7.3 C 6.4 g/m*3 7.3 C 0 km/h
1866 07-05-2010 13:23:01 7.8 C 6.61 g/m*3 7.8 C 0 km/h
1867 07-05-2010 13:35:02 8.3 C 6.66 g/m*3 8.3 C 0 km/h
1868 07-05-2010 13:47:01 7.9 C 6.49 g/m*3 7.9 C 0 km/h
1869 07-05-2010 13:59:01 7.7 C 6.41 g/m*3 7.7 C 0 km/h
1870 07-05-2010 14:11:02 8.6 C 6.87 g/m*3 8.6 C 0 km/h
1871 07-05-2010 14:23:01 8.4 C 6.79 g/m*3 8.4 C 0 km/h
1872 07-05-2010 14:35:02 8.5 C 6.92 g/m*3 8.5 C 0 km/h
1873 07-05-2010 14:47:01 8.3 C 6.83 g/m*3 8.3 C 0 km/h
1874 07-05-2010 14:59:01 8.3 C 6.66 g/m*3 8.3 C 0 km/h
1875 07-05-2010 15:11:02 8.4 C 6.87 g/m*3 8.4 C 0 km/h
Sensor: Nr:Datum:Temp:Abs-Feuchte:Windchill:Wind:
Aussen-T/F 1876 07-05-2010 15:23:02 7.8 C 6.61 g/m*3 7.8 C 0 km/h
1877 07-05-2010 15:35:02 7.7 C 6.57 g/m*3 7.7 C 0 km/h
1878 07-05-2010 15:47:02 8.5 C 7 g/m*3 8.5 C 0 km/h
1879 07-05-2010 15:59:02 8.6 C 7.05 g/m*3 8.6 C 0 km/h
1880 07-05-2010 16:11:01 9.3 C 7.19 g/m*3 9.3 C 0 km/h
1881 07-05-2010 16:23:01 9.2 C 6.97 g/m*3 9.2 C 0 km/h
1882 07-05-2010 16:35:01 9 C 6.61 g/m*3 9 C 0 km/h
1883 07-05-2010 16:47:01 9.2 C 6.97 g/m*3 9.2 C 0 km/h
1884 07-05-2010 16:59:01 9.1 C 6.92 g/m*3 9.1 C 0 km/h
1885 07-05-2010 17:11:02 8.9 C 6.92 g/m*3 8.9 C 0 km/h
1886 07-05-2010 17:23:01 9.2 C 6.97 g/m*3 9.2 C 0 km/h
1887 07-05-2010 17:35:02 9.4 C 7.05 g/m*3 9.4 C 0 km/h
1888 07-05-2010 17:47:01 9.8 C 7.24 g/m*3 9.8 C 0 km/h
1889 07-05-2010 17:59:01 9.8 C 7.24 g/m*3 9.8 C 0 km/h
1890 07-05-2010 18:11:02 9.8 C 7.24 g/m*3 9.8 C 0 km/h
1891 07-05-2010 18:23:02 9.4 C 6.96 g/m*3 9.4 C 0 km/h
1892 07-05-2010 18:35:02 9 C 6.88 g/m*3 9 C 0 km/h
1893 07-05-2010 18:47:02 9 C 7.05 g/m*3 9 C 0 km/h
1894 07-05-2010 18:59:02 8.5 C 7 g/m*3 8.5 C 0 km/h
1895 07-05-2010 19:11:02 8.2 C 7.03 g/m*3 8.2 C 0 km/h
1896 07-05-2010 19:23:02 8.1 C 6.99 g/m*3 8.1 C 0 km/h
1897 07-05-2010 19:35:02 7.9 C 7.06 g/m*3 7.9 C 0 km/h
1898 07-05-2010 19:47:02 7.6 C 7.09 g/m*3 7.6 C 0 km/h
1899 07-05-2010 19:59:02 7.7 C 7.14 g/m*3 7.7 C 0 km/h
1900 07-05-2010 20:11:02 7.3 C 7.03 g/m*3 7.3 C 0 km/h
Sensor: Nr:Datum:Temp:Abs-Feuchte:Windchill:Wind:
Aussen-T/F 1901 07-05-2010 20:23:01 7.3 C 7.03 g/m*3 7.3 C 0 km/h
1902 07-05-2010 20:35:02 7.2 C 7.06 g/m*3 7.2 C 0 km/h
1903 07-05-2010 20:47:02 7.1 C 7.1 g/m*3 7.1 C 0 km/h
1904 07-05-2010 20:59:02 6.9 C 7.08 g/m*3 6.9 C 0 km/h
1905 07-05-2010 21:11:02 6.7 C 6.99 g/m*3 6.7 C 0 km/h
1906 07-05-2010 21:23:02 6.8 C 7.04 g/m*3 6.8 C 0 km/h
1907 07-05-2010 21:35:02 6.8 C 7.11 g/m*3 6.8 C 0 km/h
1908 07-05-2010 21:47:02 6.7 C 7.07 g/m*3 6.7 C 0 km/h
1909 07-05-2010 21:59:02 6.4 C 6.93 g/m*3 6.4 C 0 km/h
1910 07-05-2010 22:11:02 6.1 C 6.79 g/m*3 6.1 C 0 km/h
1911 07-05-2010 22:23:02 5.9 C 6.71 g/m*3 5.9 C 0 km/h
1912 07-05-2010 22:35:02 5.7 C 6.62 g/m*3 5.7 C 0 km/h
1913 07-05-2010 22:47:02 5.6 C 6.57 g/m*3 5.6 C 0 km/h
1914 07-05-2010 22:59:02 5.7 C 6.69 g/m*3 5.7 C 0 km/h
1915 07-05-2010 23:11:01 5.9 C 6.78 g/m*3 5.9 C 0 km/h
1916 07-05-2010 23:23:02 5.9 C 6.78 g/m*3 5.9 C 0 km/h
1917 07-05-2010 23:35:02 5.9 C 6.85 g/m*3 5.9 C 0 km/h
1918 07-05-2010 23:47:02 6 C 6.82 g/m*3 6 C 0 km/h
1919 07-05-2010 23:59:03 6.1 C 6.87 g/m*3 6.1 C 0 km/h
1920 08-05-2010 00:11:01 6.2 C 6.91 g/m*3 6.2 C 0 km/h
1921 08-05-2010 00:23:02 6.2 C 6.91 g/m*3 6.2 C 0 km/h
1922 08-05-2010 00:35:01 6 C 6.82 g/m*3 6 C 0 km/h
1923 08-05-2010 00:47:02 5.6 C 6.65 g/m*3 5.6 C 0 km/h
1924 08-05-2010 00:59:02 5.5 C 6.6 g/m*3 5.5 C 0 km/h
1925 08-05-2010 01:11:02 5.4 C 6.56 g/m*3 5.4 C 0 km/h
Sensor: Nr:Datum:Temp:Abs-Feuchte:Windchill:Wind:
Aussen-T/F 1926 08-05-2010 01:23:02 5.1 C 6.43 g/m*3 5.1 C 0 km/h
1927 08-05-2010 01:35:02 4.9 C 6.35 g/m*3 4.9 C 0 km/h
1928 08-05-2010 01:47:02 4.7 C 6.26 g/m*3 4.7 C 0 km/h
1929 08-05-2010 01:59:02 4.7 C 6.33 g/m*3 4.7 C 0 km/h
1930 08-05-2010 02:11:01 4.5 C 6.18 g/m*3 4.5 C 0 km/h
1931 08-05-2010 02:23:02 4.5 C 6.24 g/m*3 4.5 C 0 km/h
1932 08-05-2010 02:35:02 4.6 C 6.29 g/m*3 4.6 C 0 km/h
1933 08-05-2010 02:48:03 4.4 C 6.2 g/m*3 4.4 C 0 km/h
1934 08-05-2010 03:00:03 4.5 C 6.24 g/m*3 4.5 C 0 km/h
1935 08-05-2010 03:12:03 4.6 C 6.29 g/m*3 4.6 C 0 km/h
1936 08-05-2010 03:24:03 4.7 C 6.33 g/m*3 4.7 C 0 km/h
1937 08-05-2010 03:36:02 4.6 C 6.29 g/m*3 4.6 C 0 km/h
1938 08-05-2010 03:48:02 4.6 C 6.29 g/m*3 4.6 C 0 km/h
1939 08-05-2010 04:00:02 4.7 C 6.33 g/m*3 4.7 C 0 km/h
1940 08-05-2010 04:12:02 4.6 C 6.29 g/m*3 4.6 C 0 km/h
1941 08-05-2010 04:24:02 4.4 C 6.2 g/m*3 4.4 C 0 km/h
1942 08-05-2010 04:36:02 4 C 6.04 g/m*3 4 C 0 km/h
1943 08-05-2010 04:48:02 4 C 6.04 g/m*3 4 C 0 km/h
1944 08-05-2010 05:00:02 4.1 C 6.08 g/m*3 4.1 C 0 km/h
1945 08-05-2010 05:12:01 4.2 C 6.12 g/m*3 4.2 C 0 km/h
1946 08-05-2010 05:24:02 4.4 C 6.2 g/m*3 4.4 C 0 km/h
1947 08-05-2010 05:36:02 4.5 C 6.24 g/m*3 4.5 C 0 km/h
1948 08-05-2010 05:48:02 4.5 C 6.24 g/m*3 4.5 C 0 km/h
1949 08-05-2010 06:00:02 4.5 C 6.24 g/m*3 4.5 C 0 km/h
1950 08-05-2010 06:12:03 4.6 C 6.29 g/m*3 4.6 C 0 km/h
Sensor: Nr:Datum:Temp:Abs-Feuchte:Windchill:Wind:
Aussen-T/F 1951 08-05-2010 06:24:02 4.6 C 6.29 g/m*3 4.6 C 0 km/h
1952 08-05-2010 06:36:02 4.8 C 6.37 g/m*3 4.8 C 0 km/h
1953 08-05-2010 06:48:01 4.8 C 6.37 g/m*3 4.8 C 0 km/h
1954 08-05-2010 07:00:01 4.8 C 6.37 g/m*3 4.8 C 0 km/h
1955 08-05-2010 07:12:02 5 C 6.46 g/m*3 5 C 0 km/h
1956 08-05-2010 07:24:01 5.2 C 6.54 g/m*3 5.2 C 0 km/h
1957 08-05-2010 07:36:01 5.5 C 6.67 g/m*3 5.5 C 0 km/h
1958 08-05-2010 07:48:01 5.6 C 6.72 g/m*3 5.6 C 0 km/h
1959 08-05-2010 08:00:01 5.9 C 6.78 g/m*3 5.9 C 0 km/h
1960 08-05-2010 08:12:02 6 C 6.68 g/m*3 6 C 0 km/h
1961 08-05-2010 08:24:01 5.8 C 6.52 g/m*3 5.8 C 0 km/h
1962 08-05-2010 08:36:01 6.2 C 6.55 g/m*3 6.2 C 0 km/h
1963 08-05-2010 08:48:01 6.5 C 6.6 g/m*3 6.5 C 0 km/h
1964 08-05-2010 09:00:01 7.3 C 6.87 g/m*3 7.3 C 0 km/h
1965 08-05-2010 09:12:02 8 C 7.03 g/m*3 8 C 0 km/h
1966 08-05-2010 09:24:01 8.1 C 6.82 g/m*3 8.1 C 0 km/h
1967 08-05-2010 09:36:01 8.7 C 7.01 g/m*3 8.7 C 0 km/h
1968 08-05-2010 09:48:01 9.2 C 7.05 g/m*3 9.2 C 0 km/h
1969 08-05-2010 10:00:01 9.1 C 6.74 g/m*3 9.1 C 0 km/h
1970 08-05-2010 10:12:02 9.1 C 6.57 g/m*3 9.1 C 0 km/h
1971 08-05-2010 10:24:01 9.6 C 6.87 g/m*3 9.6 C 0 km/h
1972 08-05-2010 10:36:01 10.1 C 6.9 g/m*3 10.1 C 0 km/h
1973 08-05-2010 10:48:01 10.4 C 7.04 g/m*3 10.4 C 0 km/h
1974 08-05-2010 11:00:01 11.2 C 7.3 g/m*3 11.2 C 0 km/h
1975 08-05-2010 11:12:02 12.1 C 7.18 g/m*3 12.1 C 0 km/h
Sensor: Nr:Datum:Temp:Abs-Feuchte:Windchill:Wind:
Aussen-T/F 1976 08-05-2010 11:24:01 12.8 C 7.06 g/m*3 12.8 C 0 km/h
1977 08-05-2010 11:36:01 14.1 C 6.31 g/m*3 14.1 C 0 km/h
1978 08-05-2010 11:48:01 15.1 C 5.55 g/m*3 15.1 C 0 km/h
1979 08-05-2010 12:00:01 14.8 C 5.32 g/m*3 14.8 C 0 km/h
1980 08-05-2010 12:12:01 14.5 C 4.97 g/m*3 14.5 C 0 km/h
1981 08-05-2010 12:24:02 15.6 C 5.19 g/m*3 15.6 C 0 km/h
1982 08-05-2010 12:36:01 15 C 4.74 g/m*3 15 C 0 km/h
1983 08-05-2010 12:48:03 16.3 C 5.13 g/m*3 16.3 C 0 km/h
1984 08-05-2010 13:00:03 16.5 C 5.2 g/m*3 16.5 C 0 km/h
1985 08-05-2010 13:12:02 16 C 5.31 g/m*3 16 C 0 km/h
1986 08-05-2010 13:24:02 15.8 C 5.25 g/m*3 15.8 C 0 km/h
1987 08-05-2010 13:36:02 17.5 C 5.37 g/m*3 17.5 C 0 km/h
1988 08-05-2010 13:48:02 18.4 C 4.88 g/m*3 18.4 C 0 km/h
1989 08-05-2010 14:00:02 16.4 C 4.19 g/m*3 16.4 C 0 km/h
1990 08-05-2010 14:12:02 15.5 C 4.1 g/m*3 15.5 C 0 km/h
1991 08-05-2010 14:24:02 15 C 4.36 g/m*3 15 C 0 km/h
1992 08-05-2010 14:36:01 15.6 C 4.39 g/m*3 15.6 C 0 km/h
1993 08-05-2010 14:48:02 15.6 C 4.12 g/m*3 15.6 C 0 km/h
1994 08-05-2010 15:00:02 16 C 4.22 g/m*3 16 C 0 km/h
1995 08-05-2010 15:12:01 16.1 C 4.25 g/m*3 16.1 C 0 km/h
1996 08-05-2010 15:24:02 16 C 4.36 g/m*3 16 C 0 km/h
1997 08-05-2010 15:36:02 16 C 4.36 g/m*3 16 C 0 km/h
1998 08-05-2010 15:48:02 15.5 C 4.63 g/m*3 15.5 C 0 km/h
1999 08-05-2010 16:00:02 16.4 C 4.61 g/m*3 16.4 C 0 km/h
2000 08-05-2010 16:12:03 16.6 C 4.38 g/m*3 16.6 C 0 km/h
Sensor: Nr:Datum:Temp:Abs-Feuchte:Windchill:Wind:
Aussen-T/F 2001 08-05-2010 16:24:02 16.4 C 4.47 g/m*3 16.4 C 0 km/h
2002 08-05-2010 16:36:02 17.5 C 4.32 g/m*3 17.5 C 0 km/h
2003 08-05-2010 16:48:01 17.6 C 4.2 g/m*3 17.6 C 0 km/h
2004 08-05-2010 17:00:01 17.4 C 4.15 g/m*3 17.4 C 0 km/h
2005 08-05-2010 17:12:02 17.5 C 4.17 g/m*3 17.5 C 0 km/h
2006 08-05-2010 17:24:01 18.5 C 4.27 g/m*3 18.5 C 0 km/h
2007 08-05-2010 17:36:02 17.9 C 4.12 g/m*3 17.9 C 0 km/h
2008 08-05-2010 17:48:01 18.7 C 4.16 g/m*3 18.7 C 0 km/h
2009 08-05-2010 18:00:01 19.2 C 4.12 g/m*3 19.2 C 0 km/h
2010 08-05-2010 18:12:02 19.9 C 3.95 g/m*3 19.9 C 0 km/h
2011 08-05-2010 18:24:01 19.4 C 4 g/m*3 19.4 C 0 km/h
2012 08-05-2010 18:36:02 19.5 C 4.2 g/m*3 19.5 C 0 km/h
2013 08-05-2010 18:48:01 19.8 C 4.27 g/m*3 19.8 C 0 km/h
2014 08-05-2010 19:00:01 19.1 C 4.1 g/m*3 19.1 C 0 km/h
2015 08-05-2010 19:12:02 18.8 C 4.03 g/m*3 18.8 C 0 km/h
2016 08-05-2010 19:24:02 18.4 C 4.25 g/m*3 18.4 C 0 km/h
2017 08-05-2010 19:36:02 17.5 C 4.47 g/m*3 17.5 C 0 km/h
2018 08-05-2010 19:48:01 17.6 C 4.65 g/m*3 17.6 C 0 km/h
2019 08-05-2010 20:00:01 17.3 C 5.16 g/m*3 17.3 C 0 km/h
2020 08-05-2010 20:12:02 16.5 C 6.04 g/m*3 16.5 C 0 km/h
2021 08-05-2010 20:24:02 15.7 C 6.42 g/m*3 15.7 C 0 km/h
2022 08-05-2010 20:36:02 15.1 C 6.06 g/m*3 15.1 C 0 km/h
2023 08-05-2010 20:48:01 14.3 C 6.02 g/m*3 14.3 C 0 km/h
2024 08-05-2010 21:00:01 13.8 C 5.96 g/m*3 13.8 C 0 km/h
2025 08-05-2010 21:12:02 13.5 C 6.08 g/m*3 13.5 C 0 km/h
Sensor: Nr:Datum:Temp:Abs-Feuchte:Windchill:Wind:
Aussen-T/F 2026 08-05-2010 21:24:02 13.5 C 6.43 g/m*3 13.5 C 0 km/h
2027 08-05-2010 21:36:02 13.5 C 6.08 g/m*3 13.5 C 0 km/h
2028 08-05-2010 21:48:02 12.9 C 5.97 g/m*3 12.9 C 0 km/h
2029 08-05-2010 22:00:02 12.4 C 5.9 g/m*3 12.4 C 0 km/h
2030 08-05-2010 22:12:02 11.9 C 6.04 g/m*3 11.9 C 0 km/h
2031 08-05-2010 22:24:02 11.7 C 5.86 g/m*3 11.7 C 0 km/h
2032 08-05-2010 22:36:01 11.8 C 6.21 g/m*3 11.8 C 0 km/h
2033 08-05-2010 22:48:02 12 C 6.39 g/m*3 12 C 0 km/h
2034 08-05-2010 23:00:02 11.8 C 6.21 g/m*3 11.8 C 0 km/h
2035 08-05-2010 23:12:01 11.6 C 6.34 g/m*3 11.6 C 0 km/h
2036 08-05-2010 23:24:02 11 C 6.21 g/m*3 11 C 0 km/h
2037 08-05-2010 23:36:01 10.6 C 6.25 g/m*3 10.6 C 0 km/h
2038 08-05-2010 23:48:02 10.3 C 6.22 g/m*3 10.3 C 0 km/h
2039 09-05-2010 00:00:02 10.2 C 6.38 g/m*3 10.2 C 0 km/h
2040 09-05-2010 00:12:02 10 C 6.39 g/m*3 10 C 0 km/h
2041 09-05-2010 00:24:03 9.8 C 6.49 g/m*3 9.8 C 0 km/h
2042 09-05-2010 00:36:02 9.6 C 6.41 g/m*3 9.6 C 0 km/h
2043 09-05-2010 00:48:02 9.4 C 6.42 g/m*3 9.4 C 0 km/h
2044 09-05-2010 01:00:02 9.1 C 6.39 g/m*3 9.1 C 0 km/h
2045 09-05-2010 01:12:02 9 C 6.52 g/m*3 9 C 0 km/h
2046 09-05-2010 01:24:03 8.7 C 6.49 g/m*3 8.7 C 0 km/h
2047 09-05-2010 01:36:02 8.6 C 6.44 g/m*3 8.6 C 0 km/h
2048 09-05-2010 01:48:03 8.7 C 6.57 g/m*3 8.7 C 0 km/h
2049 09-05-2010 02:00:03 8.8 C 6.7 g/m*3 8.8 C 0 km/h
2050 09-05-2010 02:12:02 8.7 C 6.66 g/m*3 8.7 C 0 km/h
Sensor: Nr:Datum:Temp:Abs-Feuchte:Windchill:Wind:
Aussen-T/F 2051 09-05-2010 02:24:02 8.7 C 6.66 g/m*3 8.7 C 0 km/h
2052 09-05-2010 02:36:02 8.4 C 6.53 g/m*3 8.4 C 0 km/h
2053 09-05-2010 02:49:04 8.5 C 6.57 g/m*3 8.5 C 0 km/h
2054 09-05-2010 03:01:04 8.5 C 6.66 g/m*3 8.5 C 0 km/h
2055 09-05-2010 03:13:03 8.3 C 6.57 g/m*3 8.3 C 0 km/h
2056 09-05-2010 03:25:03 8.5 C 6.66 g/m*3 8.5 C 0 km/h
2057 09-05-2010 03:37:01 8.5 C 6.66 g/m*3 8.5 C 0 km/h
2058 09-05-2010 03:49:01 8.5 C 6.66 g/m*3 8.5 C 0 km/h
2059 09-05-2010 04:01:01 8.6 C 6.7 g/m*3 8.6 C 0 km/h
2060 09-05-2010 04:13:01 8.6 C 6.7 g/m*3 8.6 C 0 km/h
2061 09-05-2010 04:25:02 8.5 C 6.66 g/m*3 8.5 C 0 km/h
2062 09-05-2010 04:37:01 8.5 C 6.66 g/m*3 8.5 C 0 km/h
2063 09-05-2010 04:49:03 8.3 C 6.57 g/m*3 8.3 C 0 km/h
2064 09-05-2010 05:01:02 8 C 6.45 g/m*3 8 C 0 km/h
2065 09-05-2010 05:13:02 7.8 C 6.53 g/m*3 7.8 C 0 km/h
2066 09-05-2010 05:25:02 7.6 C 6.53 g/m*3 7.6 C 0 km/h
2067 09-05-2010 05:37:02 7.4 C 6.52 g/m*3 7.4 C 0 km/h
2068 09-05-2010 05:49:02 7.4 C 6.52 g/m*3 7.4 C 0 km/h
2069 09-05-2010 06:01:02 7.6 C 6.69 g/m*3 7.6 C 0 km/h
2070 09-05-2010 06:13:02 7.9 C 6.82 g/m*3 7.9 C 0 km/h
2071 09-05-2010 06:25:02 8 C 6.7 g/m*3 8 C 0 km/h
2072 09-05-2010 06:37:02 8.1 C 6.74 g/m*3 8.1 C 0 km/h
2073 09-05-2010 06:49:02 8.3 C 6.83 g/m*3 8.3 C 0 km/h
2074 09-05-2010 07:01:02 8.5 C 6.92 g/m*3 8.5 C 0 km/h
2075 09-05-2010 07:13:02 8.6 C 6.87 g/m*3 8.6 C 0 km/h
Sensor: Nr:Datum:Temp:Abs-Feuchte:Windchill:Wind:
Aussen-T/F 2076 09-05-2010 07:25:01 8.7 C 6.83 g/m*3 8.7 C 0 km/h
2077 09-05-2010 07:37:02 9.1 C 6.92 g/m*3 9.1 C 0 km/h
2078 09-05-2010 07:49:02 9.1 C 6.83 g/m*3 9.1 C 0 km/h
2079 09-05-2010 08:01:02 9.6 C 6.96 g/m*3 9.6 C 0 km/h
2080 09-05-2010 08:13:02 9.6 C 6.96 g/m*3 9.6 C 0 km/h
2081 09-05-2010 08:25:02 9.6 C 6.87 g/m*3 9.6 C 0 km/h
2082 09-05-2010 08:37:02 10 C 7.05 g/m*3 10 C 0 km/h
2083 09-05-2010 08:49:02 10.4 C 7.04 g/m*3 10.4 C 0 km/h
2084 09-05-2010 09:01:02 10.8 C 7.02 g/m*3 10.8 C 0 km/h
2085 09-05-2010 09:13:02 10.9 C 7.16 g/m*3 10.9 C 0 km/h
2086 09-05-2010 09:25:02 11.1 C 6.95 g/m*3 11.1 C 0 km/h
2087 09-05-2010 09:37:03 11.7 C 7.11 g/m*3 11.7 C 0 km/h
2088 09-05-2010 09:49:02 12 C 6.93 g/m*3 12 C 0 km/h
2089 09-05-2010 10:01:01 12.4 C 6.99 g/m*3 12.4 C 0 km/h
2090 09-05-2010 10:13:01 12.7 C 7.12 g/m*3 12.7 C 0 km/h
2091 09-05-2010 10:25:01 12.2 C 7.23 g/m*3 12.2 C 0 km/h
2092 09-05-2010 10:37:02 12.2 C 7.55 g/m*3 12.2 C 0 km/h
2093 09-05-2010 10:49:02 12 C 7.35 g/m*3 12 C 0 km/h
2094 09-05-2010 11:01:01 12.2 C 7.55 g/m*3 12.2 C 0 km/h
2095 09-05-2010 11:13:01 12.4 C 7.54 g/m*3 12.4 C 0 km/h
2096 09-05-2010 11:25:02 12.3 C 7.38 g/m*3 12.3 C 0 km/h
2097 09-05-2010 11:37:01 12.3 C 7.28 g/m*3 12.3 C 0 km/h
2098 09-05-2010 11:49:02 12.2 C 7.23 g/m*3 12.2 C 0 km/h
2099 09-05-2010 12:01:02 12.3 C 7.28 g/m*3 12.3 C 0 km/h
2100 09-05-2010 12:13:02 13 C 7.37 g/m*3 13 C 0 km/h
Sensor: Nr:Datum:Temp:Abs-Feuchte:Windchill:Wind:
Aussen-T/F 2101 09-05-2010 12:25:02 13.4 C 7.21 g/m*3 13.4 C 0 km/h
2102 09-05-2010 12:37:02 14 C 7.24 g/m*3 14 C 0 km/h
2103 09-05-2010 12:49:02 14.4 C 7.17 g/m*3 14.4 C 0 km/h
2104 09-05-2010 13:01:01 15 C 6.92 g/m*3 15 C 0 km/h
2105 09-05-2010 13:13:01 16.2 C 7.03 g/m*3 16.2 C 0 km/h
2106 09-05-2010 13:25:01 17.2 C 6.59 g/m*3 17.2 C 0 km/h
2107 09-05-2010 13:37:02 18.5 C 6.33 g/m*3 18.5 C 0 km/h
2108 09-05-2010 13:49:02 18.2 C 6.22 g/m*3 18.2 C 0 km/h
2109 09-05-2010 14:01:02 17.9 C 6.11 g/m*3 17.9 C 0 km/h
2110 09-05-2010 14:13:02 17.5 C 6.11 g/m*3 17.5 C 0 km/h
2111 09-05-2010 14:25:02 16.7 C 6.11 g/m*3 16.7 C 0 km/h
2112 09-05-2010 14:37:01 16.7 C 6.11 g/m*3 16.7 C 0 km/h
2113 09-05-2010 14:49:02 17 C 6.22 g/m*3 17 C 0 km/h
2114 09-05-2010 15:01:01 17 C 6.22 g/m*3 17 C 0 km/h
2115 09-05-2010 15:13:01 17.3 C 6.33 g/m*3 17.3 C 0 km/h
2116 09-05-2010 15:25:02 17.6 C 6.3 g/m*3 17.6 C 0 km/h
2117 09-05-2010 15:37:01 17.8 C 6.37 g/m*3 17.8 C 0 km/h
2118 09-05-2010 15:49:03 17.9 C 6.26 g/m*3 17.9 C 0 km/h
2119 09-05-2010 16:01:02 18 C 6.3 g/m*3 18 C 0 km/h
2120 09-05-2010 16:13:02 18.7 C 6.4 g/m*3 18.7 C 0 km/h
2121 09-05-2010 16:25:02 19.1 C 6.23 g/m*3 19.1 C 0 km/h
2122 09-05-2010 16:37:02 18.7 C 6.08 g/m*3 18.7 C 0 km/h
2123 09-05-2010 16:49:02 18 C 5.68 g/m*3 18 C 0 km/h
2124 09-05-2010 17:01:02 17.8 C 5.77 g/m*3 17.8 C 0 km/h
2125 09-05-2010 17:13:02 19.6 C 5.74 g/m*3 19.6 C 0 km/h
Sensor: Nr:Datum:Temp:Abs-Feuchte:Windchill:Wind:
Aussen-T/F 2126 09-05-2010 17:25:02 19.5 C 5.03 g/m*3 19.5 C 0 km/h
2127 09-05-2010 17:37:02 19.1 C 5.41 g/m*3 19.1 C 0 km/h
2128 09-05-2010 17:49:02 19.4 C 5.17 g/m*3 19.4 C 0 km/h
2129 09-05-2010 18:01:02 19.5 C 5.71 g/m*3 19.5 C 0 km/h
2130 09-05-2010 18:13:02 18.9 C 5.67 g/m*3 18.9 C 0 km/h
2131 09-05-2010 18:25:03 18.7 C 5.76 g/m*3 18.7 C 0 km/h
2132 09-05-2010 18:37:02 18.3 C 5.79 g/m*3 18.3 C 0 km/h
2133 09-05-2010 18:49:03 18.1 C 6.03 g/m*3 18.1 C 0 km/h
2134 09-05-2010 19:01:02 17.6 C 6.6 g/m*3 17.6 C 0 km/h
2135 09-05-2010 19:13:03 17 C 6.8 g/m*3 17 C 0 km/h
2136 09-05-2010 19:25:02 17 C 6.95 g/m*3 17 C 0 km/h
2137 09-05-2010 19:37:02 16.6 C 6.92 g/m*3 16.6 C 0 km/h
2138 09-05-2010 19:49:01 16.2 C 6.9 g/m*3 16.2 C 0 km/h
2139 09-05-2010 20:01:02 15.8 C 7 g/m*3 15.8 C 0 km/h
2140 09-05-2010 20:13:02 15.2 C 6.88 g/m*3 15.2 C 0 km/h
2141 09-05-2010 20:25:01 14.8 C 6.84 g/m*3 14.8 C 0 km/h
2142 09-05-2010 20:37:01 14.3 C 6.88 g/m*3 14.3 C 0 km/h
2143 09-05-2010 20:49:01 14 C 6.75 g/m*3 14 C 0 km/h
2144 09-05-2010 21:01:02 13.4 C 6.97 g/m*3 13.4 C 0 km/h
2145 09-05-2010 21:13:02 12.8 C 7.06 g/m*3 12.8 C 0 km/h
2146 09-05-2010 21:25:02 12.5 C 7.15 g/m*3 12.5 C 0 km/h
2147 09-05-2010 21:37:02 12.1 C 7.08 g/m*3 12.1 C 0 km/h
2148 09-05-2010 21:49:02 11.7 C 7.11 g/m*3 11.7 C 0 km/h
2149 09-05-2010 22:01:03 11.5 C 7.13 g/m*3 11.5 C 0 km/h
2150 09-05-2010 22:13:03 11.3 C 7.14 g/m*3 11.3 C 0 km/h
Sensor: Nr:Datum:Temp:Abs-Feuchte:Windchill:Wind:
Aussen-T/F 2151 09-05-2010 22:25:02 11.1 C 7.05 g/m*3 11.1 C 0 km/h
2152 09-05-2010 22:38:04 10.9 C 6.96 g/m*3 10.9 C 0 km/h
2153 09-05-2010 22:50:04 10.8 C 7.02 g/m*3 10.8 C 0 km/h
2154 09-05-2010 23:02:04 10.8 C 7.12 g/m*3 10.8 C 0 km/h
2155 09-05-2010 23:14:04 10.9 C 7.06 g/m*3 10.9 C 0 km/h
2156 09-05-2010 23:26:05 10.7 C 7.07 g/m*3 10.7 C 0 km/h
2157 09-05-2010 23:38:05 10.8 C 7.22 g/m*3 10.8 C 0 km/h
2158 09-05-2010 23:50:05 10.5 C 7.08 g/m*3 10.5 C 0 km/h
2159 10-05-2010 00:02:05 10.4 C 7.13 g/m*3 10.4 C 0 km/h
2160 10-05-2010 00:14:05 10.5 C 7.18 g/m*3 10.5 C 0 km/h
2161 10-05-2010 00:26:05 10.3 C 7.09 g/m*3 10.3 C 0 km/h
2162 10-05-2010 00:38:05 10.1 C 7.09 g/m*3 10.1 C 0 km/h
2163 10-05-2010 00:50:05 9.8 C 7.24 g/m*3 9.8 C 0 km/h
2164 10-05-2010 01:02:05 9.8 C 7.24 g/m*3 9.8 C 0 km/h
2165 10-05-2010 01:14:05 9.8 C 7.33 g/m*3 9.8 C 0 km/h
2166 10-05-2010 01:26:05 9.9 C 7.38 g/m*3 9.9 C 0 km/h
2167 10-05-2010 01:38:05 10 C 7.24 g/m*3 10 C 0 km/h
2168 10-05-2010 01:50:05 9.8 C 7.24 g/m*3 9.8 C 0 km/h
2169 10-05-2010 02:02:05 9.7 C 7.19 g/m*3 9.7 C 0 km/h
2170 10-05-2010 02:14:05 9.5 C 7.19 g/m*3 9.5 C 0 km/h
2171 10-05-2010 02:26:05 9.4 C 7.24 g/m*3 9.4 C 0 km/h
2172 10-05-2010 02:38:05 9.4 C 7.24 g/m*3 9.4 C 0 km/h
2173 10-05-2010 02:50:05 9.4 C 7.33 g/m*3 9.4 C 0 km/h
2174 10-05-2010 03:02:05 9.2 C 7.23 g/m*3 9.2 C 0 km/h
2175 10-05-2010 03:14:05 9 C 7.14 g/m*3 9 C 0 km/h
Sensor: Nr:Datum:Temp:Abs-Feuchte:Windchill:Wind:
Aussen-T/F 2176 10-05-2010 03:26:05 8.8 C 7.14 g/m*3 8.8 C 0 km/h
2177 10-05-2010 03:38:05 8.7 C 7.18 g/m*3 8.7 C 0 km/h
2178 10-05-2010 03:50:06 8.7 C 7.26 g/m*3 8.7 C 0 km/h
2179 10-05-2010 04:02:06 8.6 C 7.22 g/m*3 8.6 C 0 km/h
2180 10-05-2010 04:14:06 8.6 C 7.22 g/m*3 8.6 C 0 km/h
2181 10-05-2010 04:26:06 8.6 C 7.3 g/m*3 8.6 C 0 km/h
2182 10-05-2010 04:38:06 8.6 C 7.3 g/m*3 8.6 C 0 km/h
2183 10-05-2010 04:50:06 8.7 C 7.26 g/m*3 8.7 C 0 km/h
2184 10-05-2010 05:02:06 8.6 C 7.22 g/m*3 8.6 C 0 km/h
2185 10-05-2010 05:14:06 8.6 C 7.22 g/m*3 8.6 C 0 km/h
2186 10-05-2010 05:26:06 8.6 C 7.3 g/m*3 8.6 C 0 km/h
2187 10-05-2010 05:38:06 8.7 C 7.35 g/m*3 8.7 C 0 km/h
2188 10-05-2010 05:50:06 8.8 C 7.31 g/m*3 8.8 C 0 km/h
2189 10-05-2010 06:02:06 8.7 C 7.26 g/m*3 8.7 C 0 km/h
2190 10-05-2010 06:14:06 8.7 C 7.26 g/m*3 8.7 C 0 km/h
2191 10-05-2010 06:26:06 8.8 C 7.31 g/m*3 8.8 C 0 km/h
2192 10-05-2010 06:38:04 8.9 C 7.36 g/m*3 8.9 C 0 km/h
2193 10-05-2010 06:50:02 9 C 7.32 g/m*3 9 C 0 km/h
2194 10-05-2010 07:02:02 9.1 C 7.36 g/m*3 9.1 C 0 km/h
2195 10-05-2010 07:14:02 9.4 C 7.51 g/m*3 9.4 C 0 km/h
2196 10-05-2010 07:26:01 9.6 C 7.6 g/m*3 9.6 C 0 km/h
2197 10-05-2010 07:38:02 9.8 C 7.7 g/m*3 9.8 C 0 km/h
2198 10-05-2010 07:50:02 10.2 C 7.71 g/m*3 10.2 C 0 km/h
2199 10-05-2010 08:02:02 10.5 C 7.76 g/m*3 10.5 C 0 km/h
2200 10-05-2010 08:14:02 10.6 C 7.71 g/m*3 10.6 C 0 km/h
Sensor: Nr:Datum:Temp:Abs-Feuchte:Windchill:Wind:
Aussen-T/F 2201 10-05-2010 08:26:02 10.7 C 7.66 g/m*3 10.7 C 0 km/h
2202 10-05-2010 08:38:02 10.7 C 7.46 g/m*3 10.7 C 0 km/h
2203 10-05-2010 08:50:02 10.7 C 7.37 g/m*3 10.7 C 0 km/h
2204 10-05-2010 09:02:02 10.8 C 7.41 g/m*3 10.8 C 0 km/h
2205 10-05-2010 09:14:03 10.8 C 7.22 g/m*3 10.8 C 0 km/h
2206 10-05-2010 09:26:02 10.7 C 7.27 g/m*3 10.7 C 0 km/h
2207 10-05-2010 09:38:02 11 C 7.21 g/m*3 11 C 0 km/h
2208 10-05-2010 09:50:02 11.1 C 7.25 g/m*3 11.1 C 0 km/h
2209 10-05-2010 10:02:02 11.1 C 7.15 g/m*3 11.1 C 0 km/h
2210 10-05-2010 10:14:02 11.4 C 7.08 g/m*3 11.4 C 0 km/h
2211 10-05-2010 10:26:03 11.2 C 7.1 g/m*3 11.2 C 0 km/h
2212 10-05-2010 10:38:02 11.6 C 7.17 g/m*3 11.6 C 0 km/h
2213 10-05-2010 10:50:02 11.4 C 6.98 g/m*3 11.4 C 0 km/h
2214 10-05-2010 11:02:02 11.5 C 7.13 g/m*3 11.5 C 0 km/h
2215 10-05-2010 11:14:02 11.5 C 7.02 g/m*3 11.5 C 0 km/h
2216 10-05-2010 11:26:02 11.5 C 7.02 g/m*3 11.5 C 0 km/h
2217 10-05-2010 11:38:02 11.3 C 7.04 g/m*3 11.3 C 0 km/h
2218 10-05-2010 11:50:02 11.7 C 7.22 g/m*3 11.7 C 0 km/h
2219 10-05-2010 12:02:03 11.7 C 7.11 g/m*3 11.7 C 0 km/h
2220 10-05-2010 12:14:03 11.6 C 6.96 g/m*3 11.6 C 0 km/h
2221 10-05-2010 12:26:02 12.7 C 7.01 g/m*3 12.7 C 0 km/h
2222 10-05-2010 12:38:03 12.9 C 6.76 g/m*3 12.9 C 0 km/h
2223 10-05-2010 12:50:02 14.1 C 6.8 g/m*3 14.1 C 0 km/h
2224 10-05-2010 13:02:02 13.5 C 6.43 g/m*3 13.5 C 0 km/h
2225 10-05-2010 13:14:02 13.5 C 6.43 g/m*3 13.5 C 0 km/h
Sensor: Nr:Datum:Temp:Abs-Feuchte:Windchill:Wind:
Aussen-T/F 2226 10-05-2010 13:26:01 14.7 C 6.17 g/m*3 14.7 C 0 km/h
2227 10-05-2010 13:38:02 15.3 C 6.4 g/m*3 15.3 C 0 km/h
2228 10-05-2010 13:50:02 15.4 C 6.18 g/m*3 15.4 C 0 km/h
2229 10-05-2010 14:02:02 15.3 C 6.01 g/m*3 15.3 C 0 km/h
2230 10-05-2010 14:14:02 15.5 C 6.08 g/m*3 15.5 C 0 km/h
2231 10-05-2010 14:26:02 14.8 C 5.95 g/m*3 14.8 C 0 km/h
2232 10-05-2010 14:38:02 14.7 C 5.92 g/m*3 14.7 C 0 km/h
2233 10-05-2010 14:50:02 14.7 C 5.92 g/m*3 14.7 C 0 km/h
2234 10-05-2010 15:02:02 15 C 5.77 g/m*3 15 C 0 km/h
2235 10-05-2010 15:14:02 15.4 C 5.78 g/m*3 15.4 C 0 km/h
2236 10-05-2010 15:26:02 15.1 C 5.93 g/m*3 15.1 C 0 km/h
2237 10-05-2010 15:38:02 15.3 C 5.62 g/m*3 15.3 C 0 km/h
2238 10-05-2010 15:50:02 14.7 C 5.79 g/m*3 14.7 C 0 km/h
2239 10-05-2010 16:02:02 15.2 C 5.84 g/m*3 15.2 C 0 km/h
2240 10-05-2010 16:14:02 15.8 C 5.79 g/m*3 15.8 C 0 km/h
2241 10-05-2010 16:26:02 15.7 C 5.49 g/m*3 15.7 C 0 km/h
2242 10-05-2010 16:38:02 16.2 C 5.52 g/m*3 16.2 C 0 km/h
2243 10-05-2010 16:50:02 16.3 C 5.13 g/m*3 16.3 C 0 km/h
2244 10-05-2010 17:02:02 15.5 C 5.42 g/m*3 15.5 C 0 km/h
2245 10-05-2010 17:14:02 15.6 C 5.45 g/m*3 15.6 C 0 km/h
2246 10-05-2010 17:26:02 16 C 5.31 g/m*3 16 C 0 km/h
2247 10-05-2010 17:38:02 16 C 5.31 g/m*3 16 C 0 km/h
2248 10-05-2010 17:50:01 15.8 C 5.38 g/m*3 15.8 C 0 km/h
2249 10-05-2010 18:02:02 16.4 C 5.02 g/m*3 16.4 C 0 km/h
2250 10-05-2010 18:14:02 17.3 C 5.01 g/m*3 17.3 C 0 km/h
Sensor: Nr:Datum:Temp:Abs-Feuchte:Windchill:Wind:
Aussen-T/F 2251 10-05-2010 18:26:02 17.6 C 5.1 g/m*3 17.6 C 0 km/h
2252 10-05-2010 18:38:01 17.1 C 4.66 g/m*3 17.1 C 0 km/h
2253 10-05-2010 18:50:02 15.8 C 4.71 g/m*3 15.8 C 0 km/h
2254 10-05-2010 19:02:01 15.4 C 4.73 g/m*3 15.4 C 0 km/h
2255 10-05-2010 19:14:01 15.6 C 4.92 g/m*3 15.6 C 0 km/h
2256 10-05-2010 19:26:02 14.9 C 4.97 g/m*3 14.9 C 0 km/h
2257 10-05-2010 19:38:01 14.7 C 5.04 g/m*3 14.7 C 0 km/h
2258 10-05-2010 19:50:02 14.5 C 5.1 g/m*3 14.5 C 0 km/h
2259 10-05-2010 20:02:01 14.5 C 4.97 g/m*3 14.5 C 0 km/h
2260 10-05-2010 20:14:01 14.5 C 4.97 g/m*3 14.5 C 0 km/h
2261 10-05-2010 20:26:02 14.3 C 5.04 g/m*3 14.3 C 0 km/h
2262 10-05-2010 20:38:01 13.7 C 5.09 g/m*3 13.7 C 0 km/h
2263 10-05-2010 20:50:02 13.1 C 5.14 g/m*3 13.1 C 0 km/h
2264 10-05-2010 21:02:02 12.8 C 5.38 g/m*3 12.8 C 0 km/h
2265 10-05-2010 21:14:02 12.3 C 5.43 g/m*3 12.3 C 0 km/h
2266 10-05-2010 21:26:02 11.9 C 5.51 g/m*3 11.9 C 0 km/h
2267 10-05-2010 21:38:02 11.6 C 5.4 g/m*3 11.6 C 0 km/h
2268 10-05-2010 21:50:02 11.5 C 5.58 g/m*3 11.5 C 0 km/h
2269 10-05-2010 22:02:02 11.5 C 5.68 g/m*3 11.5 C 0 km/h
2270 10-05-2010 22:14:02 11.5 C 5.58 g/m*3 11.5 C 0 km/h
2271 10-05-2010 22:27:04 11.2 C 5.57 g/m*3 11.2 C 0 km/h
2272 10-05-2010 22:39:04 11.1 C 5.54 g/m*3 11.1 C 0 km/h
2273 10-05-2010 22:51:04 11.8 C 5.79 g/m*3 11.8 C 0 km/h
2274 10-05-2010 23:03:04 11.6 C 5.92 g/m*3 11.6 C 0 km/h
2275 10-05-2010 23:15:05 11.2 C 5.68 g/m*3 11.2 C 0 km/h
Sensor: Nr:Datum:Temp:Abs-Feuchte:Windchill:Wind:
Aussen-T/F 2276 10-05-2010 23:27:05 11.3 C 5.81 g/m*3 11.3 C 0 km/h
2277 10-05-2010 23:39:05 11.4 C 5.85 g/m*3 11.4 C 0 km/h
2278 10-05-2010 23:51:05 11.2 C 5.78 g/m*3 11.2 C 0 km/h
2279 11-05-2010 00:03:05 11 C 5.71 g/m*3 11 C 0 km/h
2280 11-05-2010 00:15:05 11.1 C 5.74 g/m*3 11.1 C 0 km/h
2281 11-05-2010 00:27:05 10.7 C 5.7 g/m*3 10.7 C 0 km/h
2282 11-05-2010 00:39:05 10.8 C 5.83 g/m*3 10.8 C 0 km/h
2283 11-05-2010 00:51:05 10.8 C 5.83 g/m*3 10.8 C 0 km/h
2284 11-05-2010 01:03:05 10.4 C 5.88 g/m*3 10.4 C 0 km/h
2285 11-05-2010 01:15:05 10.5 C 5.82 g/m*3 10.5 C 0 km/h
2286 11-05-2010 01:27:05 10.5 C 5.92 g/m*3 10.5 C 0 km/h
2287 11-05-2010 01:39:05 10.4 C 5.98 g/m*3 10.4 C 0 km/h
2288 11-05-2010 01:51:05 10.3 C 6.03 g/m*3 10.3 C 0 km/h
2289 11-05-2010 02:03:05 10.1 C 5.96 g/m*3 10.1 C 0 km/h
2290 11-05-2010 02:15:05 10 C 6.01 g/m*3 10 C 0 km/h
2291 11-05-2010 02:27:05 10.1 C 6.05 g/m*3 10.1 C 0 km/h
2292 11-05-2010 02:39:05 10.1 C 6.05 g/m*3 10.1 C 0 km/h
2293 11-05-2010 02:51:05 10.2 C 6.09 g/m*3 10.2 C 0 km/h
2294 11-05-2010 03:03:05 10 C 6.11 g/m*3 10 C 0 km/h
2295 11-05-2010 03:15:05 9.7 C 5.99 g/m*3 9.7 C 0 km/h
2296 11-05-2010 03:27:05 9.9 C 6.07 g/m*3 9.9 C 0 km/h
2297 11-05-2010 03:39:06 9.7 C 6.27 g/m*3 9.7 C 0 km/h
2298 11-05-2010 03:51:06 9.6 C 6.32 g/m*3 9.6 C 0 km/h
2299 11-05-2010 04:03:06 9.7 C 6.45 g/m*3 9.7 C 0 km/h
2300 11-05-2010 04:15:06 9.5 C 6.1 g/m*3 9.5 C 0 km/h
Sensor: Nr:Datum:Temp:Abs-Feuchte:Windchill:Wind:
Aussen-T/F 2301 11-05-2010 04:27:06 9.4 C 6.06 g/m*3 9.4 C 0 km/h
2302 11-05-2010 04:39:06 9.3 C 6.02 g/m*3 9.3 C 0 km/h
2303 11-05-2010 04:51:06 9.4 C 6.15 g/m*3 9.4 C 0 km/h
2304 11-05-2010 05:03:06 9.4 C 6.15 g/m*3 9.4 C 0 km/h
2305 11-05-2010 05:15:06 9.3 C 6.11 g/m*3 9.3 C 0 km/h
2306 11-05-2010 05:27:06 9.5 C 6.19 g/m*3 9.5 C 0 km/h
2307 11-05-2010 05:39:06 9.4 C 6.15 g/m*3 9.4 C 0 km/h
2308 11-05-2010 05:51:06 9.3 C 6.2 g/m*3 9.3 C 0 km/h
2309 11-05-2010 06:03:06 9.4 C 6.24 g/m*3 9.4 C 0 km/h
2310 11-05-2010 06:15:06 9.3 C 6.11 g/m*3 9.3 C 0 km/h
2311 11-05-2010 06:27:06 9.3 C 6.2 g/m*3 9.3 C 0 km/h
2312 11-05-2010 06:39:06 9.1 C 6.12 g/m*3 9.1 C 0 km/h
2313 11-05-2010 06:51:02 9.1 C 6.12 g/m*3 9.1 C 0 km/h
2314 11-05-2010 07:03:01 9.3 C 6.29 g/m*3 9.3 C 0 km/h
2315 11-05-2010 07:15:02 9.5 C 6.37 g/m*3 9.5 C 0 km/h
2316 11-05-2010 07:27:02 9.6 C 6.32 g/m*3 9.6 C 0 km/h
2317 11-05-2010 07:39:02 9.7 C 6.27 g/m*3 9.7 C 0 km/h
2318 11-05-2010 07:51:01 9.9 C 6.35 g/m*3 9.9 C 0 km/h
2319 11-05-2010 08:03:02 10.1 C 6.24 g/m*3 10.1 C 0 km/h
2320 11-05-2010 08:15:01 10.5 C 6.3 g/m*3 10.5 C 0 km/h
2321 11-05-2010 08:27:01 10.7 C 6.19 g/m*3 10.7 C 0 km/h
2322 11-05-2010 08:39:01 11.2 C 6.28 g/m*3 11.2 C 0 km/h
2323 11-05-2010 08:51:01 12 C 6.29 g/m*3 12 C 0 km/h
2324 11-05-2010 09:03:02 11.7 C 6.07 g/m*3 11.7 C 0 km/h
2325 11-05-2010 09:15:01 11.7 C 6.07 g/m*3 11.7 C 0 km/h
Sensor: Nr:Datum:Temp:Abs-Feuchte:Windchill:Wind:
Aussen-T/F 2326 11-05-2010 09:27:01 11.9 C 6.14 g/m*3 11.9 C 0 km/h
2327 11-05-2010 09:39:02 12.8 C 6.05 g/m*3 12.8 C 0 km/h
2328 11-05-2010 09:51:01 12.7 C 5.79 g/m*3 12.7 C 0 km/h
2329 11-05-2010 10:03:02 12.8 C 6.16 g/m*3 12.8 C 0 km/h
2330 11-05-2010 10:15:02 13 C 6.01 g/m*3 13 C 0 km/h
2331 11-05-2010 10:27:02 13 C 5.9 g/m*3 13 C 0 km/h
2332 11-05-2010 10:39:01 12.3 C 5.97 g/m*3 12.3 C 0 km/h
2333 11-05-2010 10:51:01 11.8 C 6.21 g/m*3 11.8 C 0 km/h
2334 11-05-2010 11:03:01 12 C 6.07 g/m*3 12 C 0 km/h
2335 11-05-2010 11:15:02 12 C 6.07 g/m*3 12 C 0 km/h
2336 11-05-2010 11:27:02 12 C 6.18 g/m*3 12 C 0 km/h
2337 11-05-2010 11:39:02 12.5 C 6.38 g/m*3 12.5 C 0 km/h
2338 11-05-2010 11:51:02 14.1 C 6.19 g/m*3 14.1 C 0 km/h
2339 11-05-2010 12:03:02 14.1 C 5.95 g/m*3 14.1 C 0 km/h
2340 11-05-2010 12:15:02 13.7 C 6.28 g/m*3 13.7 C 0 km/h
2341 11-05-2010 12:27:02 14.8 C 6.33 g/m*3 14.8 C 0 km/h
2342 11-05-2010 12:39:01 14.1 C 5.95 g/m*3 14.1 C 0 km/h
2343 11-05-2010 12:51:02 14.3 C 6.27 g/m*3 14.3 C 0 km/h
2344 11-05-2010 13:03:01 13.4 C 6.16 g/m*3 13.4 C 0 km/h
2345 11-05-2010 13:15:01 13.7 C 6.39 g/m*3 13.7 C 0 km/h
2346 11-05-2010 13:27:01 14.2 C 6.23 g/m*3 14.2 C 0 km/h
2347 11-05-2010 13:39:01 14.1 C 6.19 g/m*3 14.1 C 0 km/h
2348 11-05-2010 13:51:02 13.3 C 6.35 g/m*3 13.3 C 0 km/h
2349 11-05-2010 14:03:01 14.1 C 6.43 g/m*3 14.1 C 0 km/h
2350 11-05-2010 14:15:01 14 C 6.27 g/m*3 14 C 0 km/h
Sensor: Nr:Datum:Temp:Abs-Feuchte:Windchill:Wind:
Aussen-T/F 2351 11-05-2010 14:27:01 14.1 C 6.43 g/m*3 14.1 C 0 km/h
2352 11-05-2010 14:39:02 14 C 6.39 g/m*3 14 C 0 km/h
2353 11-05-2010 14:51:02 14 C 6.51 g/m*3 14 C 0 km/h
2354 11-05-2010 15:03:02 14.4 C 6.55 g/m*3 14.4 C 0 km/h
2355 11-05-2010 15:15:02 14.1 C 6.31 g/m*3 14.1 C 0 km/h
2356 11-05-2010 15:27:02 14.7 C 6.55 g/m*3 14.7 C 0 km/h
2357 11-05-2010 15:39:02 14.5 C 6.34 g/m*3 14.5 C 0 km/h
2358 11-05-2010 15:51:02 14.3 C 6.39 g/m*3 14.3 C 0 km/h
2359 11-05-2010 16:03:03 14.3 C 6.51 g/m*3 14.3 C 0 km/h
2360 11-05-2010 16:15:02 14.8 C 6.71 g/m*3 14.8 C 0 km/h
2361 11-05-2010 16:27:02 15.6 C 6.65 g/m*3 15.6 C 0 km/h
2362 11-05-2010 16:39:03 15.9 C 6.5 g/m*3 15.9 C 0 km/h
2363 11-05-2010 16:51:01 15.6 C 6.52 g/m*3 15.6 C 0 km/h
2364 11-05-2010 17:03:02 14.9 C 6.75 g/m*3 14.9 C 0 km/h
2365 11-05-2010 17:15:01 15.1 C 6.58 g/m*3 15.1 C 0 km/h
2366 11-05-2010 17:27:01 14.7 C 6.8 g/m*3 14.7 C 0 km/h
2367 11-05-2010 17:39:02 14.8 C 6.71 g/m*3 14.8 C 0 km/h
2368 11-05-2010 17:51:01 14.7 C 6.8 g/m*3 14.7 C 0 km/h
2369 11-05-2010 18:03:02 14.5 C 6.96 g/m*3 14.5 C 0 km/h
2370 11-05-2010 18:15:02 13.9 C 7.07 g/m*3 13.9 C 0 km/h
2371 11-05-2010 18:27:02 12.5 C 7.48 g/m*3 12.5 C 0 km/h
2372 11-05-2010 18:39:02 11.9 C 8.05 g/m*3 11.9 C 0 km/h
2373 11-05-2010 18:51:01 11.6 C 8.21 g/m*3 11.6 C 0 km/h
2374 11-05-2010 19:03:02 11.3 C 8.16 g/m*3 11.3 C 0 km/h
2375 11-05-2010 19:15:02 11.1 C 8.36 g/m*3 11.1 C 0 km/h
Sensor: Nr:Datum:Temp:Abs-Feuchte:Windchill:Wind:
Aussen-T/F 2376 11-05-2010 19:27:02 10.9 C 8.36 g/m*3 10.9 C 0 km/h
2377 11-05-2010 19:39:02 10.8 C 8.3 g/m*3 10.8 C 0 km/h
2378 11-05-2010 19:51:01 10.6 C 8.39 g/m*3 10.6 C 0 km/h
2379 11-05-2010 20:03:02 10.5 C 8.44 g/m*3 10.5 C 0 km/h
2380 11-05-2010 20:15:02 10.2 C 8.37 g/m*3 10.2 C 0 km/h
2381 11-05-2010 20:27:02 10.1 C 8.42 g/m*3 10.1 C 0 km/h
2382 11-05-2010 20:39:02 10 C 8.46 g/m*3 10 C 0 km/h
2383 11-05-2010 20:51:02 9.8 C 8.54 g/m*3 9.8 C 0 km/h
2384 11-05-2010 21:03:01 9.8 C 8.54 g/m*3 9.8 C 0 km/h
2385 11-05-2010 21:15:02 9.9 C 8.59 g/m*3 9.9 C 0 km/h
2386 11-05-2010 21:27:03 10 C 8.64 g/m*3 10 C 0 km/h
2387 11-05-2010 21:39:01 9.8 C 8.63 g/m*3 9.8 C 0 km/h
2388 11-05-2010 21:51:02 9.8 C 8.63 g/m*3 9.8 C 0 km/h
2389 11-05-2010 22:03:02 9.7 C 8.57 g/m*3 9.7 C 0 km/h
2390 11-05-2010 22:15:01 9.6 C 8.52 g/m*3 9.6 C 0 km/h
2391 11-05-2010 22:27:01 9.8 C 8.72 g/m*3 9.8 C 0 km/h
2392 11-05-2010 22:40:03 9.6 C 8.61 g/m*3 9.6 C 0 km/h
2393 11-05-2010 22:52:03 9.7 C 8.67 g/m*3 9.7 C 0 km/h
2394 11-05-2010 23:04:03 9.8 C 8.72 g/m*3 9.8 C 0 km/h
2395 11-05-2010 23:16:03 9.8 C 8.72 g/m*3 9.8 C 0 km/h
2396 11-05-2010 23:28:03 9.8 C 8.72 g/m*3 9.8 C 0 km/h
2397 11-05-2010 23:40:03 9.9 C 8.78 g/m*3 9.9 C 0 km/h
2398 11-05-2010 23:52:03 9.7 C 8.67 g/m*3 9.7 C 0 km/h
2399 12-05-2010 00:04:03 9.7 C 8.67 g/m*3 9.7 C 0 km/h
2400 12-05-2010 00:16:03 9.6 C 8.61 g/m*3 9.6 C 0 km/h
Sensor: Nr:Datum:Temp:Abs-Feuchte:Windchill:Wind:
Aussen-T/F 2401 12-05-2010 00:28:03 9.1 C 8.34 g/m*3 9.1 C 0 km/h
2402 12-05-2010 00:40:03 9.1 C 8.34 g/m*3 9.1 C 0 km/h
2403 12-05-2010 00:52:03 9.1 C 8.34 g/m*3 9.1 C 0 km/h
2404 12-05-2010 01:04:03 9.1 C 8.34 g/m*3 9.1 C 0 km/h
2405 12-05-2010 01:16:03 8.8 C 8.27 g/m*3 8.8 C 0 km/h
2406 12-05-2010 01:28:04 8.5 C 8.03 g/m*3 8.5 C 0 km/h
2407 12-05-2010 01:40:04 8.4 C 7.97 g/m*3 8.4 C 0 km/h
2408 12-05-2010 01:52:04 7.8 C 7.75 g/m*3 7.8 C 0 km/h
2409 12-05-2010 02:04:04 7.5 C 7.52 g/m*3 7.5 C 0 km/h
2410 12-05-2010 02:16:04 7.8 C 7.75 g/m*3 7.8 C 0 km/h
2411 12-05-2010 02:28:04 7.9 C 7.8 g/m*3 7.9 C 0 km/h
2412 12-05-2010 02:40:04 7.9 C 7.8 g/m*3 7.9 C 0 km/h
2413 12-05-2010 02:52:04 7.5 C 7.6 g/m*3 7.5 C 0 km/h
2414 12-05-2010 03:04:04 7.3 C 7.43 g/m*3 7.3 C 0 km/h
2415 12-05-2010 03:16:04 7.2 C 7.38 g/m*3 7.2 C 0 km/h
2416 12-05-2010 03:28:04 7.1 C 7.33 g/m*3 7.1 C 0 km/h
2417 12-05-2010 03:40:04 7 C 7.28 g/m*3 7 C 0 km/h
2418 12-05-2010 03:52:04 7 C 7.21 g/m*3 7 C 0 km/h
2419 12-05-2010 04:04:04 6.9 C 7.16 g/m*3 6.9 C 0 km/h
2420 12-05-2010 04:16:04 6.9 C 7.08 g/m*3 6.9 C 0 km/h
2421 12-05-2010 04:28:04 6.9 C 7.01 g/m*3 6.9 C 0 km/h
2422 12-05-2010 04:40:04 6.9 C 6.93 g/m*3 6.9 C 0 km/h
2423 12-05-2010 04:52:04 6.8 C 6.81 g/m*3 6.8 C 0 km/h
2424 12-05-2010 05:04:04 6.8 C 6.73 g/m*3 6.8 C 0 km/h
2425 12-05-2010 05:16:04 6.8 C 6.65 g/m*3 6.8 C 0 km/h
Sensor: Nr:Datum:Temp:Abs-Feuchte:Windchill:Wind:
Aussen-T/F 2426 12-05-2010 05:28:04 6.8 C 6.65 g/m*3 6.8 C 0 km/h
2427 12-05-2010 05:40:05 6.8 C 6.65 g/m*3 6.8 C 0 km/h
2428 12-05-2010 05:52:05 6.8 C 6.65 g/m*3 6.8 C 0 km/h
2429 12-05-2010 06:04:05 6.7 C 6.61 g/m*3 6.7 C 0 km/h
2430 12-05-2010 06:16:05 6.8 C 6.58 g/m*3 6.8 C 0 km/h
2431 12-05-2010 06:28:05 6.8 C 6.5 g/m*3 6.8 C 0 km/h
2432 12-05-2010 06:40:05 6.8 C 6.58 g/m*3 6.8 C 0 km/h
2433 12-05-2010 06:52:05 6.8 C 6.58 g/m*3 6.8 C 0 km/h
2434 12-05-2010 07:04:03 6.9 C 6.54 g/m*3 6.9 C 0 km/h
2435 12-05-2010 07:16:03 7 C 6.59 g/m*3 7 C 0 km/h
2436 12-05-2010 07:28:03 7.1 C 6.71 g/m*3 7.1 C 0 km/h
2437 12-05-2010 07:40:03 7.2 C 6.67 g/m*3 7.2 C 0 km/h
2438 12-05-2010 07:52:02 7.2 C 6.59 g/m*3 7.2 C 0 km/h
2439 12-05-2010 08:04:02 7.3 C 6.56 g/m*3 7.3 C 0 km/h
2440 12-05-2010 08:16:02 7.6 C 6.69 g/m*3 7.6 C 0 km/h
2441 12-05-2010 08:28:02 7.7 C 6.57 g/m*3 7.7 C 0 km/h
2442 12-05-2010 08:40:02 7.8 C 6.45 g/m*3 7.8 C 0 km/h
2443 12-05-2010 08:52:01 7.8 C 6.45 g/m*3 7.8 C 0 km/h
2444 12-05-2010 09:04:02 8 C 6.37 g/m*3 8 C 0 km/h
2445 12-05-2010 09:16:01 8.3 C 6.41 g/m*3 8.3 C 0 km/h
2446 12-05-2010 09:28:01 8.4 C 6.19 g/m*3 8.4 C 0 km/h
2447 12-05-2010 09:40:01 8.3 C 6.07 g/m*3 8.3 C 0 km/h
2448 12-05-2010 09:52:01 8.4 C 6.11 g/m*3 8.4 C 0 km/h
2449 12-05-2010 10:04:02 8.4 C 6.02 g/m*3 8.4 C 0 km/h
2450 12-05-2010 10:16:01 8.6 C 6.1 g/m*3 8.6 C 0 km/h
Sensor: Nr:Datum:Temp:Abs-Feuchte:Windchill:Wind:
Aussen-T/F 2451 12-05-2010 10:28:01 8.6 C 6.02 g/m*3 8.6 C 0 km/h
2452 12-05-2010 10:40:01 8.7 C 5.97 g/m*3 8.7 C 0 km/h
2453 12-05-2010 10:52:01 8.7 C 5.79 g/m*3 8.7 C 0 km/h
2454 12-05-2010 11:04:01 8.7 C 5.79 g/m*3 8.7 C 0 km/h
2455 12-05-2010 11:16:02 8.9 C 5.87 g/m*3 8.9 C 0 km/h
2456 12-05-2010 11:28:02 8.9 C 5.61 g/m*3 8.9 C 0 km/h
2457 12-05-2010 11:40:01 9.3 C 5.57 g/m*3 9.3 C 0 km/h
2458 12-05-2010 11:52:01 10.1 C 5.67 g/m*3 10.1 C 0 km/h
2459 12-05-2010 12:04:01 10 C 5.54 g/m*3 10 C 0 km/h
2460 12-05-2010 12:16:02 9.7 C 5.35 g/m*3 9.7 C 0 km/h
2461 12-05-2010 12:28:02 9.9 C 5.51 g/m*3 9.9 C 0 km/h
2462 12-05-2010 12:40:01 10.5 C 5.33 g/m*3 10.5 C 0 km/h
2463 12-05-2010 12:52:03 10.2 C 5.42 g/m*3 10.2 C 0 km/h
2464 12-05-2010 13:04:02 10.5 C 5.43 g/m*3 10.5 C 0 km/h
2465 12-05-2010 13:16:02 11.1 C 5.34 g/m*3 11.1 C 0 km/h
2466 12-05-2010 13:28:02 10.7 C 5.3 g/m*3 10.7 C 0 km/h
2467 12-05-2010 13:40:02 10.4 C 5.2 g/m*3 10.4 C 0 km/h
2468 12-05-2010 13:52:02 10.7 C 5.21 g/m*3 10.7 C 0 km/h
2469 12-05-2010 14:04:02 10.2 C 5.23 g/m*3 10.2 C 0 km/h
2470 12-05-2010 14:16:02 10.2 C 5.23 g/m*3 10.2 C 0 km/h
2471 12-05-2010 14:28:02 10.6 C 5.17 g/m*3 10.6 C 0 km/h
2472 12-05-2010 14:40:01 10.9 C 5.17 g/m*3 10.9 C 0 km/h
2473 12-05-2010 14:52:02 10.7 C 4.81 g/m*3 10.7 C 0 km/h
2474 12-05-2010 15:04:01 11.1 C 5.14 g/m*3 11.1 C 0 km/h
2475 12-05-2010 15:16:02 10.8 C 4.94 g/m*3 10.8 C 0 km/h
Sensor: Nr:Datum:Temp:Abs-Feuchte:Windchill:Wind:
Aussen-T/F 2476 12-05-2010 15:28:02 10.8 C 4.84 g/m*3 10.8 C 0 km/h
2477 12-05-2010 15:40:02 10.8 C 5.04 g/m*3 10.8 C 0 km/h
2478 12-05-2010 15:52:02 10.7 C 5.11 g/m*3 10.7 C 0 km/h
2479 12-05-2010 16:04:02 10.8 C 5.24 g/m*3 10.8 C 0 km/h
2480 12-05-2010 16:16:02 10.9 C 5.17 g/m*3 10.9 C 0 km/h
2481 12-05-2010 16:28:02 10.7 C 5.3 g/m*3 10.7 C 0 km/h
2482 12-05-2010 16:40:02 10.3 C 5.17 g/m*3 10.3 C 0 km/h
2483 12-05-2010 16:52:01 9.9 C 5.32 g/m*3 9.9 C 0 km/h
2484 12-05-2010 17:04:02 9.6 C 5.22 g/m*3 9.6 C 0 km/h
2485 12-05-2010 17:16:01 9.7 C 5.35 g/m*3 9.7 C 0 km/h
2486 12-05-2010 17:28:01 9.9 C 5.32 g/m*3 9.9 C 0 km/h
2487 12-05-2010 17:40:02 9.9 C 5.32 g/m*3 9.9 C 0 km/h
2488 12-05-2010 17:52:02 9.6 C 5.22 g/m*3 9.6 C 0 km/h
2489 12-05-2010 18:04:02 9.6 C 5.4 g/m*3 9.6 C 0 km/h
2490 12-05-2010 18:16:01 9.3 C 5.39 g/m*3 9.3 C 0 km/h
2491 12-05-2010 18:28:01 9.1 C 5.41 g/m*3 9.1 C 0 km/h
2492 12-05-2010 18:40:02 9.1 C 5.5 g/m*3 9.1 C 0 km/h
2493 12-05-2010 18:52:02 9 C 5.55 g/m*3 9 C 0 km/h
2494 12-05-2010 19:04:02 9 C 5.64 g/m*3 9 C 0 km/h
2495 12-05-2010 19:16:01 8.8 C 5.66 g/m*3 8.8 C 0 km/h
2496 12-05-2010 19:28:01 9 C 5.73 g/m*3 9 C 0 km/h
2497 12-05-2010 19:40:02 9 C 5.73 g/m*3 9 C 0 km/h
2498 12-05-2010 19:52:02 8.7 C 5.71 g/m*3 8.7 C 0 km/h
2499 12-05-2010 20:04:02 8.6 C 5.76 g/m*3 8.6 C 0 km/h
2500 12-05-2010 20:16:02 8.6 C 5.84 g/m*3 8.6 C 0 km/h
Sensor: Nr:Datum:Temp:Abs-Feuchte:Windchill:Wind:
Aussen-T/F 2501 12-05-2010 20:28:02 8.6 C 5.84 g/m*3 8.6 C 0 km/h
2502 12-05-2010 20:40:02 8.5 C 5.81 g/m*3 8.5 C 0 km/h
2503 12-05-2010 20:52:02 8.5 C 5.98 g/m*3 8.5 C 0 km/h
2504 12-05-2010 21:04:02 8.5 C 5.89 g/m*3 8.5 C 0 km/h
2505 12-05-2010 21:16:02 8.4 C 5.94 g/m*3 8.4 C 0 km/h
2506 12-05-2010 21:28:02 8.5 C 6.06 g/m*3 8.5 C 0 km/h
2507 12-05-2010 21:40:01 8.5 C 6.06 g/m*3 8.5 C 0 km/h
2508 12-05-2010 21:52:02 8.3 C 6.07 g/m*3 8.3 C 0 km/h
2509 12-05-2010 22:04:01 8 C 6.2 g/m*3 8 C 0 km/h
2510 12-05-2010 22:17:03 8 C 6.37 g/m*3 8 C 0 km/h
2511 12-05-2010 22:29:03 7.6 C 6.36 g/m*3 7.6 C 0 km/h
2512 12-05-2010 22:41:03 7.5 C 6.48 g/m*3 7.5 C 0 km/h
2513 12-05-2010 22:53:03 7.7 C 6.65 g/m*3 7.7 C 0 km/h
2514 12-05-2010 23:05:03 7.8 C 6.69 g/m*3 7.8 C 0 km/h
2515 12-05-2010 23:17:03 7.8 C 6.69 g/m*3 7.8 C 0 km/h
2516 12-05-2010 23:29:03 7.8 C 6.69 g/m*3 7.8 C 0 km/h
2517 12-05-2010 23:41:04 7.9 C 6.74 g/m*3 7.9 C 0 km/h
2518 12-05-2010 23:53:04 7.7 C 6.57 g/m*3 7.7 C 0 km/h

Legende:
   Min
   Max


Maximal/Minimal-Werte vom 11.04.2020 - 13.05.2020

Sensor Min Max Avg
Temp
(Aussen-T/F)
-0.1 °C
15-04-2020  06:55:00
26.2 °C
17-04-2020  18:05:00
12.26 °C

Die Daten stammen von einer Davis Vantage Pro 2 Wetter-Station und werden unter Linux mit der Software wview2wettercgi und aufbereitet. Alle Angaben erfolgen ohne Gewähr für ihre Vollständigkeit oder Richtigkeit.
Kontakt: Rainer Krienke krienke@uni-koblenz.de . Meine Webseiten an der Uni Koblenz oder privat.
Version: $Revision: 0.78 $